<?xml version="1.0" encoding="UTF-8" standalone="no" ?>
<gpx xmlns="http://www.topografix.com/GPX/1/1" xmlns:xsi="http://www.w3.org/2001/XMLSchema-instance" xsi:schemaLocation="http://www.topografix.com/GPX/1/1 http://www.topografix.com/GPX/1/1/gpx.xsd" version="1.1" creator="VisuGPX - https://www.visugpx.com">
  <metadata>
    <name>Crête du Lauzet</name>
    <desc><![CDATA[Crête du Lauzet]]></desc>
  </metadata>
  <trk>
    <name><![CDATA[Crête du Lauzet_1]]></name>
    <trkseg>
      <trkpt lat="44.53825" lon="6.49639">
        <ele>864.4</ele>
        <time>2014-09-14T05:55:13Z</time>
      </trkpt>
      <trkpt lat="44.53825" lon="6.49639">
        <ele>864.4</ele>
        <time>2014-09-14T05:55:14Z</time>
      </trkpt>
      <trkpt lat="44.53824" lon="6.4964">
        <ele>864.4</ele>
        <time>2014-09-14T05:55:23Z</time>
      </trkpt>
      <trkpt lat="44.53826" lon="6.49653">
        <ele>864.4</ele>
        <time>2014-09-14T05:55:37Z</time>
      </trkpt>
      <trkpt lat="44.53828" lon="6.49663">
        <ele>864.4</ele>
        <time>2014-09-14T05:55:45Z</time>
      </trkpt>
      <trkpt lat="44.53842" lon="6.49654">
        <ele>864.8</ele>
        <time>2014-09-14T05:55:51Z</time>
      </trkpt>
      <trkpt lat="44.53863" lon="6.49613">
        <ele>864.8</ele>
        <time>2014-09-14T05:56:02Z</time>
      </trkpt>
      <trkpt lat="44.53868" lon="6.49566">
        <ele>867.3</ele>
        <time>2014-09-14T05:56:16Z</time>
      </trkpt>
      <trkpt lat="44.53856" lon="6.49522">
        <ele>867.3</ele>
        <time>2014-09-14T05:56:26Z</time>
      </trkpt>
      <trkpt lat="44.53853" lon="6.49504">
        <ele>867.3</ele>
        <time>2014-09-14T05:56:29Z</time>
      </trkpt>
      <trkpt lat="44.53848" lon="6.49485">
        <ele>865.8</ele>
        <time>2014-09-14T05:56:32Z</time>
      </trkpt>
      <trkpt lat="44.53835" lon="6.49447">
        <ele>865.3</ele>
        <time>2014-09-14T05:56:39Z</time>
      </trkpt>
      <trkpt lat="44.53814" lon="6.49375">
        <ele>864.4</ele>
        <time>2014-09-14T05:56:52Z</time>
      </trkpt>
      <trkpt lat="44.53809" lon="6.49365">
        <ele>864.4</ele>
        <time>2014-09-14T05:56:54Z</time>
      </trkpt>
      <trkpt lat="44.53771" lon="6.49323">
        <ele>865.8</ele>
        <time>2014-09-14T05:57:07Z</time>
      </trkpt>
      <trkpt lat="44.53758" lon="6.49288">
        <ele>865.8</ele>
        <time>2014-09-14T05:57:14Z</time>
      </trkpt>
      <trkpt lat="44.5375" lon="6.49235">
        <ele>865.8</ele>
        <time>2014-09-14T05:57:23Z</time>
      </trkpt>
      <trkpt lat="44.53733" lon="6.49184">
        <ele>866.8</ele>
        <time>2014-09-14T05:57:33Z</time>
      </trkpt>
      <trkpt lat="44.53707" lon="6.49179">
        <ele>869.7</ele>
        <time>2014-09-14T05:57:45Z</time>
      </trkpt>
      <trkpt lat="44.53684" lon="6.49176">
        <ele>873</ele>
        <time>2014-09-14T05:58:00Z</time>
      </trkpt>
      <trkpt lat="44.53657" lon="6.49173">
        <ele>876.4</ele>
        <time>2014-09-14T05:58:16Z</time>
      </trkpt>
      <trkpt lat="44.53637" lon="6.49164">
        <ele>878.8</ele>
        <time>2014-09-14T05:58:30Z</time>
      </trkpt>
      <trkpt lat="44.53622" lon="6.49158">
        <ele>880.7</ele>
        <time>2014-09-14T05:58:41Z</time>
      </trkpt>
      <trkpt lat="44.5361" lon="6.49152">
        <ele>881.7</ele>
        <time>2014-09-14T05:58:50Z</time>
      </trkpt>
      <trkpt lat="44.53585" lon="6.49135">
        <ele>884.6</ele>
        <time>2014-09-14T05:59:08Z</time>
      </trkpt>
      <trkpt lat="44.53565" lon="6.49125">
        <ele>887.4</ele>
        <time>2014-09-14T05:59:23Z</time>
      </trkpt>
      <trkpt lat="44.53546" lon="6.49119">
        <ele>889.4</ele>
        <time>2014-09-14T05:59:37Z</time>
      </trkpt>
      <trkpt lat="44.53543" lon="6.49116">
        <ele>889.8</ele>
        <time>2014-09-14T05:59:40Z</time>
      </trkpt>
      <trkpt lat="44.53539" lon="6.49077">
        <ele>892.2</ele>
        <time>2014-09-14T05:59:57Z</time>
      </trkpt>
      <trkpt lat="44.53525" lon="6.49035">
        <ele>893.7</ele>
        <time>2014-09-14T06:00:12Z</time>
      </trkpt>
      <trkpt lat="44.53504" lon="6.48997">
        <ele>896.1</ele>
        <time>2014-09-14T06:00:28Z</time>
      </trkpt>
      <trkpt lat="44.53472" lon="6.48956">
        <ele>897.5</ele>
        <time>2014-09-14T06:00:43Z</time>
      </trkpt>
      <trkpt lat="44.53442" lon="6.48893">
        <ele>897.5</ele>
        <time>2014-09-14T06:00:57Z</time>
      </trkpt>
      <trkpt lat="44.53433" lon="6.48804">
        <ele>897.5</ele>
        <time>2014-09-14T06:01:12Z</time>
      </trkpt>
      <trkpt lat="44.53429" lon="6.48747">
        <ele>900.4</ele>
        <time>2014-09-14T06:01:25Z</time>
      </trkpt>
      <trkpt lat="44.53415" lon="6.48694">
        <ele>900.9</ele>
        <time>2014-09-14T06:01:40Z</time>
      </trkpt>
      <trkpt lat="44.53395" lon="6.48648">
        <ele>902.8</ele>
        <time>2014-09-14T06:01:53Z</time>
      </trkpt>
      <trkpt lat="44.53373" lon="6.4861">
        <ele>903.8</ele>
        <time>2014-09-14T06:02:04Z</time>
      </trkpt>
      <trkpt lat="44.53343" lon="6.48552">
        <ele>905.2</ele>
        <time>2014-09-14T06:02:19Z</time>
      </trkpt>
      <trkpt lat="44.53325" lon="6.48501">
        <ele>907.1</ele>
        <time>2014-09-14T06:02:33Z</time>
      </trkpt>
      <trkpt lat="44.53303" lon="6.4845">
        <ele>909.1</ele>
        <time>2014-09-14T06:02:48Z</time>
      </trkpt>
      <trkpt lat="44.53282" lon="6.48411">
        <ele>912.4</ele>
        <time>2014-09-14T06:03:03Z</time>
      </trkpt>
      <trkpt lat="44.53267" lon="6.48362">
        <ele>915.3</ele>
        <time>2014-09-14T06:03:19Z</time>
      </trkpt>
      <trkpt lat="44.53243" lon="6.48315">
        <ele>918.2</ele>
        <time>2014-09-14T06:03:36Z</time>
      </trkpt>
      <trkpt lat="44.53225" lon="6.48263">
        <ele>919.2</ele>
        <time>2014-09-14T06:03:51Z</time>
      </trkpt>
      <trkpt lat="44.53198" lon="6.48224">
        <ele>920.1</ele>
        <time>2014-09-14T06:04:04Z</time>
      </trkpt>
      <trkpt lat="44.53195" lon="6.4822">
        <ele>920.1</ele>
        <time>2014-09-14T06:04:05Z</time>
      </trkpt>
      <trkpt lat="44.53187" lon="6.48201">
        <ele>920.1</ele>
        <time>2014-09-14T06:04:09Z</time>
      </trkpt>
      <trkpt lat="44.5317" lon="6.48155">
        <ele>920.1</ele>
        <time>2014-09-14T06:04:19Z</time>
      </trkpt>
      <trkpt lat="44.53157" lon="6.48159">
        <ele>920.1</ele>
        <time>2014-09-14T06:04:25Z</time>
      </trkpt>
      <trkpt lat="44.53146" lon="6.48188">
        <ele>921.6</ele>
        <time>2014-09-14T06:04:40Z</time>
      </trkpt>
      <trkpt lat="44.53149" lon="6.48188">
        <ele>921.6</ele>
        <time>2014-09-14T06:05:04Z</time>
      </trkpt>
      <trkpt lat="44.53148" lon="6.48189">
        <ele>922</ele>
        <time>2014-09-14T06:05:32Z</time>
      </trkpt>
      <trkpt lat="44.53146" lon="6.48188">
        <ele>922</ele>
        <time>2014-09-14T06:05:41Z</time>
      </trkpt>
      <trkpt lat="44.53143" lon="6.48226">
        <ele>923</ele>
        <time>2014-09-14T06:05:54Z</time>
      </trkpt>
      <trkpt lat="44.53126" lon="6.48282">
        <ele>925.9</ele>
        <time>2014-09-14T06:06:13Z</time>
      </trkpt>
      <trkpt lat="44.53113" lon="6.48319">
        <ele>928.8</ele>
        <time>2014-09-14T06:06:26Z</time>
      </trkpt>
      <trkpt lat="44.5309" lon="6.48344">
        <ele>930.7</ele>
        <time>2014-09-14T06:06:41Z</time>
      </trkpt>
      <trkpt lat="44.5307" lon="6.48349">
        <ele>932.1</ele>
        <time>2014-09-14T06:06:51Z</time>
      </trkpt>
      <trkpt lat="44.53054" lon="6.48352">
        <ele>933.1</ele>
        <time>2014-09-14T06:06:59Z</time>
      </trkpt>
      <trkpt lat="44.53037" lon="6.48387">
        <ele>935.5</ele>
        <time>2014-09-14T06:07:14Z</time>
      </trkpt>
      <trkpt lat="44.53037" lon="6.48431">
        <ele>938.4</ele>
        <time>2014-09-14T06:07:30Z</time>
      </trkpt>
      <trkpt lat="44.53044" lon="6.48467">
        <ele>940.8</ele>
        <time>2014-09-14T06:07:44Z</time>
      </trkpt>
      <trkpt lat="44.53063" lon="6.48506">
        <ele>943.7</ele>
        <time>2014-09-14T06:08:02Z</time>
      </trkpt>
      <trkpt lat="44.53061" lon="6.48546">
        <ele>946.6</ele>
        <time>2014-09-14T06:08:18Z</time>
      </trkpt>
      <trkpt lat="44.53055" lon="6.48588">
        <ele>949.9</ele>
        <time>2014-09-14T06:08:35Z</time>
      </trkpt>
      <trkpt lat="44.53042" lon="6.48621">
        <ele>952.8</ele>
        <time>2014-09-14T06:08:50Z</time>
      </trkpt>
      <trkpt lat="44.53015" lon="6.48613">
        <ele>955.7</ele>
        <time>2014-09-14T06:09:07Z</time>
      </trkpt>
      <trkpt lat="44.52996" lon="6.4858">
        <ele>957.1</ele>
        <time>2014-09-14T06:09:23Z</time>
      </trkpt>
      <trkpt lat="44.52971" lon="6.48557">
        <ele>959.5</ele>
        <time>2014-09-14T06:09:38Z</time>
      </trkpt>
      <trkpt lat="44.52946" lon="6.48533">
        <ele>961.9</ele>
        <time>2014-09-14T06:09:55Z</time>
      </trkpt>
      <trkpt lat="44.52926" lon="6.485">
        <ele>965.3</ele>
        <time>2014-09-14T06:10:12Z</time>
      </trkpt>
      <trkpt lat="44.52909" lon="6.48471">
        <ele>968.2</ele>
        <time>2014-09-14T06:10:27Z</time>
      </trkpt>
      <trkpt lat="44.52888" lon="6.48438">
        <ele>971.1</ele>
        <time>2014-09-14T06:10:43Z</time>
      </trkpt>
      <trkpt lat="44.52863" lon="6.48435">
        <ele>973</ele>
        <time>2014-09-14T06:10:57Z</time>
      </trkpt>
      <trkpt lat="44.52846" lon="6.48426">
        <ele>974.9</ele>
        <time>2014-09-14T06:11:08Z</time>
      </trkpt>
      <trkpt lat="44.52835" lon="6.48401">
        <ele>976.8</ele>
        <time>2014-09-14T06:11:20Z</time>
      </trkpt>
      <trkpt lat="44.52831" lon="6.48356">
        <ele>980.2</ele>
        <time>2014-09-14T06:11:38Z</time>
      </trkpt>
      <trkpt lat="44.52819" lon="6.48324">
        <ele>982.6</ele>
        <time>2014-09-14T06:11:53Z</time>
      </trkpt>
      <trkpt lat="44.52818" lon="6.48315">
        <ele>983.6</ele>
        <time>2014-09-14T06:11:57Z</time>
      </trkpt>
      <trkpt lat="44.52809" lon="6.48284">
        <ele>985</ele>
        <time>2014-09-14T06:12:10Z</time>
      </trkpt>
      <trkpt lat="44.52802" lon="6.48261">
        <ele>986.9</ele>
        <time>2014-09-14T06:12:20Z</time>
      </trkpt>
      <trkpt lat="44.5279" lon="6.48225">
        <ele>988.9</ele>
        <time>2014-09-14T06:12:35Z</time>
      </trkpt>
      <trkpt lat="44.5278" lon="6.48187">
        <ele>991.3</ele>
        <time>2014-09-14T06:12:49Z</time>
      </trkpt>
      <trkpt lat="44.52772" lon="6.48149">
        <ele>992.7</ele>
        <time>2014-09-14T06:13:03Z</time>
      </trkpt>
      <trkpt lat="44.5276" lon="6.48143">
        <ele>994.1</ele>
        <time>2014-09-14T06:13:10Z</time>
      </trkpt>
      <trkpt lat="44.52755" lon="6.48154">
        <ele>995.1</ele>
        <time>2014-09-14T06:13:15Z</time>
      </trkpt>
      <trkpt lat="44.52754" lon="6.48203">
        <ele>997.5</ele>
        <time>2014-09-14T06:13:32Z</time>
      </trkpt>
      <trkpt lat="44.52755" lon="6.48247">
        <ele>999.9</ele>
        <time>2014-09-14T06:13:47Z</time>
      </trkpt>
      <trkpt lat="44.52757" lon="6.48288">
        <ele>1002.3</ele>
        <time>2014-09-14T06:14:03Z</time>
      </trkpt>
      <trkpt lat="44.52758" lon="6.4829">
        <ele>1002.3</ele>
        <time>2014-09-14T06:14:04Z</time>
      </trkpt>
      <trkpt lat="44.52759" lon="6.48303">
        <ele>1003.3</ele>
        <time>2014-09-14T06:14:09Z</time>
      </trkpt>
      <trkpt lat="44.5276" lon="6.4832">
        <ele>1004.7</ele>
        <time>2014-09-14T06:14:16Z</time>
      </trkpt>
      <trkpt lat="44.52763" lon="6.48333">
        <ele>1006.2</ele>
        <time>2014-09-14T06:14:21Z</time>
      </trkpt>
      <trkpt lat="44.52753" lon="6.48362">
        <ele>1008.6</ele>
        <time>2014-09-14T06:14:34Z</time>
      </trkpt>
      <trkpt lat="44.52743" lon="6.4839">
        <ele>1011.4</ele>
        <time>2014-09-14T06:14:48Z</time>
      </trkpt>
      <trkpt lat="44.52747" lon="6.48413">
        <ele>1013.4</ele>
        <time>2014-09-14T06:14:58Z</time>
      </trkpt>
      <trkpt lat="44.52748" lon="6.48424">
        <ele>1014.3</ele>
        <time>2014-09-14T06:15:03Z</time>
      </trkpt>
      <trkpt lat="44.52747" lon="6.4844">
        <ele>1015.8</ele>
        <time>2014-09-14T06:15:10Z</time>
      </trkpt>
      <trkpt lat="44.52749" lon="6.4848">
        <ele>1019.1</ele>
        <time>2014-09-14T06:15:28Z</time>
      </trkpt>
      <trkpt lat="44.52745" lon="6.48499">
        <ele>1020.6</ele>
        <time>2014-09-14T06:15:37Z</time>
      </trkpt>
      <trkpt lat="44.52732" lon="6.48531">
        <ele>1022.5</ele>
        <time>2014-09-14T06:15:53Z</time>
      </trkpt>
      <trkpt lat="44.52732" lon="6.48574">
        <ele>1025.4</ele>
        <time>2014-09-14T06:16:11Z</time>
      </trkpt>
      <trkpt lat="44.52728" lon="6.48609">
        <ele>1027.8</ele>
        <time>2014-09-14T06:16:26Z</time>
      </trkpt>
      <trkpt lat="44.52731" lon="6.4864">
        <ele>1029.2</ele>
        <time>2014-09-14T06:16:39Z</time>
      </trkpt>
      <trkpt lat="44.5272" lon="6.48675">
        <ele>1031.2</ele>
        <time>2014-09-14T06:16:53Z</time>
      </trkpt>
      <trkpt lat="44.5271" lon="6.4867">
        <ele>1032.6</ele>
        <time>2014-09-14T06:17:00Z</time>
      </trkpt>
      <trkpt lat="44.5271" lon="6.48641">
        <ele>1034</ele>
        <time>2014-09-14T06:17:11Z</time>
      </trkpt>
      <trkpt lat="44.52702" lon="6.48604">
        <ele>1036.4</ele>
        <time>2014-09-14T06:17:25Z</time>
      </trkpt>
      <trkpt lat="44.52699" lon="6.48587">
        <ele>1037.9</ele>
        <time>2014-09-14T06:17:32Z</time>
      </trkpt>
      <trkpt lat="44.5269" lon="6.48547">
        <ele>1040.8</ele>
        <time>2014-09-14T06:17:48Z</time>
      </trkpt>
      <trkpt lat="44.52682" lon="6.48512">
        <ele>1043.2</ele>
        <time>2014-09-14T06:18:02Z</time>
      </trkpt>
      <trkpt lat="44.52678" lon="6.48474">
        <ele>1045.1</ele>
        <time>2014-09-14T06:18:16Z</time>
      </trkpt>
      <trkpt lat="44.52672" lon="6.48423">
        <ele>1047.5</ele>
        <time>2014-09-14T06:18:34Z</time>
      </trkpt>
      <trkpt lat="44.5266" lon="6.48371">
        <ele>1049.4</ele>
        <time>2014-09-14T06:18:50Z</time>
      </trkpt>
      <trkpt lat="44.52632" lon="6.4833">
        <ele>1052.3</ele>
        <time>2014-09-14T06:19:06Z</time>
      </trkpt>
      <trkpt lat="44.52629" lon="6.48328">
        <ele>1052.8</ele>
        <time>2014-09-14T06:19:08Z</time>
      </trkpt>
      <trkpt lat="44.52623" lon="6.48338">
        <ele>1054.7</ele>
        <time>2014-09-14T06:19:15Z</time>
      </trkpt>
      <trkpt lat="44.52627" lon="6.48376">
        <ele>1057.6</ele>
        <time>2014-09-14T06:19:31Z</time>
      </trkpt>
      <trkpt lat="44.52632" lon="6.48418">
        <ele>1061</ele>
        <time>2014-09-14T06:19:49Z</time>
      </trkpt>
      <trkpt lat="44.52635" lon="6.48425">
        <ele>1061.4</ele>
        <time>2014-09-14T06:19:52Z</time>
      </trkpt>
      <trkpt lat="44.52635" lon="6.48457">
        <ele>1063.4</ele>
        <time>2014-09-14T06:20:05Z</time>
      </trkpt>
      <trkpt lat="44.52633" lon="6.48497">
        <ele>1065.3</ele>
        <time>2014-09-14T06:20:21Z</time>
      </trkpt>
      <trkpt lat="44.5263" lon="6.48529">
        <ele>1067.7</ele>
        <time>2014-09-14T06:20:33Z</time>
      </trkpt>
      <trkpt lat="44.52623" lon="6.4852">
        <ele>1069.1</ele>
        <time>2014-09-14T06:20:41Z</time>
      </trkpt>
      <trkpt lat="44.52609" lon="6.48477">
        <ele>1071.5</ele>
        <time>2014-09-14T06:20:55Z</time>
      </trkpt>
      <trkpt lat="44.52582" lon="6.48441">
        <ele>1074.4</ele>
        <time>2014-09-14T06:21:12Z</time>
      </trkpt>
      <trkpt lat="44.52556" lon="6.48408">
        <ele>1076.8</ele>
        <time>2014-09-14T06:21:27Z</time>
      </trkpt>
      <trkpt lat="44.52534" lon="6.48382">
        <ele>1079.2</ele>
        <time>2014-09-14T06:21:40Z</time>
      </trkpt>
      <trkpt lat="44.5251" lon="6.48355">
        <ele>1081.6</ele>
        <time>2014-09-14T06:21:55Z</time>
      </trkpt>
      <trkpt lat="44.525" lon="6.48345">
        <ele>1082.6</ele>
        <time>2014-09-14T06:22:00Z</time>
      </trkpt>
      <trkpt lat="44.52473" lon="6.48313">
        <ele>1085.5</ele>
        <time>2014-09-14T06:22:15Z</time>
      </trkpt>
      <trkpt lat="44.52451" lon="6.48305">
        <ele>1087.4</ele>
        <time>2014-09-14T06:22:25Z</time>
      </trkpt>
      <trkpt lat="44.52438" lon="6.48341">
        <ele>1089.8</ele>
        <time>2014-09-14T06:22:39Z</time>
      </trkpt>
      <trkpt lat="44.52442" lon="6.48353">
        <ele>1090.3</ele>
        <time>2014-09-14T06:22:43Z</time>
      </trkpt>
      <trkpt lat="44.52448" lon="6.48391">
        <ele>1092.7</ele>
        <time>2014-09-14T06:22:56Z</time>
      </trkpt>
      <trkpt lat="44.52465" lon="6.48425">
        <ele>1095.6</ele>
        <time>2014-09-14T06:23:10Z</time>
      </trkpt>
      <trkpt lat="44.52476" lon="6.48463">
        <ele>1098</ele>
        <time>2014-09-14T06:23:24Z</time>
      </trkpt>
      <trkpt lat="44.52479" lon="6.48497">
        <ele>1101.3</ele>
        <time>2014-09-14T06:23:37Z</time>
      </trkpt>
      <trkpt lat="44.52488" lon="6.48552">
        <ele>1104.2</ele>
        <time>2014-09-14T06:23:57Z</time>
      </trkpt>
      <trkpt lat="44.52501" lon="6.48606">
        <ele>1107.1</ele>
        <time>2014-09-14T06:24:14Z</time>
      </trkpt>
      <trkpt lat="44.52504" lon="6.4865">
        <ele>1110.5</ele>
        <time>2014-09-14T06:24:29Z</time>
      </trkpt>
      <trkpt lat="44.52496" lon="6.48686">
        <ele>1112.9</ele>
        <time>2014-09-14T06:24:43Z</time>
      </trkpt>
      <trkpt lat="44.52487" lon="6.48738">
        <ele>1113.3</ele>
        <time>2014-09-14T06:24:56Z</time>
      </trkpt>
      <trkpt lat="44.52489" lon="6.48774">
        <ele>1113.3</ele>
        <time>2014-09-14T06:25:03Z</time>
      </trkpt>
      <trkpt lat="44.52481" lon="6.48797">
        <ele>1114.3</ele>
        <time>2014-09-14T06:25:08Z</time>
      </trkpt>
      <trkpt lat="44.52472" lon="6.48839">
        <ele>1117.7</ele>
        <time>2014-09-14T06:25:22Z</time>
      </trkpt>
      <trkpt lat="44.52464" lon="6.4889">
        <ele>1119.6</ele>
        <time>2014-09-14T06:25:37Z</time>
      </trkpt>
      <trkpt lat="44.52447" lon="6.4896">
        <ele>1120.6</ele>
        <time>2014-09-14T06:25:54Z</time>
      </trkpt>
      <trkpt lat="44.52439" lon="6.48997">
        <ele>1123.4</ele>
        <time>2014-09-14T06:26:07Z</time>
      </trkpt>
      <trkpt lat="44.5243" lon="6.49038">
        <ele>1126.3</ele>
        <time>2014-09-14T06:26:23Z</time>
      </trkpt>
      <trkpt lat="44.52433" lon="6.49071">
        <ele>1128.7</ele>
        <time>2014-09-14T06:26:36Z</time>
      </trkpt>
      <trkpt lat="44.5245" lon="6.49113">
        <ele>1132.1</ele>
        <time>2014-09-14T06:26:54Z</time>
      </trkpt>
      <trkpt lat="44.52452" lon="6.4913">
        <ele>1133.1</ele>
        <time>2014-09-14T06:27:01Z</time>
      </trkpt>
      <trkpt lat="44.52451" lon="6.49134">
        <ele>1133.5</ele>
        <time>2014-09-14T06:27:03Z</time>
      </trkpt>
      <trkpt lat="44.52447" lon="6.49155">
        <ele>1135</ele>
        <time>2014-09-14T06:27:12Z</time>
      </trkpt>
      <trkpt lat="44.52441" lon="6.49178">
        <ele>1136.9</ele>
        <time>2014-09-14T06:27:22Z</time>
      </trkpt>
      <trkpt lat="44.52431" lon="6.49205">
        <ele>1140.7</ele>
        <time>2014-09-14T06:27:37Z</time>
      </trkpt>
      <trkpt lat="44.52424" lon="6.49238">
        <ele>1143.6</ele>
        <time>2014-09-14T06:27:53Z</time>
      </trkpt>
      <trkpt lat="44.52415" lon="6.49273">
        <ele>1145.6</ele>
        <time>2014-09-14T06:28:10Z</time>
      </trkpt>
      <trkpt lat="44.52399" lon="6.49302">
        <ele>1148</ele>
        <time>2014-09-14T06:28:25Z</time>
      </trkpt>
      <trkpt lat="44.52385" lon="6.49333">
        <ele>1149.4</ele>
        <time>2014-09-14T06:28:38Z</time>
      </trkpt>
      <trkpt lat="44.5238" lon="6.49366">
        <ele>1151.8</ele>
        <time>2014-09-14T06:28:49Z</time>
      </trkpt>
      <trkpt lat="44.52389" lon="6.49395">
        <ele>1153.2</ele>
        <time>2014-09-14T06:28:59Z</time>
      </trkpt>
      <trkpt lat="44.52396" lon="6.49442">
        <ele>1156.1</ele>
        <time>2014-09-14T06:29:15Z</time>
      </trkpt>
      <trkpt lat="44.52378" lon="6.4948">
        <ele>1159.5</ele>
        <time>2014-09-14T06:29:30Z</time>
      </trkpt>
      <trkpt lat="44.52358" lon="6.495">
        <ele>1161.9</ele>
        <time>2014-09-14T06:29:44Z</time>
      </trkpt>
      <trkpt lat="44.52351" lon="6.49535">
        <ele>1164.3</ele>
        <time>2014-09-14T06:29:58Z</time>
      </trkpt>
      <trkpt lat="44.52331" lon="6.4957">
        <ele>1166.7</ele>
        <time>2014-09-14T06:30:14Z</time>
      </trkpt>
      <trkpt lat="44.52306" lon="6.49595">
        <ele>1169.1</ele>
        <time>2014-09-14T06:30:29Z</time>
      </trkpt>
      <trkpt lat="44.52288" lon="6.4962">
        <ele>1171.5</ele>
        <time>2014-09-14T06:30:45Z</time>
      </trkpt>
      <trkpt lat="44.52278" lon="6.49613">
        <ele>1173.4</ele>
        <time>2014-09-14T06:30:54Z</time>
      </trkpt>
      <trkpt lat="44.52288" lon="6.49572">
        <ele>1176.3</ele>
        <time>2014-09-14T06:31:11Z</time>
      </trkpt>
      <trkpt lat="44.52302" lon="6.49531">
        <ele>1179.2</ele>
        <time>2014-09-14T06:31:27Z</time>
      </trkpt>
      <trkpt lat="44.52301" lon="6.49491">
        <ele>1181.6</ele>
        <time>2014-09-14T06:31:41Z</time>
      </trkpt>
      <trkpt lat="44.52298" lon="6.49484">
        <ele>1182.1</ele>
        <time>2014-09-14T06:31:44Z</time>
      </trkpt>
      <trkpt lat="44.52298" lon="6.49435">
        <ele>1185.4</ele>
        <time>2014-09-14T06:32:01Z</time>
      </trkpt>
      <trkpt lat="44.52289" lon="6.49371">
        <ele>1187.4</ele>
        <time>2014-09-14T06:32:21Z</time>
      </trkpt>
      <trkpt lat="44.52284" lon="6.4932">
        <ele>1188.3</ele>
        <time>2014-09-14T06:32:35Z</time>
      </trkpt>
      <trkpt lat="44.52276" lon="6.49263">
        <ele>1190.3</ele>
        <time>2014-09-14T06:32:50Z</time>
      </trkpt>
      <trkpt lat="44.5227" lon="6.492">
        <ele>1191.7</ele>
        <time>2014-09-14T06:33:05Z</time>
      </trkpt>
      <trkpt lat="44.52255" lon="6.49155">
        <ele>1193.6</ele>
        <time>2014-09-14T06:33:19Z</time>
      </trkpt>
      <trkpt lat="44.52239" lon="6.49128">
        <ele>1196</ele>
        <time>2014-09-14T06:33:31Z</time>
      </trkpt>
      <trkpt lat="44.52226" lon="6.49089">
        <ele>1197.9</ele>
        <time>2014-09-14T06:33:45Z</time>
      </trkpt>
      <trkpt lat="44.52218" lon="6.49095">
        <ele>1199.9</ele>
        <time>2014-09-14T06:33:53Z</time>
      </trkpt>
      <trkpt lat="44.5222" lon="6.49139">
        <ele>1203.2</ele>
        <time>2014-09-14T06:34:12Z</time>
      </trkpt>
      <trkpt lat="44.52219" lon="6.49175">
        <ele>1204.7</ele>
        <time>2014-09-14T06:34:26Z</time>
      </trkpt>
      <trkpt lat="44.52209" lon="6.49216">
        <ele>1207.1</ele>
        <time>2014-09-14T06:34:42Z</time>
      </trkpt>
      <trkpt lat="44.52191" lon="6.49251">
        <ele>1210.4</ele>
        <time>2014-09-14T06:34:59Z</time>
      </trkpt>
      <trkpt lat="44.52172" lon="6.49286">
        <ele>1212.8</ele>
        <time>2014-09-14T06:35:16Z</time>
      </trkpt>
      <trkpt lat="44.52158" lon="6.49325">
        <ele>1215.2</ele>
        <time>2014-09-14T06:35:33Z</time>
      </trkpt>
      <trkpt lat="44.52151" lon="6.49344">
        <ele>1217.7</ele>
        <time>2014-09-14T06:35:43Z</time>
      </trkpt>
      <trkpt lat="44.52146" lon="6.49353">
        <ele>1218.6</ele>
        <time>2014-09-14T06:35:48Z</time>
      </trkpt>
      <trkpt lat="44.52132" lon="6.49374">
        <ele>1222</ele>
        <time>2014-09-14T06:36:02Z</time>
      </trkpt>
      <trkpt lat="44.5212" lon="6.49391">
        <ele>1223.9</ele>
        <time>2014-09-14T06:36:14Z</time>
      </trkpt>
      <trkpt lat="44.52107" lon="6.49427">
        <ele>1227.3</ele>
        <time>2014-09-14T06:36:32Z</time>
      </trkpt>
      <trkpt lat="44.52092" lon="6.49426">
        <ele>1228.7</ele>
        <time>2014-09-14T06:36:43Z</time>
      </trkpt>
      <trkpt lat="44.52091" lon="6.49391">
        <ele>1231.1</ele>
        <time>2014-09-14T06:36:58Z</time>
      </trkpt>
      <trkpt lat="44.52091" lon="6.49346">
        <ele>1233.5</ele>
        <time>2014-09-14T06:37:14Z</time>
      </trkpt>
      <trkpt lat="44.52087" lon="6.49311">
        <ele>1235.4</ele>
        <time>2014-09-14T06:37:27Z</time>
      </trkpt>
      <trkpt lat="44.52083" lon="6.49275">
        <ele>1237.8</ele>
        <time>2014-09-14T06:37:41Z</time>
      </trkpt>
      <trkpt lat="44.52074" lon="6.49233">
        <ele>1239.8</ele>
        <time>2014-09-14T06:37:56Z</time>
      </trkpt>
      <trkpt lat="44.52069" lon="6.49191">
        <ele>1242.6</ele>
        <time>2014-09-14T06:38:10Z</time>
      </trkpt>
      <trkpt lat="44.52052" lon="6.4916">
        <ele>1244.6</ele>
        <time>2014-09-14T06:38:24Z</time>
      </trkpt>
      <trkpt lat="44.52033" lon="6.49129">
        <ele>1247.5</ele>
        <time>2014-09-14T06:38:37Z</time>
      </trkpt>
      <trkpt lat="44.52014" lon="6.49088">
        <ele>1249.9</ele>
        <time>2014-09-14T06:38:54Z</time>
      </trkpt>
      <trkpt lat="44.51996" lon="6.49056">
        <ele>1252.3</ele>
        <time>2014-09-14T06:39:11Z</time>
      </trkpt>
      <trkpt lat="44.51976" lon="6.49024">
        <ele>1253.7</ele>
        <time>2014-09-14T06:39:27Z</time>
      </trkpt>
      <trkpt lat="44.51963" lon="6.48998">
        <ele>1256.6</ele>
        <time>2014-09-14T06:39:40Z</time>
      </trkpt>
      <trkpt lat="44.5195" lon="6.48967">
        <ele>1259.5</ele>
        <time>2014-09-14T06:39:54Z</time>
      </trkpt>
      <trkpt lat="44.51944" lon="6.48933">
        <ele>1261.9</ele>
        <time>2014-09-14T06:40:07Z</time>
      </trkpt>
      <trkpt lat="44.51941" lon="6.48894">
        <ele>1264.3</ele>
        <time>2014-09-14T06:40:22Z</time>
      </trkpt>
      <trkpt lat="44.51942" lon="6.48855">
        <ele>1267.2</ele>
        <time>2014-09-14T06:40:37Z</time>
      </trkpt>
      <trkpt lat="44.51938" lon="6.4882">
        <ele>1270</ele>
        <time>2014-09-14T06:40:52Z</time>
      </trkpt>
      <trkpt lat="44.5193" lon="6.48808">
        <ele>1271.5</ele>
        <time>2014-09-14T06:40:59Z</time>
      </trkpt>
      <trkpt lat="44.51924" lon="6.48812">
        <ele>1272.9</ele>
        <time>2014-09-14T06:41:04Z</time>
      </trkpt>
      <trkpt lat="44.5192" lon="6.4884">
        <ele>1275.3</ele>
        <time>2014-09-14T06:41:18Z</time>
      </trkpt>
      <trkpt lat="44.51917" lon="6.48873">
        <ele>1276.3</ele>
        <time>2014-09-14T06:41:33Z</time>
      </trkpt>
      <trkpt lat="44.5191" lon="6.489">
        <ele>1278.7</ele>
        <time>2014-09-14T06:41:46Z</time>
      </trkpt>
      <trkpt lat="44.51906" lon="6.48921">
        <ele>1280.1</ele>
        <time>2014-09-14T06:41:56Z</time>
      </trkpt>
      <trkpt lat="44.51904" lon="6.48947">
        <ele>1282.1</ele>
        <time>2014-09-14T06:42:08Z</time>
      </trkpt>
      <trkpt lat="44.51904" lon="6.48957">
        <ele>1283</ele>
        <time>2014-09-14T06:42:13Z</time>
      </trkpt>
      <trkpt lat="44.51898" lon="6.48995">
        <ele>1286.4</ele>
        <time>2014-09-14T06:42:30Z</time>
      </trkpt>
      <trkpt lat="44.51897" lon="6.49008">
        <ele>1287.3</ele>
        <time>2014-09-14T06:42:36Z</time>
      </trkpt>
      <trkpt lat="44.5189" lon="6.49022">
        <ele>1288.3</ele>
        <time>2014-09-14T06:42:43Z</time>
      </trkpt>
      <trkpt lat="44.51883" lon="6.49035">
        <ele>1288.8</ele>
        <time>2014-09-14T06:42:49Z</time>
      </trkpt>
      <trkpt lat="44.51889" lon="6.49075">
        <ele>1290.7</ele>
        <time>2014-09-14T06:43:04Z</time>
      </trkpt>
      <trkpt lat="44.51886" lon="6.49119">
        <ele>1292.6</ele>
        <time>2014-09-14T06:43:18Z</time>
      </trkpt>
      <trkpt lat="44.51885" lon="6.49157">
        <ele>1294.1</ele>
        <time>2014-09-14T06:43:30Z</time>
      </trkpt>
      <trkpt lat="44.51878" lon="6.49177">
        <ele>1296.5</ele>
        <time>2014-09-14T06:43:39Z</time>
      </trkpt>
      <trkpt lat="44.51864" lon="6.49167">
        <ele>1297.9</ele>
        <time>2014-09-14T06:43:50Z</time>
      </trkpt>
      <trkpt lat="44.51856" lon="6.49128">
        <ele>1300.3</ele>
        <time>2014-09-14T06:44:06Z</time>
      </trkpt>
      <trkpt lat="44.51856" lon="6.49104">
        <ele>1301.3</ele>
        <time>2014-09-14T06:44:16Z</time>
      </trkpt>
      <trkpt lat="44.51845" lon="6.4908">
        <ele>1304.7</ele>
        <time>2014-09-14T06:44:31Z</time>
      </trkpt>
      <trkpt lat="44.51844" lon="6.49078">
        <ele>1305.1</ele>
        <time>2014-09-14T06:44:32Z</time>
      </trkpt>
      <trkpt lat="44.5184" lon="6.49042">
        <ele>1308</ele>
        <time>2014-09-14T06:44:49Z</time>
      </trkpt>
      <trkpt lat="44.51838" lon="6.49018">
        <ele>1309.5</ele>
        <time>2014-09-14T06:45:01Z</time>
      </trkpt>
      <trkpt lat="44.51835" lon="6.48995">
        <ele>1311.4</ele>
        <time>2014-09-14T06:45:12Z</time>
      </trkpt>
      <trkpt lat="44.51826" lon="6.48958">
        <ele>1314.3</ele>
        <time>2014-09-14T06:45:28Z</time>
      </trkpt>
      <trkpt lat="44.51812" lon="6.4893">
        <ele>1317.1</ele>
        <time>2014-09-14T06:45:42Z</time>
      </trkpt>
      <trkpt lat="44.51803" lon="6.48916">
        <ele>1318.6</ele>
        <time>2014-09-14T06:45:51Z</time>
      </trkpt>
      <trkpt lat="44.51798" lon="6.48922">
        <ele>1319.6</ele>
        <time>2014-09-14T06:45:56Z</time>
      </trkpt>
      <trkpt lat="44.51803" lon="6.48952">
        <ele>1322</ele>
        <time>2014-09-14T06:46:10Z</time>
      </trkpt>
      <trkpt lat="44.51804" lon="6.48984">
        <ele>1324.4</ele>
        <time>2014-09-14T06:46:24Z</time>
      </trkpt>
      <trkpt lat="44.51803" lon="6.48999">
        <ele>1326.3</ele>
        <time>2014-09-14T06:46:31Z</time>
      </trkpt>
      <trkpt lat="44.51801" lon="6.49003">
        <ele>1326.8</ele>
        <time>2014-09-14T06:46:33Z</time>
      </trkpt>
      <trkpt lat="44.51792" lon="6.49016">
        <ele>1328.2</ele>
        <time>2014-09-14T06:46:44Z</time>
      </trkpt>
      <trkpt lat="44.51787" lon="6.49017">
        <ele>1329.6</ele>
        <time>2014-09-14T06:46:48Z</time>
      </trkpt>
      <trkpt lat="44.51772" lon="6.49033">
        <ele>1331.6</ele>
        <time>2014-09-14T06:47:00Z</time>
      </trkpt>
      <trkpt lat="44.51757" lon="6.49046">
        <ele>1334</ele>
        <time>2014-09-14T06:47:14Z</time>
      </trkpt>
      <trkpt lat="44.51754" lon="6.49019">
        <ele>1336.4</ele>
        <time>2014-09-14T06:47:28Z</time>
      </trkpt>
      <trkpt lat="44.51756" lon="6.48987">
        <ele>1338.8</ele>
        <time>2014-09-14T06:47:43Z</time>
      </trkpt>
      <trkpt lat="44.51756" lon="6.48983">
        <ele>1339.3</ele>
        <time>2014-09-14T06:47:45Z</time>
      </trkpt>
      <trkpt lat="44.51733" lon="6.48961">
        <ele>1341.2</ele>
        <time>2014-09-14T06:48:00Z</time>
      </trkpt>
      <trkpt lat="44.51732" lon="6.4896">
        <ele>1341.7</ele>
        <time>2014-09-14T06:48:01Z</time>
      </trkpt>
      <trkpt lat="44.5172" lon="6.48935">
        <ele>1344.1</ele>
        <time>2014-09-14T06:48:15Z</time>
      </trkpt>
      <trkpt lat="44.51718" lon="6.48923">
        <ele>1345</ele>
        <time>2014-09-14T06:48:20Z</time>
      </trkpt>
      <trkpt lat="44.517" lon="6.48904">
        <ele>1346.5</ele>
        <time>2014-09-14T06:48:31Z</time>
      </trkpt>
      <trkpt lat="44.51681" lon="6.48886">
        <ele>1348.9</ele>
        <time>2014-09-14T06:48:45Z</time>
      </trkpt>
      <trkpt lat="44.51659" lon="6.48861">
        <ele>1352.2</ele>
        <time>2014-09-14T06:49:03Z</time>
      </trkpt>
      <trkpt lat="44.51647" lon="6.48839">
        <ele>1355.1</ele>
        <time>2014-09-14T06:49:16Z</time>
      </trkpt>
      <trkpt lat="44.51638" lon="6.48826">
        <ele>1357</ele>
        <time>2014-09-14T06:49:25Z</time>
      </trkpt>
      <trkpt lat="44.51632" lon="6.48821">
        <ele>1357.5</ele>
        <time>2014-09-14T06:49:30Z</time>
      </trkpt>
      <trkpt lat="44.51621" lon="6.48804">
        <ele>1359.4</ele>
        <time>2014-09-14T06:49:42Z</time>
      </trkpt>
      <trkpt lat="44.51614" lon="6.48804">
        <ele>1361.4</ele>
        <time>2014-09-14T06:49:49Z</time>
      </trkpt>
      <trkpt lat="44.51617" lon="6.48825">
        <ele>1364.3</ele>
        <time>2014-09-14T06:50:01Z</time>
      </trkpt>
      <trkpt lat="44.5162" lon="6.48836">
        <ele>1365.2</ele>
        <time>2014-09-14T06:50:06Z</time>
      </trkpt>
      <trkpt lat="44.5162" lon="6.48847">
        <ele>1365.7</ele>
        <time>2014-09-14T06:50:11Z</time>
      </trkpt>
      <trkpt lat="44.51626" lon="6.48888">
        <ele>1369.1</ele>
        <time>2014-09-14T06:50:29Z</time>
      </trkpt>
      <trkpt lat="44.51626" lon="6.4889">
        <ele>1369.1</ele>
        <time>2014-09-14T06:50:30Z</time>
      </trkpt>
      <trkpt lat="44.51625" lon="6.48906">
        <ele>1370.5</ele>
        <time>2014-09-14T06:50:37Z</time>
      </trkpt>
      <trkpt lat="44.51625" lon="6.48946">
        <ele>1372.9</ele>
        <time>2014-09-14T06:50:54Z</time>
      </trkpt>
      <trkpt lat="44.51627" lon="6.48954">
        <ele>1373.9</ele>
        <time>2014-09-14T06:50:58Z</time>
      </trkpt>
      <trkpt lat="44.51626" lon="6.48964">
        <ele>1374.8</ele>
        <time>2014-09-14T06:51:03Z</time>
      </trkpt>
      <trkpt lat="44.51621" lon="6.4897">
        <ele>1376.3</ele>
        <time>2014-09-14T06:51:09Z</time>
      </trkpt>
      <trkpt lat="44.51611" lon="6.48944">
        <ele>1377.7</ele>
        <time>2014-09-14T06:51:23Z</time>
      </trkpt>
      <trkpt lat="44.51601" lon="6.48919">
        <ele>1380.1</ele>
        <time>2014-09-14T06:51:35Z</time>
      </trkpt>
      <trkpt lat="44.51598" lon="6.48913">
        <ele>1381.1</ele>
        <time>2014-09-14T06:51:39Z</time>
      </trkpt>
      <trkpt lat="44.5158" lon="6.4888">
        <ele>1383.5</ele>
        <time>2014-09-14T06:51:56Z</time>
      </trkpt>
      <trkpt lat="44.51572" lon="6.48868">
        <ele>1384</ele>
        <time>2014-09-14T06:52:02Z</time>
      </trkpt>
      <trkpt lat="44.51565" lon="6.48869">
        <ele>1385.4</ele>
        <time>2014-09-14T06:52:09Z</time>
      </trkpt>
      <trkpt lat="44.51575" lon="6.48898">
        <ele>1387.8</ele>
        <time>2014-09-14T06:52:24Z</time>
      </trkpt>
      <trkpt lat="44.51586" lon="6.48934">
        <ele>1388.3</ele>
        <time>2014-09-14T06:52:36Z</time>
      </trkpt>
      <trkpt lat="44.51589" lon="6.48972">
        <ele>1390.2</ele>
        <time>2014-09-14T06:52:48Z</time>
      </trkpt>
      <trkpt lat="44.51587" lon="6.48993">
        <ele>1394.1</ele>
        <time>2014-09-14T06:53:01Z</time>
      </trkpt>
      <trkpt lat="44.51587" lon="6.48997">
        <ele>1394.1</ele>
        <time>2014-09-14T06:53:03Z</time>
      </trkpt>
      <trkpt lat="44.51596" lon="6.49021">
        <ele>1396</ele>
        <time>2014-09-14T06:53:15Z</time>
      </trkpt>
      <trkpt lat="44.51606" lon="6.49044">
        <ele>1397.9</ele>
        <time>2014-09-14T06:53:28Z</time>
      </trkpt>
      <trkpt lat="44.51608" lon="6.4905">
        <ele>1398.4</ele>
        <time>2014-09-14T06:53:31Z</time>
      </trkpt>
      <trkpt lat="44.51595" lon="6.49076">
        <ele>1400.3</ele>
        <time>2014-09-14T06:53:45Z</time>
      </trkpt>
      <trkpt lat="44.51594" lon="6.49107">
        <ele>1402.7</ele>
        <time>2014-09-14T06:53:59Z</time>
      </trkpt>
      <trkpt lat="44.51594" lon="6.49139">
        <ele>1404.1</ele>
        <time>2014-09-14T06:54:12Z</time>
      </trkpt>
      <trkpt lat="44.5158" lon="6.49172">
        <ele>1406.1</ele>
        <time>2014-09-14T06:54:27Z</time>
      </trkpt>
      <trkpt lat="44.51558" lon="6.49201">
        <ele>1409.4</ele>
        <time>2014-09-14T06:54:43Z</time>
      </trkpt>
      <trkpt lat="44.51553" lon="6.49209">
        <ele>1410.4</ele>
        <time>2014-09-14T06:54:47Z</time>
      </trkpt>
      <trkpt lat="44.51551" lon="6.49218">
        <ele>1411.4</ele>
        <time>2014-09-14T06:54:51Z</time>
      </trkpt>
      <trkpt lat="44.51555" lon="6.49246">
        <ele>1412.8</ele>
        <time>2014-09-14T06:55:01Z</time>
      </trkpt>
      <trkpt lat="44.51552" lon="6.49286">
        <ele>1414.2</ele>
        <time>2014-09-14T06:55:16Z</time>
      </trkpt>
      <trkpt lat="44.51546" lon="6.49326">
        <ele>1417.1</ele>
        <time>2014-09-14T06:55:31Z</time>
      </trkpt>
      <trkpt lat="44.5153" lon="6.49371">
        <ele>1419.5</ele>
        <time>2014-09-14T06:55:49Z</time>
      </trkpt>
      <trkpt lat="44.51519" lon="6.49381">
        <ele>1420.5</ele>
        <time>2014-09-14T06:55:56Z</time>
      </trkpt>
      <trkpt lat="44.51515" lon="6.49368">
        <ele>1421.9</ele>
        <time>2014-09-14T06:56:03Z</time>
      </trkpt>
      <trkpt lat="44.51531" lon="6.49319">
        <ele>1423.4</ele>
        <time>2014-09-14T06:56:18Z</time>
      </trkpt>
      <trkpt lat="44.51523" lon="6.49279">
        <ele>1425.8</ele>
        <time>2014-09-14T06:56:33Z</time>
      </trkpt>
      <trkpt lat="44.51521" lon="6.49265">
        <ele>1428.2</ele>
        <time>2014-09-14T06:56:40Z</time>
      </trkpt>
      <trkpt lat="44.51519" lon="6.49261">
        <ele>1428.2</ele>
        <time>2014-09-14T06:56:54Z</time>
      </trkpt>
      <trkpt lat="44.51519" lon="6.49261">
        <ele>1428.2</ele>
        <time>2014-09-14T06:57:13Z</time>
      </trkpt>
      <trkpt lat="44.51522" lon="6.4926">
        <ele>1428.2</ele>
        <time>2014-09-14T06:57:21Z</time>
      </trkpt>
      <trkpt lat="44.5152" lon="6.49242">
        <ele>1430.1</ele>
        <time>2014-09-14T06:57:33Z</time>
      </trkpt>
      <trkpt lat="44.51516" lon="6.4921">
        <ele>1432</ele>
        <time>2014-09-14T06:57:48Z</time>
      </trkpt>
      <trkpt lat="44.51511" lon="6.4918">
        <ele>1434.4</ele>
        <time>2014-09-14T06:58:01Z</time>
      </trkpt>
      <trkpt lat="44.51514" lon="6.49154">
        <ele>1436.8</ele>
        <time>2014-09-14T06:58:14Z</time>
      </trkpt>
      <trkpt lat="44.51516" lon="6.49147">
        <ele>1437.8</ele>
        <time>2014-09-14T06:58:18Z</time>
      </trkpt>
      <trkpt lat="44.51519" lon="6.49135">
        <ele>1438.8</ele>
        <time>2014-09-14T06:58:24Z</time>
      </trkpt>
      <trkpt lat="44.5152" lon="6.49127">
        <ele>1440.2</ele>
        <time>2014-09-14T06:58:28Z</time>
      </trkpt>
      <trkpt lat="44.5152" lon="6.49118">
        <ele>1440.7</ele>
        <time>2014-09-14T06:58:32Z</time>
      </trkpt>
      <trkpt lat="44.51511" lon="6.49094">
        <ele>1443.1</ele>
        <time>2014-09-14T06:58:45Z</time>
      </trkpt>
      <trkpt lat="44.51504" lon="6.49072">
        <ele>1445</ele>
        <time>2014-09-14T06:58:57Z</time>
      </trkpt>
      <trkpt lat="44.51503" lon="6.4907">
        <ele>1445</ele>
        <time>2014-09-14T06:58:58Z</time>
      </trkpt>
      <trkpt lat="44.515" lon="6.49059">
        <ele>1446.4</ele>
        <time>2014-09-14T06:59:04Z</time>
      </trkpt>
      <trkpt lat="44.51489" lon="6.4903">
        <ele>1449.8</ele>
        <time>2014-09-14T06:59:21Z</time>
      </trkpt>
      <trkpt lat="44.51486" lon="6.49025">
        <ele>1450.3</ele>
        <time>2014-09-14T06:59:24Z</time>
      </trkpt>
      <trkpt lat="44.51482" lon="6.49019">
        <ele>1451.3</ele>
        <time>2014-09-14T06:59:28Z</time>
      </trkpt>
      <trkpt lat="44.51479" lon="6.49014">
        <ele>1452.2</ele>
        <time>2014-09-14T06:59:31Z</time>
      </trkpt>
      <trkpt lat="44.51463" lon="6.48995">
        <ele>1454.6</ele>
        <time>2014-09-14T06:59:45Z</time>
      </trkpt>
      <trkpt lat="44.5144" lon="6.48978">
        <ele>1456.5</ele>
        <time>2014-09-14T07:00:01Z</time>
      </trkpt>
      <trkpt lat="44.51428" lon="6.48969">
        <ele>1458</ele>
        <time>2014-09-14T07:00:09Z</time>
      </trkpt>
      <trkpt lat="44.51401" lon="6.48949">
        <ele>1461.3</ele>
        <time>2014-09-14T07:00:27Z</time>
      </trkpt>
      <trkpt lat="44.51378" lon="6.48932">
        <ele>1463.3</ele>
        <time>2014-09-14T07:00:42Z</time>
      </trkpt>
      <trkpt lat="44.51355" lon="6.48911">
        <ele>1464.7</ele>
        <time>2014-09-14T07:00:57Z</time>
      </trkpt>
      <trkpt lat="44.5135" lon="6.4889">
        <ele>1466.6</ele>
        <time>2014-09-14T07:01:06Z</time>
      </trkpt>
      <trkpt lat="44.51344" lon="6.48867">
        <ele>1468.1</ele>
        <time>2014-09-14T07:01:16Z</time>
      </trkpt>
      <trkpt lat="44.51323" lon="6.48857">
        <ele>1470.5</ele>
        <time>2014-09-14T07:01:31Z</time>
      </trkpt>
      <trkpt lat="44.51315" lon="6.48875">
        <ele>1473.8</ele>
        <time>2014-09-14T07:01:44Z</time>
      </trkpt>
      <trkpt lat="44.51315" lon="6.48885">
        <ele>1474.8</ele>
        <time>2014-09-14T07:01:49Z</time>
      </trkpt>
      <trkpt lat="44.51314" lon="6.48898">
        <ele>1475.8</ele>
        <time>2014-09-14T07:01:55Z</time>
      </trkpt>
      <trkpt lat="44.51317" lon="6.48919">
        <ele>1477.7</ele>
        <time>2014-09-14T07:02:05Z</time>
      </trkpt>
      <trkpt lat="44.51325" lon="6.48937">
        <ele>1479.1</ele>
        <time>2014-09-14T07:02:14Z</time>
      </trkpt>
      <trkpt lat="44.51347" lon="6.4897">
        <ele>1481.5</ele>
        <time>2014-09-14T07:02:32Z</time>
      </trkpt>
      <trkpt lat="44.51372" lon="6.48991">
        <ele>1484.9</ele>
        <time>2014-09-14T07:02:49Z</time>
      </trkpt>
      <trkpt lat="44.51386" lon="6.49017">
        <ele>1486.3</ele>
        <time>2014-09-14T07:03:02Z</time>
      </trkpt>
      <trkpt lat="44.51407" lon="6.49057">
        <ele>1488.3</ele>
        <time>2014-09-14T07:03:17Z</time>
      </trkpt>
      <trkpt lat="44.51415" lon="6.49105">
        <ele>1489.7</ele>
        <time>2014-09-14T07:03:32Z</time>
      </trkpt>
      <trkpt lat="44.51412" lon="6.49107">
        <ele>1490.2</ele>
        <time>2014-09-14T07:03:35Z</time>
      </trkpt>
      <trkpt lat="44.51402" lon="6.49101">
        <ele>1492.6</ele>
        <time>2014-09-14T07:03:44Z</time>
      </trkpt>
      <trkpt lat="44.51394" lon="6.49091">
        <ele>1494.5</ele>
        <time>2014-09-14T07:03:51Z</time>
      </trkpt>
      <trkpt lat="44.51365" lon="6.4907">
        <ele>1496.9</ele>
        <time>2014-09-14T07:04:08Z</time>
      </trkpt>
      <trkpt lat="44.51341" lon="6.49057">
        <ele>1499.3</ele>
        <time>2014-09-14T07:04:22Z</time>
      </trkpt>
      <trkpt lat="44.51321" lon="6.4905">
        <ele>1500.3</ele>
        <time>2014-09-14T07:04:33Z</time>
      </trkpt>
      <trkpt lat="44.51303" lon="6.4904">
        <ele>1502.7</ele>
        <time>2014-09-14T07:04:45Z</time>
      </trkpt>
      <trkpt lat="44.51297" lon="6.49042">
        <ele>1503.6</ele>
        <time>2014-09-14T07:04:49Z</time>
      </trkpt>
      <trkpt lat="44.51287" lon="6.49052">
        <ele>1504.6</ele>
        <time>2014-09-14T07:04:56Z</time>
      </trkpt>
      <trkpt lat="44.5129" lon="6.49091">
        <ele>1507.5</ele>
        <time>2014-09-14T07:05:12Z</time>
      </trkpt>
      <trkpt lat="44.51298" lon="6.49116">
        <ele>1509.4</ele>
        <time>2014-09-14T07:05:23Z</time>
      </trkpt>
      <trkpt lat="44.513" lon="6.49158">
        <ele>1512.3</ele>
        <time>2014-09-14T07:05:41Z</time>
      </trkpt>
      <trkpt lat="44.51288" lon="6.49173">
        <ele>1514.2</ele>
        <time>2014-09-14T07:05:52Z</time>
      </trkpt>
      <trkpt lat="44.5126" lon="6.4916">
        <ele>1516.1</ele>
        <time>2014-09-14T07:06:07Z</time>
      </trkpt>
      <trkpt lat="44.51232" lon="6.49143">
        <ele>1518.5</ele>
        <time>2014-09-14T07:06:23Z</time>
      </trkpt>
      <trkpt lat="44.51218" lon="6.4912">
        <ele>1520.9</ele>
        <time>2014-09-14T07:06:37Z</time>
      </trkpt>
      <trkpt lat="44.51218" lon="6.49097">
        <ele>1524.3</ele>
        <time>2014-09-14T07:06:49Z</time>
      </trkpt>
      <trkpt lat="44.51221" lon="6.49061">
        <ele>1526.7</ele>
        <time>2014-09-14T07:07:05Z</time>
      </trkpt>
      <trkpt lat="44.51219" lon="6.49045">
        <ele>1527.7</ele>
        <time>2014-09-14T07:07:11Z</time>
      </trkpt>
      <trkpt lat="44.51217" lon="6.49042">
        <ele>1527.7</ele>
        <time>2014-09-14T07:07:13Z</time>
      </trkpt>
      <trkpt lat="44.51212" lon="6.49045">
        <ele>1528.6</ele>
        <time>2014-09-14T07:07:18Z</time>
      </trkpt>
      <trkpt lat="44.51202" lon="6.49077">
        <ele>1530.1</ele>
        <time>2014-09-14T07:07:31Z</time>
      </trkpt>
      <trkpt lat="44.51182" lon="6.49128">
        <ele>1531</ele>
        <time>2014-09-14T07:07:45Z</time>
      </trkpt>
      <trkpt lat="44.5118" lon="6.49186">
        <ele>1531</ele>
        <time>2014-09-14T07:07:57Z</time>
      </trkpt>
      <trkpt lat="44.51202" lon="6.49229">
        <ele>1533.9</ele>
        <time>2014-09-14T07:08:10Z</time>
      </trkpt>
      <trkpt lat="44.51215" lon="6.49264">
        <ele>1535.8</ele>
        <time>2014-09-14T07:08:22Z</time>
      </trkpt>
      <trkpt lat="44.51223" lon="6.4932">
        <ele>1537.8</ele>
        <time>2014-09-14T07:08:39Z</time>
      </trkpt>
      <trkpt lat="44.5122" lon="6.4937">
        <ele>1538.7</ele>
        <time>2014-09-14T07:08:52Z</time>
      </trkpt>
      <trkpt lat="44.51241" lon="6.49403">
        <ele>1541.6</ele>
        <time>2014-09-14T07:09:05Z</time>
      </trkpt>
      <trkpt lat="44.51259" lon="6.49443">
        <ele>1543.5</ele>
        <time>2014-09-14T07:09:19Z</time>
      </trkpt>
      <trkpt lat="44.51265" lon="6.49475">
        <ele>1545.5</ele>
        <time>2014-09-14T07:09:32Z</time>
      </trkpt>
      <trkpt lat="44.51263" lon="6.49511">
        <ele>1547.9</ele>
        <time>2014-09-14T07:09:46Z</time>
      </trkpt>
      <trkpt lat="44.51263" lon="6.49532">
        <ele>1549.8</ele>
        <time>2014-09-14T07:09:54Z</time>
      </trkpt>
      <trkpt lat="44.51262" lon="6.49542">
        <ele>1550.3</ele>
        <time>2014-09-14T07:09:58Z</time>
      </trkpt>
      <trkpt lat="44.51265" lon="6.49579">
        <ele>1553.6</ele>
        <time>2014-09-14T07:10:13Z</time>
      </trkpt>
      <trkpt lat="44.51267" lon="6.49606">
        <ele>1555.6</ele>
        <time>2014-09-14T07:10:25Z</time>
      </trkpt>
      <trkpt lat="44.51267" lon="6.49639">
        <ele>1558</ele>
        <time>2014-09-14T07:10:40Z</time>
      </trkpt>
      <trkpt lat="44.51268" lon="6.4968">
        <ele>1559.9</ele>
        <time>2014-09-14T07:10:55Z</time>
      </trkpt>
      <trkpt lat="44.51275" lon="6.4971">
        <ele>1560.8</ele>
        <time>2014-09-14T07:11:11Z</time>
      </trkpt>
      <trkpt lat="44.51275" lon="6.49709">
        <ele>1560.8</ele>
        <time>2014-09-14T07:11:12Z</time>
      </trkpt>
      <trkpt lat="44.51274" lon="6.49705">
        <ele>1560.8</ele>
        <time>2014-09-14T07:11:15Z</time>
      </trkpt>
      <trkpt lat="44.51265" lon="6.49704">
        <ele>1561.3</ele>
        <time>2014-09-14T07:11:21Z</time>
      </trkpt>
      <trkpt lat="44.51239" lon="6.49694">
        <ele>1564.2</ele>
        <time>2014-09-14T07:11:37Z</time>
      </trkpt>
      <trkpt lat="44.51231" lon="6.49691">
        <ele>1564.7</ele>
        <time>2014-09-14T07:11:42Z</time>
      </trkpt>
      <trkpt lat="44.51209" lon="6.49671">
        <ele>1567.6</ele>
        <time>2014-09-14T07:11:57Z</time>
      </trkpt>
      <trkpt lat="44.51187" lon="6.49678">
        <ele>1570</ele>
        <time>2014-09-14T07:12:11Z</time>
      </trkpt>
      <trkpt lat="44.51166" lon="6.49692">
        <ele>1572.4</ele>
        <time>2014-09-14T07:12:24Z</time>
      </trkpt>
      <trkpt lat="44.51148" lon="6.49696">
        <ele>1573.8</ele>
        <time>2014-09-14T07:12:36Z</time>
      </trkpt>
      <trkpt lat="44.51126" lon="6.49702">
        <ele>1576.7</ele>
        <time>2014-09-14T07:12:51Z</time>
      </trkpt>
      <trkpt lat="44.51118" lon="6.49706">
        <ele>1577.2</ele>
        <time>2014-09-14T07:13:13Z</time>
      </trkpt>
      <trkpt lat="44.51116" lon="6.49706">
        <ele>1577.2</ele>
        <time>2014-09-14T07:13:18Z</time>
      </trkpt>
      <trkpt lat="44.51109" lon="6.49707">
        <ele>1578.1</ele>
        <time>2014-09-14T07:13:24Z</time>
      </trkpt>
      <trkpt lat="44.51088" lon="6.49709">
        <ele>1580.1</ele>
        <time>2014-09-14T07:13:36Z</time>
      </trkpt>
      <trkpt lat="44.51064" lon="6.49718">
        <ele>1582.5</ele>
        <time>2014-09-14T07:13:50Z</time>
      </trkpt>
      <trkpt lat="44.51037" lon="6.49734">
        <ele>1584.4</ele>
        <time>2014-09-14T07:14:03Z</time>
      </trkpt>
      <trkpt lat="44.51019" lon="6.49773">
        <ele>1584.9</ele>
        <time>2014-09-14T07:14:16Z</time>
      </trkpt>
      <trkpt lat="44.51014" lon="6.49806">
        <ele>1583.4</ele>
        <time>2014-09-14T07:14:22Z</time>
      </trkpt>
      <trkpt lat="44.50996" lon="6.49857">
        <ele>1581</ele>
        <time>2014-09-14T07:14:30Z</time>
      </trkpt>
      <trkpt lat="44.5099" lon="6.49857">
        <ele>1580.5</ele>
        <time>2014-09-14T07:14:31Z</time>
      </trkpt>
      <trkpt lat="44.50977" lon="6.49854">
        <ele>1579.6</ele>
        <time>2014-09-14T07:14:33Z</time>
      </trkpt>
      <trkpt lat="44.50956" lon="6.49879">
        <ele>1577.7</ele>
        <time>2014-09-14T07:14:39Z</time>
      </trkpt>
      <trkpt lat="44.50934" lon="6.49917">
        <ele>1576.7</ele>
        <time>2014-09-14T07:14:47Z</time>
      </trkpt>
      <trkpt lat="44.50928" lon="6.49921">
        <ele>1576.7</ele>
        <time>2014-09-14T07:14:49Z</time>
      </trkpt>
      <trkpt lat="44.50911" lon="6.49941">
        <ele>1578.1</ele>
        <time>2014-09-14T07:14:57Z</time>
      </trkpt>
      <trkpt lat="44.50895" lon="6.49965">
        <ele>1581.5</ele>
        <time>2014-09-14T07:15:10Z</time>
      </trkpt>
      <trkpt lat="44.50892" lon="6.49994">
        <ele>1583.4</ele>
        <time>2014-09-14T07:15:23Z</time>
      </trkpt>
      <trkpt lat="44.50892" lon="6.50006">
        <ele>1584.4</ele>
        <time>2014-09-14T07:15:28Z</time>
      </trkpt>
      <trkpt lat="44.50885" lon="6.50036">
        <ele>1587.8</ele>
        <time>2014-09-14T07:15:42Z</time>
      </trkpt>
      <trkpt lat="44.50871" lon="6.50065">
        <ele>1590.2</ele>
        <time>2014-09-14T07:15:55Z</time>
      </trkpt>
      <trkpt lat="44.50852" lon="6.50079">
        <ele>1593</ele>
        <time>2014-09-14T07:16:11Z</time>
      </trkpt>
      <trkpt lat="44.50845" lon="6.5008">
        <ele>1594</ele>
        <time>2014-09-14T07:16:16Z</time>
      </trkpt>
      <trkpt lat="44.5084" lon="6.5008">
        <ele>1595</ele>
        <time>2014-09-14T07:16:20Z</time>
      </trkpt>
      <trkpt lat="44.50824" lon="6.50105">
        <ele>1597.4</ele>
        <time>2014-09-14T07:16:36Z</time>
      </trkpt>
      <trkpt lat="44.50814" lon="6.50127">
        <ele>1600.3</ele>
        <time>2014-09-14T07:16:50Z</time>
      </trkpt>
      <trkpt lat="44.50806" lon="6.50158">
        <ele>1602.7</ele>
        <time>2014-09-14T07:17:05Z</time>
      </trkpt>
      <trkpt lat="44.50806" lon="6.50201">
        <ele>1605.1</ele>
        <time>2014-09-14T07:17:21Z</time>
      </trkpt>
      <trkpt lat="44.50806" lon="6.50237">
        <ele>1606.5</ele>
        <time>2014-09-14T07:17:34Z</time>
      </trkpt>
      <trkpt lat="44.50791" lon="6.50277">
        <ele>1607.5</ele>
        <time>2014-09-14T07:17:47Z</time>
      </trkpt>
      <trkpt lat="44.5077" lon="6.50302">
        <ele>1608.4</ele>
        <time>2014-09-14T07:18:00Z</time>
      </trkpt>
      <trkpt lat="44.50733" lon="6.50322">
        <ele>1609.9</ele>
        <time>2014-09-14T07:18:14Z</time>
      </trkpt>
      <trkpt lat="44.50687" lon="6.5036">
        <ele>1610.4</ele>
        <time>2014-09-14T07:18:28Z</time>
      </trkpt>
      <trkpt lat="44.50669" lon="6.50404">
        <ele>1610.4</ele>
        <time>2014-09-14T07:18:36Z</time>
      </trkpt>
      <trkpt lat="44.50665" lon="6.50416">
        <ele>1610.4</ele>
        <time>2014-09-14T07:18:38Z</time>
      </trkpt>
      <trkpt lat="44.50665" lon="6.5045">
        <ele>1610.4</ele>
        <time>2014-09-14T07:18:43Z</time>
      </trkpt>
      <trkpt lat="44.50671" lon="6.50479">
        <ele>1610.4</ele>
        <time>2014-09-14T07:18:48Z</time>
      </trkpt>
      <trkpt lat="44.50667" lon="6.50508">
        <ele>1610.8</ele>
        <time>2014-09-14T07:18:53Z</time>
      </trkpt>
      <trkpt lat="44.50654" lon="6.50525">
        <ele>1610.8</ele>
        <time>2014-09-14T07:18:57Z</time>
      </trkpt>
      <trkpt lat="44.50642" lon="6.50543">
        <ele>1610.8</ele>
        <time>2014-09-14T07:19:01Z</time>
      </trkpt>
      <trkpt lat="44.50642" lon="6.50609">
        <ele>1611.3</ele>
        <time>2014-09-14T07:19:11Z</time>
      </trkpt>
      <trkpt lat="44.50641" lon="6.50627">
        <ele>1611.3</ele>
        <time>2014-09-14T07:19:14Z</time>
      </trkpt>
      <trkpt lat="44.50633" lon="6.50655">
        <ele>1611.8</ele>
        <time>2014-09-14T07:19:19Z</time>
      </trkpt>
      <trkpt lat="44.50608" lon="6.50695">
        <ele>1611.8</ele>
        <time>2014-09-14T07:19:28Z</time>
      </trkpt>
      <trkpt lat="44.50606" lon="6.50753">
        <ele>1611.8</ele>
        <time>2014-09-14T07:19:37Z</time>
      </trkpt>
      <trkpt lat="44.50612" lon="6.50799">
        <ele>1611.8</ele>
        <time>2014-09-14T07:19:44Z</time>
      </trkpt>
      <trkpt lat="44.50609" lon="6.50812">
        <ele>1611.8</ele>
        <time>2014-09-14T07:19:46Z</time>
      </trkpt>
      <trkpt lat="44.50606" lon="6.50824">
        <ele>1612.3</ele>
        <time>2014-09-14T07:19:48Z</time>
      </trkpt>
      <trkpt lat="44.50591" lon="6.50893">
        <ele>1613.2</ele>
        <time>2014-09-14T07:20:00Z</time>
      </trkpt>
      <trkpt lat="44.50583" lon="6.50923">
        <ele>1613.7</ele>
        <time>2014-09-14T07:20:05Z</time>
      </trkpt>
      <trkpt lat="44.5058" lon="6.50955">
        <ele>1614.2</ele>
        <time>2014-09-14T07:20:10Z</time>
      </trkpt>
      <trkpt lat="44.50581" lon="6.50996">
        <ele>1614.2</ele>
        <time>2014-09-14T07:20:16Z</time>
      </trkpt>
      <trkpt lat="44.50586" lon="6.51022">
        <ele>1614.2</ele>
        <time>2014-09-14T07:20:20Z</time>
      </trkpt>
      <trkpt lat="44.50592" lon="6.5104">
        <ele>1614.2</ele>
        <time>2014-09-14T07:20:23Z</time>
      </trkpt>
      <trkpt lat="44.50595" lon="6.51072">
        <ele>1614.7</ele>
        <time>2014-09-14T07:20:28Z</time>
      </trkpt>
      <trkpt lat="44.506" lon="6.51147">
        <ele>1615.6</ele>
        <time>2014-09-14T07:20:42Z</time>
      </trkpt>
      <trkpt lat="44.50596" lon="6.51218">
        <ele>1616.6</ele>
        <time>2014-09-14T07:20:55Z</time>
      </trkpt>
      <trkpt lat="44.50587" lon="6.5125">
        <ele>1616.6</ele>
        <time>2014-09-14T07:21:01Z</time>
      </trkpt>
      <trkpt lat="44.5057" lon="6.51297">
        <ele>1616.6</ele>
        <time>2014-09-14T07:21:09Z</time>
      </trkpt>
      <trkpt lat="44.50563" lon="6.51329">
        <ele>1616.6</ele>
        <time>2014-09-14T07:21:14Z</time>
      </trkpt>
      <trkpt lat="44.50568" lon="6.51361">
        <ele>1616.6</ele>
        <time>2014-09-14T07:21:19Z</time>
      </trkpt>
      <trkpt lat="44.50571" lon="6.51403">
        <ele>1617.1</ele>
        <time>2014-09-14T07:21:26Z</time>
      </trkpt>
      <trkpt lat="44.50566" lon="6.51462">
        <ele>1619.5</ele>
        <time>2014-09-14T07:21:40Z</time>
      </trkpt>
      <trkpt lat="44.50565" lon="6.51515">
        <ele>1621.9</ele>
        <time>2014-09-14T07:21:53Z</time>
      </trkpt>
      <trkpt lat="44.50569" lon="6.51556">
        <ele>1623.8</ele>
        <time>2014-09-14T07:22:04Z</time>
      </trkpt>
      <trkpt lat="44.50559" lon="6.51603">
        <ele>1626.2</ele>
        <time>2014-09-14T07:22:18Z</time>
      </trkpt>
      <trkpt lat="44.50533" lon="6.51645">
        <ele>1627.2</ele>
        <time>2014-09-14T07:22:31Z</time>
      </trkpt>
      <trkpt lat="44.50494" lon="6.51682">
        <ele>1627.2</ele>
        <time>2014-09-14T07:22:45Z</time>
      </trkpt>
      <trkpt lat="44.50449" lon="6.51706">
        <ele>1627.7</ele>
        <time>2014-09-14T07:22:58Z</time>
      </trkpt>
      <trkpt lat="44.50409" lon="6.5171">
        <ele>1628.1</ele>
        <time>2014-09-14T07:23:10Z</time>
      </trkpt>
      <trkpt lat="44.5037" lon="6.5174">
        <ele>1629.1</ele>
        <time>2014-09-14T07:23:22Z</time>
      </trkpt>
      <trkpt lat="44.50328" lon="6.5175">
        <ele>1630.5</ele>
        <time>2014-09-14T07:23:35Z</time>
      </trkpt>
      <trkpt lat="44.50309" lon="6.51782">
        <ele>1631.5</ele>
        <time>2014-09-14T07:23:45Z</time>
      </trkpt>
      <trkpt lat="44.50303" lon="6.51839">
        <ele>1632.9</ele>
        <time>2014-09-14T07:23:58Z</time>
      </trkpt>
      <trkpt lat="44.5028" lon="6.51876">
        <ele>1633.9</ele>
        <time>2014-09-14T07:24:10Z</time>
      </trkpt>
      <trkpt lat="44.50266" lon="6.51921">
        <ele>1636.3</ele>
        <time>2014-09-14T07:24:23Z</time>
      </trkpt>
      <trkpt lat="44.50253" lon="6.5195">
        <ele>1638.7</ele>
        <time>2014-09-14T07:24:35Z</time>
      </trkpt>
      <trkpt lat="44.50246" lon="6.51984">
        <ele>1640.6</ele>
        <time>2014-09-14T07:24:47Z</time>
      </trkpt>
      <trkpt lat="44.50252" lon="6.52021">
        <ele>1642.6</ele>
        <time>2014-09-14T07:25:00Z</time>
      </trkpt>
      <trkpt lat="44.5027" lon="6.5204">
        <ele>1645</ele>
        <time>2014-09-14T07:25:13Z</time>
      </trkpt>
      <trkpt lat="44.50275" lon="6.52056">
        <ele>1646.9</ele>
        <time>2014-09-14T07:25:20Z</time>
      </trkpt>
      <trkpt lat="44.50276" lon="6.52095">
        <ele>1649.3</ele>
        <time>2014-09-14T07:25:36Z</time>
      </trkpt>
      <trkpt lat="44.50281" lon="6.52108">
        <ele>1650.7</ele>
        <time>2014-09-14T07:25:42Z</time>
      </trkpt>
      <trkpt lat="44.50284" lon="6.52129">
        <ele>1652.6</ele>
        <time>2014-09-14T07:25:51Z</time>
      </trkpt>
      <trkpt lat="44.50264" lon="6.52155">
        <ele>1654.6</ele>
        <time>2014-09-14T07:26:06Z</time>
      </trkpt>
      <trkpt lat="44.50262" lon="6.52148">
        <ele>1655.5</ele>
        <time>2014-09-14T07:26:12Z</time>
      </trkpt>
      <trkpt lat="44.50273" lon="6.5212">
        <ele>1657</ele>
        <time>2014-09-14T07:26:27Z</time>
      </trkpt>
      <trkpt lat="44.50259" lon="6.52081">
        <ele>1658.4</ele>
        <time>2014-09-14T07:26:41Z</time>
      </trkpt>
      <trkpt lat="44.50239" lon="6.52054">
        <ele>1659.4</ele>
        <time>2014-09-14T07:26:56Z</time>
      </trkpt>
      <trkpt lat="44.50237" lon="6.52052">
        <ele>1659.9</ele>
        <time>2014-09-14T07:27:08Z</time>
      </trkpt>
      <trkpt lat="44.50232" lon="6.5205">
        <ele>1660.3</ele>
        <time>2014-09-14T07:27:28Z</time>
      </trkpt>
      <trkpt lat="44.50226" lon="6.52048">
        <ele>1660.3</ele>
        <time>2014-09-14T07:27:31Z</time>
      </trkpt>
      <trkpt lat="44.50195" lon="6.52024">
        <ele>1662.3</ele>
        <time>2014-09-14T07:27:48Z</time>
      </trkpt>
      <trkpt lat="44.50171" lon="6.5201">
        <ele>1665.1</ele>
        <time>2014-09-14T07:28:04Z</time>
      </trkpt>
      <trkpt lat="44.5016" lon="6.51992">
        <ele>1667.5</ele>
        <time>2014-09-14T07:28:16Z</time>
      </trkpt>
      <trkpt lat="44.50172" lon="6.51963">
        <ele>1670.9</ele>
        <time>2014-09-14T07:28:32Z</time>
      </trkpt>
      <trkpt lat="44.50177" lon="6.51954">
        <ele>1671.9</ele>
        <time>2014-09-14T07:28:38Z</time>
      </trkpt>
      <trkpt lat="44.50187" lon="6.51935">
        <ele>1674.3</ele>
        <time>2014-09-14T07:28:50Z</time>
      </trkpt>
      <trkpt lat="44.50189" lon="6.51934">
        <ele>1674.3</ele>
        <time>2014-09-14T07:28:51Z</time>
      </trkpt>
      <trkpt lat="44.50202" lon="6.51913">
        <ele>1677.6</ele>
        <time>2014-09-14T07:29:06Z</time>
      </trkpt>
      <trkpt lat="44.50206" lon="6.51903">
        <ele>1678.6</ele>
        <time>2014-09-14T07:29:12Z</time>
      </trkpt>
      <trkpt lat="44.50208" lon="6.51892">
        <ele>1679.1</ele>
        <time>2014-09-14T07:29:19Z</time>
      </trkpt>
      <trkpt lat="44.50212" lon="6.51859">
        <ele>1681.5</ele>
        <time>2014-09-14T07:29:33Z</time>
      </trkpt>
      <trkpt lat="44.50217" lon="6.51845">
        <ele>1682.9</ele>
        <time>2014-09-14T07:29:40Z</time>
      </trkpt>
      <trkpt lat="44.50225" lon="6.51814">
        <ele>1684.9</ele>
        <time>2014-09-14T07:29:53Z</time>
      </trkpt>
      <trkpt lat="44.50231" lon="6.51779">
        <ele>1687.3</ele>
        <time>2014-09-14T07:30:07Z</time>
      </trkpt>
      <trkpt lat="44.50222" lon="6.51744">
        <ele>1690.1</ele>
        <time>2014-09-14T07:30:22Z</time>
      </trkpt>
      <trkpt lat="44.50222" lon="6.5174">
        <ele>1690.6</ele>
        <time>2014-09-14T07:30:24Z</time>
      </trkpt>
      <trkpt lat="44.50219" lon="6.51717">
        <ele>1692.5</ele>
        <time>2014-09-14T07:30:35Z</time>
      </trkpt>
      <trkpt lat="44.50213" lon="6.51683">
        <ele>1695.4</ele>
        <time>2014-09-14T07:30:51Z</time>
      </trkpt>
      <trkpt lat="44.50213" lon="6.51677">
        <ele>1695.9</ele>
        <time>2014-09-14T07:31:02Z</time>
      </trkpt>
      <trkpt lat="44.5021" lon="6.51678">
        <ele>1695.9</ele>
        <time>2014-09-14T07:31:29Z</time>
      </trkpt>
      <trkpt lat="44.50216" lon="6.51664">
        <ele>1696.9</ele>
        <time>2014-09-14T07:31:42Z</time>
      </trkpt>
      <trkpt lat="44.50233" lon="6.5164">
        <ele>1699.8</ele>
        <time>2014-09-14T07:31:55Z</time>
      </trkpt>
      <trkpt lat="44.50244" lon="6.51625">
        <ele>1701.2</ele>
        <time>2014-09-14T07:32:05Z</time>
      </trkpt>
      <trkpt lat="44.50262" lon="6.51623">
        <ele>1704.1</ele>
        <time>2014-09-14T07:32:18Z</time>
      </trkpt>
      <trkpt lat="44.50286" lon="6.51594">
        <ele>1707</ele>
        <time>2014-09-14T07:32:35Z</time>
      </trkpt>
      <trkpt lat="44.5029" lon="6.51585">
        <ele>1708.4</ele>
        <time>2014-09-14T07:32:41Z</time>
      </trkpt>
      <trkpt lat="44.50297" lon="6.51573">
        <ele>1709.8</ele>
        <time>2014-09-14T07:32:49Z</time>
      </trkpt>
      <trkpt lat="44.50296" lon="6.51557">
        <ele>1711.8</ele>
        <time>2014-09-14T07:32:58Z</time>
      </trkpt>
      <trkpt lat="44.50291" lon="6.51557">
        <ele>1711.8</ele>
        <time>2014-09-14T07:33:02Z</time>
      </trkpt>
      <trkpt lat="44.50277" lon="6.51579">
        <ele>1714.2</ele>
        <time>2014-09-14T07:33:17Z</time>
      </trkpt>
      <trkpt lat="44.50256" lon="6.51589">
        <ele>1716.6</ele>
        <time>2014-09-14T07:33:32Z</time>
      </trkpt>
      <trkpt lat="44.50236" lon="6.51594">
        <ele>1719</ele>
        <time>2014-09-14T07:33:43Z</time>
      </trkpt>
      <trkpt lat="44.50226" lon="6.51598">
        <ele>1719.9</ele>
        <time>2014-09-14T07:33:49Z</time>
      </trkpt>
      <trkpt lat="44.50201" lon="6.51619">
        <ele>1722.3</ele>
        <time>2014-09-14T07:34:06Z</time>
      </trkpt>
      <trkpt lat="44.50181" lon="6.51634">
        <ele>1724.7</ele>
        <time>2014-09-14T07:34:20Z</time>
      </trkpt>
      <trkpt lat="44.50169" lon="6.51648">
        <ele>1725.2</ele>
        <time>2014-09-14T07:34:28Z</time>
      </trkpt>
      <trkpt lat="44.50167" lon="6.51673">
        <ele>1726.7</ele>
        <time>2014-09-14T07:34:38Z</time>
      </trkpt>
      <trkpt lat="44.50161" lon="6.51691">
        <ele>1728.6</ele>
        <time>2014-09-14T07:34:48Z</time>
      </trkpt>
      <trkpt lat="44.50151" lon="6.51717">
        <ele>1730.5</ele>
        <time>2014-09-14T07:35:00Z</time>
      </trkpt>
      <trkpt lat="44.50138" lon="6.51746">
        <ele>1732.9</ele>
        <time>2014-09-14T07:35:14Z</time>
      </trkpt>
      <trkpt lat="44.50136" lon="6.5175">
        <ele>1732.9</ele>
        <time>2014-09-14T07:35:16Z</time>
      </trkpt>
      <trkpt lat="44.50121" lon="6.51774">
        <ele>1736.3</ele>
        <time>2014-09-14T07:35:30Z</time>
      </trkpt>
      <trkpt lat="44.50116" lon="6.5178">
        <ele>1736.3</ele>
        <time>2014-09-14T07:35:34Z</time>
      </trkpt>
      <trkpt lat="44.50109" lon="6.51786">
        <ele>1738.2</ele>
        <time>2014-09-14T07:35:40Z</time>
      </trkpt>
      <trkpt lat="44.50096" lon="6.51809">
        <ele>1740.6</ele>
        <time>2014-09-14T07:35:55Z</time>
      </trkpt>
      <trkpt lat="44.50093" lon="6.51816">
        <ele>1741.1</ele>
        <time>2014-09-14T07:35:59Z</time>
      </trkpt>
      <trkpt lat="44.50086" lon="6.51847">
        <ele>1743.5</ele>
        <time>2014-09-14T07:36:14Z</time>
      </trkpt>
      <trkpt lat="44.5007" lon="6.51869">
        <ele>1746.4</ele>
        <time>2014-09-14T07:36:29Z</time>
      </trkpt>
      <trkpt lat="44.50067" lon="6.51874">
        <ele>1746.9</ele>
        <time>2014-09-14T07:36:32Z</time>
      </trkpt>
      <trkpt lat="44.50059" lon="6.51902">
        <ele>1749.7</ele>
        <time>2014-09-14T07:36:46Z</time>
      </trkpt>
      <trkpt lat="44.50056" lon="6.51906">
        <ele>1750.2</ele>
        <time>2014-09-14T07:36:50Z</time>
      </trkpt>
      <trkpt lat="44.5005" lon="6.51915">
        <ele>1751.2</ele>
        <time>2014-09-14T07:36:56Z</time>
      </trkpt>
      <trkpt lat="44.50027" lon="6.51923">
        <ele>1753.1</ele>
        <time>2014-09-14T07:37:12Z</time>
      </trkpt>
      <trkpt lat="44.5001" lon="6.51943">
        <ele>1755.5</ele>
        <time>2014-09-14T07:37:27Z</time>
      </trkpt>
      <trkpt lat="44.50008" lon="6.51968">
        <ele>1757.4</ele>
        <time>2014-09-14T07:37:37Z</time>
      </trkpt>
      <trkpt lat="44.50009" lon="6.51985">
        <ele>1758.9</ele>
        <time>2014-09-14T07:37:45Z</time>
      </trkpt>
      <trkpt lat="44.50007" lon="6.51995">
        <ele>1759.8</ele>
        <time>2014-09-14T07:37:50Z</time>
      </trkpt>
      <trkpt lat="44.50001" lon="6.52029">
        <ele>1762.7</ele>
        <time>2014-09-14T07:38:06Z</time>
      </trkpt>
      <trkpt lat="44.49997" lon="6.52043">
        <ele>1763.7</ele>
        <time>2014-09-14T07:38:12Z</time>
      </trkpt>
      <trkpt lat="44.49993" lon="6.52059">
        <ele>1765.1</ele>
        <time>2014-09-14T07:38:19Z</time>
      </trkpt>
      <trkpt lat="44.49987" lon="6.52078">
        <ele>1767.5</ele>
        <time>2014-09-14T07:38:30Z</time>
      </trkpt>
      <trkpt lat="44.49985" lon="6.52081">
        <ele>1768</ele>
        <time>2014-09-14T07:38:32Z</time>
      </trkpt>
      <trkpt lat="44.49982" lon="6.52093">
        <ele>1768.5</ele>
        <time>2014-09-14T07:38:38Z</time>
      </trkpt>
      <trkpt lat="44.4997" lon="6.52121">
        <ele>1771.4</ele>
        <time>2014-09-14T07:38:53Z</time>
      </trkpt>
      <trkpt lat="44.49952" lon="6.5213">
        <ele>1772.3</ele>
        <time>2014-09-14T07:39:03Z</time>
      </trkpt>
      <trkpt lat="44.49944" lon="6.52138">
        <ele>1773.3</ele>
        <time>2014-09-14T07:39:09Z</time>
      </trkpt>
      <trkpt lat="44.49938" lon="6.52144">
        <ele>1773.8</ele>
        <time>2014-09-14T07:39:13Z</time>
      </trkpt>
      <trkpt lat="44.49933" lon="6.5215">
        <ele>1774.7</ele>
        <time>2014-09-14T07:39:17Z</time>
      </trkpt>
      <trkpt lat="44.49928" lon="6.52155">
        <ele>1775.2</ele>
        <time>2014-09-14T07:39:21Z</time>
      </trkpt>
      <trkpt lat="44.49922" lon="6.52158">
        <ele>1776.2</ele>
        <time>2014-09-14T07:39:26Z</time>
      </trkpt>
      <trkpt lat="44.49918" lon="6.52155">
        <ele>1777.1</ele>
        <time>2014-09-14T07:39:30Z</time>
      </trkpt>
      <trkpt lat="44.49906" lon="6.52118">
        <ele>1780.5</ele>
        <time>2014-09-14T07:39:50Z</time>
      </trkpt>
      <trkpt lat="44.49897" lon="6.52101">
        <ele>1781.9</ele>
        <time>2014-09-14T07:40:00Z</time>
      </trkpt>
      <trkpt lat="44.49891" lon="6.52078">
        <ele>1783.9</ele>
        <time>2014-09-14T07:40:11Z</time>
      </trkpt>
      <trkpt lat="44.49894" lon="6.52054">
        <ele>1786.3</ele>
        <time>2014-09-14T07:40:24Z</time>
      </trkpt>
      <trkpt lat="44.49897" lon="6.52048">
        <ele>1787.2</ele>
        <time>2014-09-14T07:40:29Z</time>
      </trkpt>
      <trkpt lat="44.49903" lon="6.52029">
        <ele>1788.7</ele>
        <time>2014-09-14T07:40:39Z</time>
      </trkpt>
      <trkpt lat="44.49907" lon="6.52015">
        <ele>1790.1</ele>
        <time>2014-09-14T07:40:46Z</time>
      </trkpt>
      <trkpt lat="44.49926" lon="6.51995">
        <ele>1792.5</ele>
        <time>2014-09-14T07:41:02Z</time>
      </trkpt>
      <trkpt lat="44.49935" lon="6.51982">
        <ele>1793.5</ele>
        <time>2014-09-14T07:41:11Z</time>
      </trkpt>
      <trkpt lat="44.49942" lon="6.51972">
        <ele>1794</ele>
        <time>2014-09-14T07:41:18Z</time>
      </trkpt>
      <trkpt lat="44.49937" lon="6.51948">
        <ele>1796.8</ele>
        <time>2014-09-14T07:41:33Z</time>
      </trkpt>
      <trkpt lat="44.49926" lon="6.51935">
        <ele>1799.2</ele>
        <time>2014-09-14T07:41:43Z</time>
      </trkpt>
      <trkpt lat="44.49907" lon="6.51943">
        <ele>1801.7</ele>
        <time>2014-09-14T07:41:59Z</time>
      </trkpt>
      <trkpt lat="44.49885" lon="6.51951">
        <ele>1804.1</ele>
        <time>2014-09-14T07:42:14Z</time>
      </trkpt>
      <trkpt lat="44.49884" lon="6.51951">
        <ele>1804.1</ele>
        <time>2014-09-14T07:42:15Z</time>
      </trkpt>
      <trkpt lat="44.49883" lon="6.51933">
        <ele>1806</ele>
        <time>2014-09-14T07:42:27Z</time>
      </trkpt>
      <trkpt lat="44.49886" lon="6.51928">
        <ele>1806.9</ele>
        <time>2014-09-14T07:42:31Z</time>
      </trkpt>
      <trkpt lat="44.49887" lon="6.51919">
        <ele>1808.4</ele>
        <time>2014-09-14T07:42:36Z</time>
      </trkpt>
      <trkpt lat="44.499" lon="6.51899">
        <ele>1811.3</ele>
        <time>2014-09-14T07:42:52Z</time>
      </trkpt>
      <trkpt lat="44.49904" lon="6.51896">
        <ele>1812.2</ele>
        <time>2014-09-14T07:42:56Z</time>
      </trkpt>
      <trkpt lat="44.4992" lon="6.51881">
        <ele>1814.2</ele>
        <time>2014-09-14T07:43:11Z</time>
      </trkpt>
      <trkpt lat="44.49925" lon="6.51876">
        <ele>1815.1</ele>
        <time>2014-09-14T07:43:17Z</time>
      </trkpt>
      <trkpt lat="44.49928" lon="6.51859">
        <ele>1816.6</ele>
        <time>2014-09-14T07:43:27Z</time>
      </trkpt>
      <trkpt lat="44.49925" lon="6.51851">
        <ele>1817.5</ele>
        <time>2014-09-14T07:43:32Z</time>
      </trkpt>
      <trkpt lat="44.4992" lon="6.51839">
        <ele>1819</ele>
        <time>2014-09-14T07:43:40Z</time>
      </trkpt>
      <trkpt lat="44.49915" lon="6.51821">
        <ele>1820.9</ele>
        <time>2014-09-14T07:43:51Z</time>
      </trkpt>
      <trkpt lat="44.49908" lon="6.51799">
        <ele>1823.8</ele>
        <time>2014-09-14T07:44:06Z</time>
      </trkpt>
      <trkpt lat="44.49908" lon="6.51796">
        <ele>1823.8</ele>
        <time>2014-09-14T07:44:08Z</time>
      </trkpt>
      <trkpt lat="44.49909" lon="6.51784">
        <ele>1825.7</ele>
        <time>2014-09-14T07:44:16Z</time>
      </trkpt>
      <trkpt lat="44.49912" lon="6.51773">
        <ele>1826.6</ele>
        <time>2014-09-14T07:44:23Z</time>
      </trkpt>
      <trkpt lat="44.49909" lon="6.51763">
        <ele>1827.6</ele>
        <time>2014-09-14T07:44:29Z</time>
      </trkpt>
      <trkpt lat="44.49909" lon="6.51743">
        <ele>1830</ele>
        <time>2014-09-14T07:44:41Z</time>
      </trkpt>
      <trkpt lat="44.49898" lon="6.51714">
        <ele>1832.4</ele>
        <time>2014-09-14T07:44:58Z</time>
      </trkpt>
      <trkpt lat="44.49881" lon="6.51687">
        <ele>1834.3</ele>
        <time>2014-09-14T07:45:13Z</time>
      </trkpt>
      <trkpt lat="44.49869" lon="6.51668">
        <ele>1835.8</ele>
        <time>2014-09-14T07:45:23Z</time>
      </trkpt>
      <trkpt lat="44.49867" lon="6.5163">
        <ele>1838.2</ele>
        <time>2014-09-14T07:45:40Z</time>
      </trkpt>
      <trkpt lat="44.4988" lon="6.51602">
        <ele>1841.1</ele>
        <time>2014-09-14T07:45:56Z</time>
      </trkpt>
      <trkpt lat="44.49882" lon="6.516">
        <ele>1841.1</ele>
        <time>2014-09-14T07:45:58Z</time>
      </trkpt>
      <trkpt lat="44.49884" lon="6.51595">
        <ele>1841.5</ele>
        <time>2014-09-14T07:46:01Z</time>
      </trkpt>
      <trkpt lat="44.49891" lon="6.51587">
        <ele>1843.5</ele>
        <time>2014-09-14T07:46:08Z</time>
      </trkpt>
      <trkpt lat="44.49905" lon="6.51554">
        <ele>1846.8</ele>
        <time>2014-09-14T07:46:26Z</time>
      </trkpt>
      <trkpt lat="44.49907" lon="6.51535">
        <ele>1848.3</ele>
        <time>2014-09-14T07:46:36Z</time>
      </trkpt>
      <trkpt lat="44.49907" lon="6.51524">
        <ele>1848.8</ele>
        <time>2014-09-14T07:46:42Z</time>
      </trkpt>
      <trkpt lat="44.49923" lon="6.51503">
        <ele>1851.6</ele>
        <time>2014-09-14T07:46:58Z</time>
      </trkpt>
      <trkpt lat="44.49937" lon="6.51485">
        <ele>1853.1</ele>
        <time>2014-09-14T07:47:11Z</time>
      </trkpt>
      <trkpt lat="44.49932" lon="6.51471">
        <ele>1854.5</ele>
        <time>2014-09-14T07:47:19Z</time>
      </trkpt>
      <trkpt lat="44.49932" lon="6.51455">
        <ele>1856.9</ele>
        <time>2014-09-14T07:47:29Z</time>
      </trkpt>
      <trkpt lat="44.49934" lon="6.51451">
        <ele>1856.9</ele>
        <time>2014-09-14T07:47:32Z</time>
      </trkpt>
      <trkpt lat="44.49934" lon="6.5144">
        <ele>1857.9</ele>
        <time>2014-09-14T07:47:39Z</time>
      </trkpt>
      <trkpt lat="44.49942" lon="6.51408">
        <ele>1861.3</ele>
        <time>2014-09-14T07:47:58Z</time>
      </trkpt>
      <trkpt lat="44.49946" lon="6.51394">
        <ele>1862.7</ele>
        <time>2014-09-14T07:48:06Z</time>
      </trkpt>
      <trkpt lat="44.49948" lon="6.51385">
        <ele>1863.2</ele>
        <time>2014-09-14T07:48:12Z</time>
      </trkpt>
      <trkpt lat="44.49962" lon="6.51367">
        <ele>1866.5</ele>
        <time>2014-09-14T07:48:27Z</time>
      </trkpt>
      <trkpt lat="44.49979" lon="6.51343">
        <ele>1869.4</ele>
        <time>2014-09-14T07:48:45Z</time>
      </trkpt>
      <trkpt lat="44.49989" lon="6.51319">
        <ele>1871.8</ele>
        <time>2014-09-14T07:48:59Z</time>
      </trkpt>
      <trkpt lat="44.49992" lon="6.51316">
        <ele>1872.3</ele>
        <time>2014-09-14T07:49:02Z</time>
      </trkpt>
      <trkpt lat="44.50011" lon="6.51294">
        <ele>1874.7</ele>
        <time>2014-09-14T07:49:17Z</time>
      </trkpt>
      <trkpt lat="44.50027" lon="6.5127">
        <ele>1877.6</ele>
        <time>2014-09-14T07:49:34Z</time>
      </trkpt>
      <trkpt lat="44.50041" lon="6.51252">
        <ele>1880.5</ele>
        <time>2014-09-14T07:49:48Z</time>
      </trkpt>
      <trkpt lat="44.50048" lon="6.51241">
        <ele>1882.4</ele>
        <time>2014-09-14T07:49:56Z</time>
      </trkpt>
      <trkpt lat="44.50056" lon="6.51226">
        <ele>1883.8</ele>
        <time>2014-09-14T07:50:05Z</time>
      </trkpt>
      <trkpt lat="44.50058" lon="6.51214">
        <ele>1885.3</ele>
        <time>2014-09-14T07:50:12Z</time>
      </trkpt>
      <trkpt lat="44.50059" lon="6.5121">
        <ele>1885.8</ele>
        <time>2014-09-14T07:50:14Z</time>
      </trkpt>
      <trkpt lat="44.50066" lon="6.51194">
        <ele>1886.7</ele>
        <time>2014-09-14T07:50:23Z</time>
      </trkpt>
      <trkpt lat="44.50067" lon="6.51182">
        <ele>1887.7</ele>
        <time>2014-09-14T07:50:30Z</time>
      </trkpt>
      <trkpt lat="44.50073" lon="6.51176">
        <ele>1888.7</ele>
        <time>2014-09-14T07:50:35Z</time>
      </trkpt>
      <trkpt lat="44.50073" lon="6.51167">
        <ele>1890.1</ele>
        <time>2014-09-14T07:50:41Z</time>
      </trkpt>
      <trkpt lat="44.50078" lon="6.51165">
        <ele>1890.6</ele>
        <time>2014-09-14T07:50:45Z</time>
      </trkpt>
      <trkpt lat="44.50081" lon="6.51161">
        <ele>1890.6</ele>
        <time>2014-09-14T07:50:48Z</time>
      </trkpt>
      <trkpt lat="44.50081" lon="6.51151">
        <ele>1891.5</ele>
        <time>2014-09-14T07:50:53Z</time>
      </trkpt>
      <trkpt lat="44.50083" lon="6.51146">
        <ele>1892</ele>
        <time>2014-09-14T07:50:56Z</time>
      </trkpt>
      <trkpt lat="44.50086" lon="6.51138">
        <ele>1892.5</ele>
        <time>2014-09-14T07:51:01Z</time>
      </trkpt>
      <trkpt lat="44.50088" lon="6.51133">
        <ele>1893.5</ele>
        <time>2014-09-14T07:51:04Z</time>
      </trkpt>
      <trkpt lat="44.50092" lon="6.51115">
        <ele>1895.4</ele>
        <time>2014-09-14T07:51:15Z</time>
      </trkpt>
      <trkpt lat="44.50095" lon="6.51107">
        <ele>1895.9</ele>
        <time>2014-09-14T07:51:20Z</time>
      </trkpt>
      <trkpt lat="44.50096" lon="6.51103">
        <ele>1896.3</ele>
        <time>2014-09-14T07:51:22Z</time>
      </trkpt>
      <trkpt lat="44.50101" lon="6.51081">
        <ele>1897.8</ele>
        <time>2014-09-14T07:51:34Z</time>
      </trkpt>
      <trkpt lat="44.50091" lon="6.5107">
        <ele>1899.2</ele>
        <time>2014-09-14T07:51:43Z</time>
      </trkpt>
      <trkpt lat="44.50091" lon="6.51061">
        <ele>1900.2</ele>
        <time>2014-09-14T07:51:48Z</time>
      </trkpt>
      <trkpt lat="44.50088" lon="6.51055">
        <ele>1901.1</ele>
        <time>2014-09-14T07:51:52Z</time>
      </trkpt>
      <trkpt lat="44.50084" lon="6.51032">
        <ele>1903.1</ele>
        <time>2014-09-14T07:52:04Z</time>
      </trkpt>
      <trkpt lat="44.50079" lon="6.51024">
        <ele>1904.5</ele>
        <time>2014-09-14T07:52:09Z</time>
      </trkpt>
      <trkpt lat="44.50078" lon="6.5102">
        <ele>1904.5</ele>
        <time>2014-09-14T07:52:11Z</time>
      </trkpt>
      <trkpt lat="44.50074" lon="6.51007">
        <ele>1905.5</ele>
        <time>2014-09-14T07:52:18Z</time>
      </trkpt>
      <trkpt lat="44.5006" lon="6.50973">
        <ele>1908.8</ele>
        <time>2014-09-14T07:52:36Z</time>
      </trkpt>
      <trkpt lat="44.50049" lon="6.50947">
        <ele>1910.8</ele>
        <time>2014-09-14T07:52:50Z</time>
      </trkpt>
      <trkpt lat="44.50045" lon="6.50929">
        <ele>1912.2</ele>
        <time>2014-09-14T07:52:58Z</time>
      </trkpt>
      <trkpt lat="44.50039" lon="6.50902">
        <ele>1914.1</ele>
        <time>2014-09-14T07:53:11Z</time>
      </trkpt>
      <trkpt lat="44.50037" lon="6.50898">
        <ele>1914.6</ele>
        <time>2014-09-14T07:53:13Z</time>
      </trkpt>
      <trkpt lat="44.50029" lon="6.50892">
        <ele>1915.6</ele>
        <time>2014-09-14T07:53:19Z</time>
      </trkpt>
      <trkpt lat="44.50016" lon="6.50874">
        <ele>1917.5</ele>
        <time>2014-09-14T07:53:31Z</time>
      </trkpt>
      <trkpt lat="44.50015" lon="6.50872">
        <ele>1917.5</ele>
        <time>2014-09-14T07:53:32Z</time>
      </trkpt>
      <trkpt lat="44.49989" lon="6.50852">
        <ele>1919.4</ele>
        <time>2014-09-14T07:53:48Z</time>
      </trkpt>
      <trkpt lat="44.49988" lon="6.50851">
        <ele>1919.9</ele>
        <time>2014-09-14T07:53:49Z</time>
      </trkpt>
      <trkpt lat="44.49979" lon="6.50841">
        <ele>1920.9</ele>
        <time>2014-09-14T07:53:56Z</time>
      </trkpt>
      <trkpt lat="44.49958" lon="6.50805">
        <ele>1922.8</ele>
        <time>2014-09-14T07:54:12Z</time>
      </trkpt>
      <trkpt lat="44.49957" lon="6.50797">
        <ele>1923.3</ele>
        <time>2014-09-14T07:54:15Z</time>
      </trkpt>
      <trkpt lat="44.4996" lon="6.50774">
        <ele>1924.7</ele>
        <time>2014-09-14T07:54:24Z</time>
      </trkpt>
      <trkpt lat="44.49961" lon="6.50748">
        <ele>1925.7</ele>
        <time>2014-09-14T07:54:36Z</time>
      </trkpt>
      <trkpt lat="44.49963" lon="6.50728">
        <ele>1927.1</ele>
        <time>2014-09-14T07:54:45Z</time>
      </trkpt>
      <trkpt lat="44.49971" lon="6.50694">
        <ele>1930.5</ele>
        <time>2014-09-14T07:55:03Z</time>
      </trkpt>
      <trkpt lat="44.49971" lon="6.50689">
        <ele>1931</ele>
        <time>2014-09-14T07:55:14Z</time>
      </trkpt>
      <trkpt lat="44.49966" lon="6.50689">
        <ele>1931</ele>
        <time>2014-09-14T07:55:41Z</time>
      </trkpt>
      <trkpt lat="44.49963" lon="6.50686">
        <ele>1931.4</ele>
        <time>2014-09-14T07:56:16Z</time>
      </trkpt>
      <trkpt lat="44.49964" lon="6.50687">
        <ele>1931.4</ele>
        <time>2014-09-14T07:56:33Z</time>
      </trkpt>
      <trkpt lat="44.49964" lon="6.50689">
        <ele>1931.4</ele>
        <time>2014-09-14T07:57:04Z</time>
      </trkpt>
      <trkpt lat="44.49963" lon="6.50686">
        <ele>1931.4</ele>
        <time>2014-09-14T07:57:29Z</time>
      </trkpt>
      <trkpt lat="44.49966" lon="6.50686">
        <ele>1931.4</ele>
        <time>2014-09-14T07:57:56Z</time>
      </trkpt>
      <trkpt lat="44.49961" lon="6.5069">
        <ele>1931.4</ele>
        <time>2014-09-14T07:58:31Z</time>
      </trkpt>
      <trkpt lat="44.49967" lon="6.50687">
        <ele>1931.4</ele>
        <time>2014-09-14T07:59:02Z</time>
      </trkpt>
      <trkpt lat="44.49966" lon="6.50689">
        <ele>1931.4</ele>
        <time>2014-09-14T07:59:36Z</time>
      </trkpt>
      <trkpt lat="44.49968" lon="6.50689">
        <ele>1931.9</ele>
        <time>2014-09-14T08:00:21Z</time>
      </trkpt>
      <trkpt lat="44.49963" lon="6.5069">
        <ele>1931.9</ele>
        <time>2014-09-14T08:00:52Z</time>
      </trkpt>
      <trkpt lat="44.49962" lon="6.5069">
        <ele>1931.9</ele>
        <time>2014-09-14T08:01:19Z</time>
      </trkpt>
      <trkpt lat="44.4997" lon="6.50689">
        <ele>1931.9</ele>
        <time>2014-09-14T08:01:50Z</time>
      </trkpt>
      <trkpt lat="44.49966" lon="6.50688">
        <ele>1932.4</ele>
        <time>2014-09-14T08:02:26Z</time>
      </trkpt>
      <trkpt lat="44.49969" lon="6.50689">
        <ele>1932.4</ele>
        <time>2014-09-14T08:02:38Z</time>
      </trkpt>
      <trkpt lat="44.4997" lon="6.50688">
        <ele>1932.9</ele>
        <time>2014-09-14T08:02:46Z</time>
      </trkpt>
      <trkpt lat="44.4998" lon="6.50659">
        <ele>1935.8</ele>
        <time>2014-09-14T08:03:04Z</time>
      </trkpt>
      <trkpt lat="44.49983" lon="6.50629">
        <ele>1938.2</ele>
        <time>2014-09-14T08:03:20Z</time>
      </trkpt>
      <trkpt lat="44.49974" lon="6.506">
        <ele>1939.6</ele>
        <time>2014-09-14T08:03:35Z</time>
      </trkpt>
      <trkpt lat="44.4998" lon="6.50584">
        <ele>1941.5</ele>
        <time>2014-09-14T08:03:45Z</time>
      </trkpt>
      <trkpt lat="44.50004" lon="6.50564">
        <ele>1943.4</ele>
        <time>2014-09-14T08:03:59Z</time>
      </trkpt>
      <trkpt lat="44.50019" lon="6.50537">
        <ele>1944.9</ele>
        <time>2014-09-14T08:04:11Z</time>
      </trkpt>
      <trkpt lat="44.50015" lon="6.50531">
        <ele>1945.9</ele>
        <time>2014-09-14T08:04:15Z</time>
      </trkpt>
      <trkpt lat="44.49995" lon="6.5054">
        <ele>1948.7</ele>
        <time>2014-09-14T08:04:28Z</time>
      </trkpt>
      <trkpt lat="44.49985" lon="6.50548">
        <ele>1950.2</ele>
        <time>2014-09-14T08:04:36Z</time>
      </trkpt>
      <trkpt lat="44.49962" lon="6.50548">
        <ele>1952.6</ele>
        <time>2014-09-14T08:04:51Z</time>
      </trkpt>
      <trkpt lat="44.49951" lon="6.5054">
        <ele>1955</ele>
        <time>2014-09-14T08:05:00Z</time>
      </trkpt>
      <trkpt lat="44.49948" lon="6.50539">
        <ele>1955</ele>
        <time>2014-09-14T08:05:02Z</time>
      </trkpt>
      <trkpt lat="44.49944" lon="6.50542">
        <ele>1955.5</ele>
        <time>2014-09-14T08:05:06Z</time>
      </trkpt>
      <trkpt lat="44.49937" lon="6.50552">
        <ele>1956.4</ele>
        <time>2014-09-14T08:05:13Z</time>
      </trkpt>
      <trkpt lat="44.49933" lon="6.50557">
        <ele>1956.9</ele>
        <time>2014-09-14T08:05:17Z</time>
      </trkpt>
      <trkpt lat="44.49933" lon="6.50568">
        <ele>1958.3</ele>
        <time>2014-09-14T08:05:24Z</time>
      </trkpt>
      <trkpt lat="44.49931" lon="6.50587">
        <ele>1959.8</ele>
        <time>2014-09-14T08:05:34Z</time>
      </trkpt>
      <trkpt lat="44.49922" lon="6.50594">
        <ele>1961.2</ele>
        <time>2014-09-14T08:05:44Z</time>
      </trkpt>
      <trkpt lat="44.49907" lon="6.506">
        <ele>1963.2</ele>
        <time>2014-09-14T08:05:55Z</time>
      </trkpt>
      <trkpt lat="44.4989" lon="6.50622">
        <ele>1966</ele>
        <time>2014-09-14T08:06:12Z</time>
      </trkpt>
      <trkpt lat="44.49878" lon="6.5065">
        <ele>1968</ele>
        <time>2014-09-14T08:06:25Z</time>
      </trkpt>
      <trkpt lat="44.49865" lon="6.50685">
        <ele>1970.4</ele>
        <time>2014-09-14T08:06:40Z</time>
      </trkpt>
      <trkpt lat="44.49853" lon="6.50711">
        <ele>1972.8</ele>
        <time>2014-09-14T08:06:54Z</time>
      </trkpt>
      <trkpt lat="44.49842" lon="6.50743">
        <ele>1974.7</ele>
        <time>2014-09-14T08:07:09Z</time>
      </trkpt>
      <trkpt lat="44.49844" lon="6.50765">
        <ele>1976.1</ele>
        <time>2014-09-14T08:07:18Z</time>
      </trkpt>
      <trkpt lat="44.49847" lon="6.50783">
        <ele>1977.1</ele>
        <time>2014-09-14T08:07:25Z</time>
      </trkpt>
      <trkpt lat="44.49856" lon="6.50814">
        <ele>1979.5</ele>
        <time>2014-09-14T08:07:39Z</time>
      </trkpt>
      <trkpt lat="44.49865" lon="6.50845">
        <ele>1982.4</ele>
        <time>2014-09-14T08:07:54Z</time>
      </trkpt>
      <trkpt lat="44.4987" lon="6.50862">
        <ele>1983.8</ele>
        <time>2014-09-14T08:08:03Z</time>
      </trkpt>
      <trkpt lat="44.49879" lon="6.50892">
        <ele>1985.3</ele>
        <time>2014-09-14T08:08:17Z</time>
      </trkpt>
      <trkpt lat="44.49877" lon="6.50896">
        <ele>1985.3</ele>
        <time>2014-09-14T08:08:19Z</time>
      </trkpt>
      <trkpt lat="44.49866" lon="6.50901">
        <ele>1986.2</ele>
        <time>2014-09-14T08:08:27Z</time>
      </trkpt>
      <trkpt lat="44.49854" lon="6.5088">
        <ele>1988.1</ele>
        <time>2014-09-14T08:08:39Z</time>
      </trkpt>
      <trkpt lat="44.49852" lon="6.50876">
        <ele>1988.1</ele>
        <time>2014-09-14T08:08:41Z</time>
      </trkpt>
      <trkpt lat="44.49838" lon="6.5085">
        <ele>1990.6</ele>
        <time>2014-09-14T08:08:55Z</time>
      </trkpt>
      <trkpt lat="44.49827" lon="6.50822">
        <ele>1993.9</ele>
        <time>2014-09-14T08:09:11Z</time>
      </trkpt>
      <trkpt lat="44.49824" lon="6.50814">
        <ele>1994.4</ele>
        <time>2014-09-14T08:09:16Z</time>
      </trkpt>
      <trkpt lat="44.49818" lon="6.50814">
        <ele>1994.9</ele>
        <time>2014-09-14T08:09:21Z</time>
      </trkpt>
      <trkpt lat="44.49815" lon="6.50815">
        <ele>1995.4</ele>
        <time>2014-09-14T08:09:23Z</time>
      </trkpt>
      <trkpt lat="44.49815" lon="6.50827">
        <ele>1995.8</ele>
        <time>2014-09-14T08:09:30Z</time>
      </trkpt>
      <trkpt lat="44.49815" lon="6.50836">
        <ele>1996.8</ele>
        <time>2014-09-14T08:09:35Z</time>
      </trkpt>
      <trkpt lat="44.49816" lon="6.50849">
        <ele>1997.8</ele>
        <time>2014-09-14T08:09:41Z</time>
      </trkpt>
      <trkpt lat="44.49817" lon="6.50859">
        <ele>1998.2</ele>
        <time>2014-09-14T08:09:46Z</time>
      </trkpt>
      <trkpt lat="44.49817" lon="6.50895">
        <ele>2000.2</ele>
        <time>2014-09-14T08:10:02Z</time>
      </trkpt>
      <trkpt lat="44.498" lon="6.50915">
        <ele>2002.1</ele>
        <time>2014-09-14T08:10:15Z</time>
      </trkpt>
      <trkpt lat="44.49787" lon="6.5093">
        <ele>2003.5</ele>
        <time>2014-09-14T08:10:26Z</time>
      </trkpt>
      <trkpt lat="44.49777" lon="6.50955">
        <ele>2006.9</ele>
        <time>2014-09-14T08:10:41Z</time>
      </trkpt>
      <trkpt lat="44.49774" lon="6.50966">
        <ele>2007.9</ele>
        <time>2014-09-14T08:10:47Z</time>
      </trkpt>
      <trkpt lat="44.49776" lon="6.50991">
        <ele>2009.8</ele>
        <time>2014-09-14T08:10:57Z</time>
      </trkpt>
      <trkpt lat="44.49796" lon="6.51019">
        <ele>2011.7</ele>
        <time>2014-09-14T08:11:13Z</time>
      </trkpt>
      <trkpt lat="44.49814" lon="6.5106">
        <ele>2012.2</ele>
        <time>2014-09-14T08:11:27Z</time>
      </trkpt>
      <trkpt lat="44.4982" lon="6.51106">
        <ele>2010.7</ele>
        <time>2014-09-14T08:11:39Z</time>
      </trkpt>
      <trkpt lat="44.49821" lon="6.5116">
        <ele>2009.8</ele>
        <time>2014-09-14T08:11:51Z</time>
      </trkpt>
      <trkpt lat="44.49817" lon="6.5121">
        <ele>2010.3</ele>
        <time>2014-09-14T08:12:03Z</time>
      </trkpt>
      <trkpt lat="44.49789" lon="6.51233">
        <ele>2010.3</ele>
        <time>2014-09-14T08:12:14Z</time>
      </trkpt>
      <trkpt lat="44.49751" lon="6.51233">
        <ele>2011.2</ele>
        <time>2014-09-14T08:12:26Z</time>
      </trkpt>
      <trkpt lat="44.49704" lon="6.51226">
        <ele>2011.2</ele>
        <time>2014-09-14T08:12:39Z</time>
      </trkpt>
      <trkpt lat="44.49685" lon="6.51228">
        <ele>2010.3</ele>
        <time>2014-09-14T08:12:44Z</time>
      </trkpt>
      <trkpt lat="44.49645" lon="6.51224">
        <ele>2010.3</ele>
        <time>2014-09-14T08:12:56Z</time>
      </trkpt>
      <trkpt lat="44.49613" lon="6.51213">
        <ele>2012.7</ele>
        <time>2014-09-14T08:13:08Z</time>
      </trkpt>
      <trkpt lat="44.4958" lon="6.51213">
        <ele>2015.5</ele>
        <time>2014-09-14T08:13:22Z</time>
      </trkpt>
      <trkpt lat="44.49547" lon="6.51211">
        <ele>2017.5</ele>
        <time>2014-09-14T08:13:38Z</time>
      </trkpt>
      <trkpt lat="44.49521" lon="6.51203">
        <ele>2019.4</ele>
        <time>2014-09-14T08:13:52Z</time>
      </trkpt>
      <trkpt lat="44.49493" lon="6.51201">
        <ele>2021.8</ele>
        <time>2014-09-14T08:14:08Z</time>
      </trkpt>
      <trkpt lat="44.49467" lon="6.51203">
        <ele>2022.8</ele>
        <time>2014-09-14T08:14:21Z</time>
      </trkpt>
      <trkpt lat="44.49441" lon="6.51203">
        <ele>2024.7</ele>
        <time>2014-09-14T08:14:34Z</time>
      </trkpt>
      <trkpt lat="44.49415" lon="6.51204">
        <ele>2026.1</ele>
        <time>2014-09-14T08:14:47Z</time>
      </trkpt>
      <trkpt lat="44.4939" lon="6.51204">
        <ele>2028</ele>
        <time>2014-09-14T08:15:00Z</time>
      </trkpt>
      <trkpt lat="44.4936" lon="6.51198">
        <ele>2029.5</ele>
        <time>2014-09-14T08:15:13Z</time>
      </trkpt>
      <trkpt lat="44.49348" lon="6.51194">
        <ele>2030.9</ele>
        <time>2014-09-14T08:15:21Z</time>
      </trkpt>
      <trkpt lat="44.49345" lon="6.51198">
        <ele>2031.4</ele>
        <time>2014-09-14T08:15:37Z</time>
      </trkpt>
      <trkpt lat="44.49345" lon="6.51196">
        <ele>2031.4</ele>
        <time>2014-09-14T08:16:02Z</time>
      </trkpt>
      <trkpt lat="44.49339" lon="6.51191">
        <ele>2031.4</ele>
        <time>2014-09-14T08:16:25Z</time>
      </trkpt>
      <trkpt lat="44.49339" lon="6.51192">
        <ele>2031.4</ele>
        <time>2014-09-14T08:16:51Z</time>
      </trkpt>
      <trkpt lat="44.49342" lon="6.51198">
        <ele>2031.4</ele>
        <time>2014-09-14T08:17:13Z</time>
      </trkpt>
      <trkpt lat="44.49342" lon="6.51199">
        <ele>2031.4</ele>
        <time>2014-09-14T08:17:15Z</time>
      </trkpt>
      <trkpt lat="44.49325" lon="6.51189">
        <ele>2033.3</ele>
        <time>2014-09-14T08:17:27Z</time>
      </trkpt>
      <trkpt lat="44.49304" lon="6.51194">
        <ele>2036.7</ele>
        <time>2014-09-14T08:17:41Z</time>
      </trkpt>
      <trkpt lat="44.49294" lon="6.51227">
        <ele>2039.6</ele>
        <time>2014-09-14T08:17:58Z</time>
      </trkpt>
      <trkpt lat="44.4929" lon="6.51259">
        <ele>2041.5</ele>
        <time>2014-09-14T08:18:13Z</time>
      </trkpt>
      <trkpt lat="44.49276" lon="6.51287">
        <ele>2042</ele>
        <time>2014-09-14T08:18:25Z</time>
      </trkpt>
      <trkpt lat="44.49262" lon="6.51306">
        <ele>2042.5</ele>
        <time>2014-09-14T08:18:33Z</time>
      </trkpt>
      <trkpt lat="44.49259" lon="6.51313">
        <ele>2043.4</ele>
        <time>2014-09-14T08:18:36Z</time>
      </trkpt>
      <trkpt lat="44.49246" lon="6.51352">
        <ele>2045.3</ele>
        <time>2014-09-14T08:18:51Z</time>
      </trkpt>
      <trkpt lat="44.49247" lon="6.51385">
        <ele>2046.8</ele>
        <time>2014-09-14T08:19:02Z</time>
      </trkpt>
      <trkpt lat="44.4926" lon="6.51409">
        <ele>2049.7</ele>
        <time>2014-09-14T08:19:15Z</time>
      </trkpt>
      <trkpt lat="44.4927" lon="6.51424">
        <ele>2051.1</ele>
        <time>2014-09-14T08:19:25Z</time>
      </trkpt>
      <trkpt lat="44.49276" lon="6.51436">
        <ele>2053</ele>
        <time>2014-09-14T08:19:35Z</time>
      </trkpt>
      <trkpt lat="44.49292" lon="6.51452">
        <ele>2055.4</ele>
        <time>2014-09-14T08:19:48Z</time>
      </trkpt>
      <trkpt lat="44.49311" lon="6.5148">
        <ele>2056.9</ele>
        <time>2014-09-14T08:20:04Z</time>
      </trkpt>
      <trkpt lat="44.49322" lon="6.51506">
        <ele>2058.3</ele>
        <time>2014-09-14T08:20:17Z</time>
      </trkpt>
      <trkpt lat="44.49328" lon="6.51525">
        <ele>2059.3</ele>
        <time>2014-09-14T08:20:25Z</time>
      </trkpt>
      <trkpt lat="44.49329" lon="6.51542">
        <ele>2059.3</ele>
        <time>2014-09-14T08:20:31Z</time>
      </trkpt>
      <trkpt lat="44.49318" lon="6.516">
        <ele>2057.8</ele>
        <time>2014-09-14T08:20:46Z</time>
      </trkpt>
      <trkpt lat="44.49315" lon="6.51623">
        <ele>2056.9</ele>
        <time>2014-09-14T08:20:51Z</time>
      </trkpt>
      <trkpt lat="44.49319" lon="6.51649">
        <ele>2055.9</ele>
        <time>2014-09-14T08:20:55Z</time>
      </trkpt>
      <trkpt lat="44.49333" lon="6.51681">
        <ele>2055</ele>
        <time>2014-09-14T08:21:00Z</time>
      </trkpt>
      <trkpt lat="44.49333" lon="6.51707">
        <ele>2054</ele>
        <time>2014-09-14T08:21:05Z</time>
      </trkpt>
      <trkpt lat="44.49313" lon="6.51749">
        <ele>2050.6</ele>
        <time>2014-09-14T08:21:17Z</time>
      </trkpt>
      <trkpt lat="44.49273" lon="6.51764">
        <ele>2046.8</ele>
        <time>2014-09-14T08:21:26Z</time>
      </trkpt>
      <trkpt lat="44.4926" lon="6.51768">
        <ele>2045.8</ele>
        <time>2014-09-14T08:21:28Z</time>
      </trkpt>
      <trkpt lat="44.49221" lon="6.51777">
        <ele>2043.9</ele>
        <time>2014-09-14T08:21:34Z</time>
      </trkpt>
      <trkpt lat="44.49144" lon="6.51757">
        <ele>2042</ele>
        <time>2014-09-14T08:21:47Z</time>
      </trkpt>
      <trkpt lat="44.49129" lon="6.51756">
        <ele>2042</ele>
        <time>2014-09-14T08:21:50Z</time>
      </trkpt>
      <trkpt lat="44.49089" lon="6.51762">
        <ele>2043.9</ele>
        <time>2014-09-14T08:22:01Z</time>
      </trkpt>
      <trkpt lat="44.49049" lon="6.51773">
        <ele>2045.3</ele>
        <time>2014-09-14T08:22:14Z</time>
      </trkpt>
      <trkpt lat="44.49009" lon="6.51798">
        <ele>2045.8</ele>
        <time>2014-09-14T08:22:27Z</time>
      </trkpt>
      <trkpt lat="44.4896" lon="6.51812">
        <ele>2046.8</ele>
        <time>2014-09-14T08:22:42Z</time>
      </trkpt>
      <trkpt lat="44.48939" lon="6.51818">
        <ele>2046.8</ele>
        <time>2014-09-14T08:22:49Z</time>
      </trkpt>
      <trkpt lat="44.48899" lon="6.51798">
        <ele>2045.3</ele>
        <time>2014-09-14T08:23:04Z</time>
      </trkpt>
      <trkpt lat="44.48866" lon="6.51799">
        <ele>2045.3</ele>
        <time>2014-09-14T08:23:14Z</time>
      </trkpt>
      <trkpt lat="44.48837" lon="6.51795">
        <ele>2045.8</ele>
        <time>2014-09-14T08:23:23Z</time>
      </trkpt>
      <trkpt lat="44.48798" lon="6.51791">
        <ele>2045.8</ele>
        <time>2014-09-14T08:23:35Z</time>
      </trkpt>
      <trkpt lat="44.48761" lon="6.51804">
        <ele>2045.8</ele>
        <time>2014-09-14T08:23:47Z</time>
      </trkpt>
      <trkpt lat="44.48722" lon="6.51794">
        <ele>2045.8</ele>
        <time>2014-09-14T08:23:58Z</time>
      </trkpt>
      <trkpt lat="44.48675" lon="6.51762">
        <ele>2046.8</ele>
        <time>2014-09-14T08:24:13Z</time>
      </trkpt>
      <trkpt lat="44.4865" lon="6.51752">
        <ele>2047.3</ele>
        <time>2014-09-14T08:24:20Z</time>
      </trkpt>
      <trkpt lat="44.48629" lon="6.51756">
        <ele>2045.8</ele>
        <time>2014-09-14T08:24:25Z</time>
      </trkpt>
      <trkpt lat="44.48587" lon="6.51759">
        <ele>2045.8</ele>
        <time>2014-09-14T08:24:36Z</time>
      </trkpt>
      <trkpt lat="44.48569" lon="6.51745">
        <ele>2045.8</ele>
        <time>2014-09-14T08:24:42Z</time>
      </trkpt>
      <trkpt lat="44.48557" lon="6.51741">
        <ele>2045.8</ele>
        <time>2014-09-14T08:24:45Z</time>
      </trkpt>
      <trkpt lat="44.4852" lon="6.51754">
        <ele>2045.8</ele>
        <time>2014-09-14T08:24:55Z</time>
      </trkpt>
      <trkpt lat="44.48478" lon="6.51757">
        <ele>2045.3</ele>
        <time>2014-09-14T08:25:07Z</time>
      </trkpt>
      <trkpt lat="44.48445" lon="6.51729">
        <ele>2045.3</ele>
        <time>2014-09-14T08:25:19Z</time>
      </trkpt>
      <trkpt lat="44.48433" lon="6.51719">
        <ele>2046.8</ele>
        <time>2014-09-14T08:25:24Z</time>
      </trkpt>
      <trkpt lat="44.48413" lon="6.51724">
        <ele>2049.2</ele>
        <time>2014-09-14T08:25:36Z</time>
      </trkpt>
      <trkpt lat="44.48381" lon="6.5173">
        <ele>2050.2</ele>
        <time>2014-09-14T08:25:50Z</time>
      </trkpt>
      <trkpt lat="44.48354" lon="6.51724">
        <ele>2051.1</ele>
        <time>2014-09-14T08:26:00Z</time>
      </trkpt>
      <trkpt lat="44.48328" lon="6.51723">
        <ele>2053</ele>
        <time>2014-09-14T08:26:12Z</time>
      </trkpt>
      <trkpt lat="44.48297" lon="6.51715">
        <ele>2054</ele>
        <time>2014-09-14T08:26:24Z</time>
      </trkpt>
      <trkpt lat="44.48284" lon="6.51714">
        <ele>2054.5</ele>
        <time>2014-09-14T08:26:29Z</time>
      </trkpt>
      <trkpt lat="44.48258" lon="6.51728">
        <ele>2055.9</ele>
        <time>2014-09-14T08:26:41Z</time>
      </trkpt>
      <trkpt lat="44.48251" lon="6.51724">
        <ele>2056.4</ele>
        <time>2014-09-14T08:26:44Z</time>
      </trkpt>
      <trkpt lat="44.48231" lon="6.51705">
        <ele>2058.3</ele>
        <time>2014-09-14T08:26:55Z</time>
      </trkpt>
      <trkpt lat="44.48225" lon="6.51673">
        <ele>2061.2</ele>
        <time>2014-09-14T08:27:11Z</time>
      </trkpt>
      <trkpt lat="44.48208" lon="6.51671">
        <ele>2062.7</ele>
        <time>2014-09-14T08:27:23Z</time>
      </trkpt>
      <trkpt lat="44.48186" lon="6.51684">
        <ele>2065.1</ele>
        <time>2014-09-14T08:27:39Z</time>
      </trkpt>
      <trkpt lat="44.48171" lon="6.51708">
        <ele>2066.5</ele>
        <time>2014-09-14T08:27:53Z</time>
      </trkpt>
      <trkpt lat="44.48154" lon="6.51739">
        <ele>2067.9</ele>
        <time>2014-09-14T08:28:07Z</time>
      </trkpt>
      <trkpt lat="44.48127" lon="6.51752">
        <ele>2068.4</ele>
        <time>2014-09-14T08:28:20Z</time>
      </trkpt>
      <trkpt lat="44.48106" lon="6.51758">
        <ele>2071.3</ele>
        <time>2014-09-14T08:28:32Z</time>
      </trkpt>
      <trkpt lat="44.48085" lon="6.51776">
        <ele>2073.7</ele>
        <time>2014-09-14T08:28:47Z</time>
      </trkpt>
      <trkpt lat="44.48052" lon="6.51792">
        <ele>2076.1</ele>
        <time>2014-09-14T08:29:05Z</time>
      </trkpt>
      <trkpt lat="44.48022" lon="6.51789">
        <ele>2078</ele>
        <time>2014-09-14T08:29:22Z</time>
      </trkpt>
      <trkpt lat="44.48" lon="6.51777">
        <ele>2079</ele>
        <time>2014-09-14T08:29:37Z</time>
      </trkpt>
      <trkpt lat="44.47985" lon="6.5177">
        <ele>2080.4</ele>
        <time>2014-09-14T08:29:52Z</time>
      </trkpt>
      <trkpt lat="44.47984" lon="6.51768">
        <ele>2080.9</ele>
        <time>2014-09-14T08:30:08Z</time>
      </trkpt>
      <trkpt lat="44.47985" lon="6.51769">
        <ele>2080.9</ele>
        <time>2014-09-14T08:30:26Z</time>
      </trkpt>
      <trkpt lat="44.47985" lon="6.5177">
        <ele>2081.4</ele>
        <time>2014-09-14T08:30:32Z</time>
      </trkpt>
      <trkpt lat="44.4799" lon="6.51768">
        <ele>2081.4</ele>
        <time>2014-09-14T08:30:37Z</time>
      </trkpt>
      <trkpt lat="44.48" lon="6.51763">
        <ele>2082.4</ele>
        <time>2014-09-14T08:30:49Z</time>
      </trkpt>
      <trkpt lat="44.48011" lon="6.51758">
        <ele>2083.3</ele>
        <time>2014-09-14T08:31:02Z</time>
      </trkpt>
      <trkpt lat="44.48015" lon="6.51754">
        <ele>2084.3</ele>
        <time>2014-09-14T08:31:09Z</time>
      </trkpt>
      <trkpt lat="44.48023" lon="6.51742">
        <ele>2086.7</ele>
        <time>2014-09-14T08:31:24Z</time>
      </trkpt>
      <trkpt lat="44.48028" lon="6.51726">
        <ele>2088.1</ele>
        <time>2014-09-14T08:31:40Z</time>
      </trkpt>
      <trkpt lat="44.48027" lon="6.51715">
        <ele>2089.6</ele>
        <time>2014-09-14T08:31:51Z</time>
      </trkpt>
      <trkpt lat="44.48021" lon="6.51707">
        <ele>2091.5</ele>
        <time>2014-09-14T08:32:06Z</time>
      </trkpt>
      <trkpt lat="44.48021" lon="6.51697">
        <ele>2092.9</ele>
        <time>2014-09-14T08:32:18Z</time>
      </trkpt>
      <trkpt lat="44.48018" lon="6.51689">
        <ele>2094.4</ele>
        <time>2014-09-14T08:32:31Z</time>
      </trkpt>
      <trkpt lat="44.48016" lon="6.51679">
        <ele>2095.8</ele>
        <time>2014-09-14T08:32:44Z</time>
      </trkpt>
      <trkpt lat="44.48011" lon="6.51673">
        <ele>2097.7</ele>
        <time>2014-09-14T08:32:56Z</time>
      </trkpt>
      <trkpt lat="44.48008" lon="6.51665">
        <ele>2099.7</ele>
        <time>2014-09-14T08:33:08Z</time>
      </trkpt>
      <trkpt lat="44.48004" lon="6.5166">
        <ele>2101.1</ele>
        <time>2014-09-14T08:33:20Z</time>
      </trkpt>
      <trkpt lat="44.48001" lon="6.51654">
        <ele>2103</ele>
        <time>2014-09-14T08:33:34Z</time>
      </trkpt>
      <trkpt lat="44.47997" lon="6.51647">
        <ele>2104.9</ele>
        <time>2014-09-14T08:33:47Z</time>
      </trkpt>
      <trkpt lat="44.48" lon="6.51641">
        <ele>2106.4</ele>
        <time>2014-09-14T08:33:58Z</time>
      </trkpt>
      <trkpt lat="44.47999" lon="6.51635">
        <ele>2108.3</ele>
        <time>2014-09-14T08:34:11Z</time>
      </trkpt>
      <trkpt lat="44.47999" lon="6.51632">
        <ele>2109.3</ele>
        <time>2014-09-14T08:34:21Z</time>
      </trkpt>
      <trkpt lat="44.48" lon="6.51626">
        <ele>2111.7</ele>
        <time>2014-09-14T08:34:34Z</time>
      </trkpt>
      <trkpt lat="44.47997" lon="6.51623">
        <ele>2112.6</ele>
        <time>2014-09-14T08:34:46Z</time>
      </trkpt>
      <trkpt lat="44.47994" lon="6.51619">
        <ele>2115</ele>
        <time>2014-09-14T08:35:00Z</time>
      </trkpt>
      <trkpt lat="44.47991" lon="6.51615">
        <ele>2116.5</ele>
        <time>2014-09-14T08:35:11Z</time>
      </trkpt>
      <trkpt lat="44.47991" lon="6.51608">
        <ele>2117.9</ele>
        <time>2014-09-14T08:35:24Z</time>
      </trkpt>
      <trkpt lat="44.47987" lon="6.51602">
        <ele>2119.8</ele>
        <time>2014-09-14T08:35:37Z</time>
      </trkpt>
      <trkpt lat="44.47982" lon="6.51596">
        <ele>2121.8</ele>
        <time>2014-09-14T08:35:50Z</time>
      </trkpt>
      <trkpt lat="44.47984" lon="6.51592">
        <ele>2122.7</ele>
        <time>2014-09-14T08:36:02Z</time>
      </trkpt>
      <trkpt lat="44.47988" lon="6.51589">
        <ele>2124.2</ele>
        <time>2014-09-14T08:36:13Z</time>
      </trkpt>
      <trkpt lat="44.47994" lon="6.51586">
        <ele>2126.1</ele>
        <time>2014-09-14T08:36:26Z</time>
      </trkpt>
      <trkpt lat="44.48001" lon="6.51582">
        <ele>2127.5</ele>
        <time>2014-09-14T08:36:40Z</time>
      </trkpt>
      <trkpt lat="44.48006" lon="6.51579">
        <ele>2129.5</ele>
        <time>2014-09-14T08:36:53Z</time>
      </trkpt>
      <trkpt lat="44.48012" lon="6.51576">
        <ele>2130.9</ele>
        <time>2014-09-14T08:37:07Z</time>
      </trkpt>
      <trkpt lat="44.48019" lon="6.51571">
        <ele>2132.8</ele>
        <time>2014-09-14T08:37:22Z</time>
      </trkpt>
      <trkpt lat="44.48024" lon="6.51567">
        <ele>2134.7</ele>
        <time>2014-09-14T08:37:35Z</time>
      </trkpt>
      <trkpt lat="44.48026" lon="6.51563">
        <ele>2135.7</ele>
        <time>2014-09-14T08:37:47Z</time>
      </trkpt>
      <trkpt lat="44.48027" lon="6.5156">
        <ele>2137.6</ele>
        <time>2014-09-14T08:38:00Z</time>
      </trkpt>
      <trkpt lat="44.48031" lon="6.51557">
        <ele>2139.1</ele>
        <time>2014-09-14T08:38:11Z</time>
      </trkpt>
      <trkpt lat="44.48033" lon="6.51554">
        <ele>2140</ele>
        <time>2014-09-14T08:38:21Z</time>
      </trkpt>
      <trkpt lat="44.48037" lon="6.5155">
        <ele>2142</ele>
        <time>2014-09-14T08:38:33Z</time>
      </trkpt>
      <trkpt lat="44.48041" lon="6.51543">
        <ele>2142.9</ele>
        <time>2014-09-14T08:38:46Z</time>
      </trkpt>
      <trkpt lat="44.48046" lon="6.51535">
        <ele>2143.9</ele>
        <time>2014-09-14T08:38:58Z</time>
      </trkpt>
      <trkpt lat="44.48048" lon="6.51531">
        <ele>2144.8</ele>
        <time>2014-09-14T08:39:10Z</time>
      </trkpt>
      <trkpt lat="44.48048" lon="6.51528">
        <ele>2145.8</ele>
        <time>2014-09-14T08:39:20Z</time>
      </trkpt>
      <trkpt lat="44.48051" lon="6.5153">
        <ele>2147.7</ele>
        <time>2014-09-14T08:39:32Z</time>
      </trkpt>
      <trkpt lat="44.48053" lon="6.51528">
        <ele>2149.2</ele>
        <time>2014-09-14T08:39:41Z</time>
      </trkpt>
      <trkpt lat="44.48058" lon="6.5153">
        <ele>2151.1</ele>
        <time>2014-09-14T08:39:55Z</time>
      </trkpt>
      <trkpt lat="44.48061" lon="6.51523">
        <ele>2153</ele>
        <time>2014-09-14T08:40:09Z</time>
      </trkpt>
      <trkpt lat="44.48062" lon="6.5152">
        <ele>2154</ele>
        <time>2014-09-14T08:40:20Z</time>
      </trkpt>
      <trkpt lat="44.48057" lon="6.51521">
        <ele>2154</ele>
        <time>2014-09-14T08:40:40Z</time>
      </trkpt>
      <trkpt lat="44.48057" lon="6.51522">
        <ele>2154</ele>
        <time>2014-09-14T08:41:01Z</time>
      </trkpt>
      <trkpt lat="44.48064" lon="6.5152">
        <ele>2154</ele>
        <time>2014-09-14T08:41:20Z</time>
      </trkpt>
      <trkpt lat="44.48065" lon="6.51516">
        <ele>2155.4</ele>
        <time>2014-09-14T08:41:31Z</time>
      </trkpt>
      <trkpt lat="44.48067" lon="6.51511">
        <ele>2156.4</ele>
        <time>2014-09-14T08:41:43Z</time>
      </trkpt>
      <trkpt lat="44.48062" lon="6.51504">
        <ele>2158.3</ele>
        <time>2014-09-14T08:41:56Z</time>
      </trkpt>
      <trkpt lat="44.48065" lon="6.51499">
        <ele>2159.3</ele>
        <time>2014-09-14T08:42:08Z</time>
      </trkpt>
      <trkpt lat="44.48074" lon="6.51495">
        <ele>2161.7</ele>
        <time>2014-09-14T08:42:22Z</time>
      </trkpt>
      <trkpt lat="44.48076" lon="6.51493">
        <ele>2162.6</ele>
        <time>2014-09-14T08:42:33Z</time>
      </trkpt>
      <trkpt lat="44.4808" lon="6.51494">
        <ele>2163.6</ele>
        <time>2014-09-14T08:42:47Z</time>
      </trkpt>
      <trkpt lat="44.48079" lon="6.5149">
        <ele>2164.1</ele>
        <time>2014-09-14T08:43:01Z</time>
      </trkpt>
      <trkpt lat="44.48078" lon="6.51481">
        <ele>2166.5</ele>
        <time>2014-09-14T08:43:15Z</time>
      </trkpt>
      <trkpt lat="44.48078" lon="6.51481">
        <ele>2166.5</ele>
        <time>2014-09-14T08:43:17Z</time>
      </trkpt>
      <trkpt lat="44.48084" lon="6.51477">
        <ele>2168.4</ele>
        <time>2014-09-14T08:43:30Z</time>
      </trkpt>
      <trkpt lat="44.4809" lon="6.51479">
        <ele>2169.8</ele>
        <time>2014-09-14T08:43:41Z</time>
      </trkpt>
      <trkpt lat="44.48093" lon="6.5148">
        <ele>2170.8</ele>
        <time>2014-09-14T08:43:54Z</time>
      </trkpt>
      <trkpt lat="44.48095" lon="6.51475">
        <ele>2171.8</ele>
        <time>2014-09-14T08:44:07Z</time>
      </trkpt>
      <trkpt lat="44.48091" lon="6.51466">
        <ele>2173.2</ele>
        <time>2014-09-14T08:44:20Z</time>
      </trkpt>
      <trkpt lat="44.48089" lon="6.51459">
        <ele>2174.6</ele>
        <time>2014-09-14T08:44:29Z</time>
      </trkpt>
      <trkpt lat="44.48091" lon="6.51447">
        <ele>2175.1</ele>
        <time>2014-09-14T08:44:43Z</time>
      </trkpt>
      <trkpt lat="44.48086" lon="6.51437">
        <ele>2176.1</ele>
        <time>2014-09-14T08:44:56Z</time>
      </trkpt>
      <trkpt lat="44.48081" lon="6.51429">
        <ele>2178</ele>
        <time>2014-09-14T08:45:09Z</time>
      </trkpt>
      <trkpt lat="44.48073" lon="6.51416">
        <ele>2179.5</ele>
        <time>2014-09-14T08:45:25Z</time>
      </trkpt>
      <trkpt lat="44.48068" lon="6.51404">
        <ele>2180.9</ele>
        <time>2014-09-14T08:45:38Z</time>
      </trkpt>
      <trkpt lat="44.48069" lon="6.51395">
        <ele>2182.3</ele>
        <time>2014-09-14T08:45:51Z</time>
      </trkpt>
      <trkpt lat="44.48065" lon="6.51384">
        <ele>2184.3</ele>
        <time>2014-09-14T08:46:07Z</time>
      </trkpt>
      <trkpt lat="44.48058" lon="6.51376">
        <ele>2185.7</ele>
        <time>2014-09-14T08:46:22Z</time>
      </trkpt>
      <trkpt lat="44.48058" lon="6.51374">
        <ele>2187.1</ele>
        <time>2014-09-14T08:46:33Z</time>
      </trkpt>
      <trkpt lat="44.48057" lon="6.51376">
        <ele>2187.6</ele>
        <time>2014-09-14T08:46:45Z</time>
      </trkpt>
      <trkpt lat="44.48059" lon="6.51376">
        <ele>2187.6</ele>
        <time>2014-09-14T08:47:12Z</time>
      </trkpt>
      <trkpt lat="44.48059" lon="6.51374">
        <ele>2187.6</ele>
        <time>2014-09-14T08:47:34Z</time>
      </trkpt>
      <trkpt lat="44.48059" lon="6.51371">
        <ele>2188.1</ele>
        <time>2014-09-14T08:47:48Z</time>
      </trkpt>
      <trkpt lat="44.48056" lon="6.51363">
        <ele>2190</ele>
        <time>2014-09-14T08:48:00Z</time>
      </trkpt>
      <trkpt lat="44.4806" lon="6.51357">
        <ele>2191.9</ele>
        <time>2014-09-14T08:48:12Z</time>
      </trkpt>
      <trkpt lat="44.48065" lon="6.51353">
        <ele>2194.4</ele>
        <time>2014-09-14T08:48:25Z</time>
      </trkpt>
      <trkpt lat="44.48072" lon="6.51352">
        <ele>2196.3</ele>
        <time>2014-09-14T08:48:38Z</time>
      </trkpt>
      <trkpt lat="44.48073" lon="6.51346">
        <ele>2198.2</ele>
        <time>2014-09-14T08:48:51Z</time>
      </trkpt>
      <trkpt lat="44.48076" lon="6.51341">
        <ele>2200.1</ele>
        <time>2014-09-14T08:49:05Z</time>
      </trkpt>
      <trkpt lat="44.48082" lon="6.5134">
        <ele>2202.5</ele>
        <time>2014-09-14T08:49:20Z</time>
      </trkpt>
      <trkpt lat="44.48087" lon="6.51336">
        <ele>2204</ele>
        <time>2014-09-14T08:49:34Z</time>
      </trkpt>
      <trkpt lat="44.48087" lon="6.51328">
        <ele>2205.9</ele>
        <time>2014-09-14T08:49:48Z</time>
      </trkpt>
      <trkpt lat="44.48088" lon="6.51322">
        <ele>2207.8</ele>
        <time>2014-09-14T08:50:01Z</time>
      </trkpt>
      <trkpt lat="44.48086" lon="6.51311">
        <ele>2208.3</ele>
        <time>2014-09-14T08:50:15Z</time>
      </trkpt>
      <trkpt lat="44.48082" lon="6.51297">
        <ele>2210.2</ele>
        <time>2014-09-14T08:50:32Z</time>
      </trkpt>
      <trkpt lat="44.4808" lon="6.51286">
        <ele>2211.7</ele>
        <time>2014-09-14T08:50:47Z</time>
      </trkpt>
      <trkpt lat="44.48082" lon="6.51285">
        <ele>2211.7</ele>
        <time>2014-09-14T08:50:58Z</time>
      </trkpt>
      <trkpt lat="44.48084" lon="6.51285">
        <ele>2212.1</ele>
        <time>2014-09-14T08:51:24Z</time>
      </trkpt>
      <trkpt lat="44.48083" lon="6.51286">
        <ele>2212.6</ele>
        <time>2014-09-14T08:51:51Z</time>
      </trkpt>
      <trkpt lat="44.48083" lon="6.51284">
        <ele>2212.6</ele>
        <time>2014-09-14T08:52:14Z</time>
      </trkpt>
      <trkpt lat="44.48073" lon="6.51272">
        <ele>2214.1</ele>
        <time>2014-09-14T08:52:28Z</time>
      </trkpt>
      <trkpt lat="44.48066" lon="6.51262">
        <ele>2216.5</ele>
        <time>2014-09-14T08:52:42Z</time>
      </trkpt>
      <trkpt lat="44.48058" lon="6.51252">
        <ele>2218.9</ele>
        <time>2014-09-14T08:53:00Z</time>
      </trkpt>
      <trkpt lat="44.48054" lon="6.51242">
        <ele>2220.8</ele>
        <time>2014-09-14T08:53:15Z</time>
      </trkpt>
      <trkpt lat="44.48051" lon="6.51232">
        <ele>2223.7</ele>
        <time>2014-09-14T08:53:31Z</time>
      </trkpt>
      <trkpt lat="44.48049" lon="6.51225">
        <ele>2225.6</ele>
        <time>2014-09-14T08:53:44Z</time>
      </trkpt>
      <trkpt lat="44.48047" lon="6.51217">
        <ele>2227.5</ele>
        <time>2014-09-14T08:53:59Z</time>
      </trkpt>
      <trkpt lat="44.48043" lon="6.51207">
        <ele>2229.4</ele>
        <time>2014-09-14T08:54:13Z</time>
      </trkpt>
      <trkpt lat="44.48038" lon="6.51205">
        <ele>2230.9</ele>
        <time>2014-09-14T08:54:26Z</time>
      </trkpt>
      <trkpt lat="44.48041" lon="6.51203">
        <ele>2232.3</ele>
        <time>2014-09-14T08:54:40Z</time>
      </trkpt>
      <trkpt lat="44.48048" lon="6.51199">
        <ele>2233.8</ele>
        <time>2014-09-14T08:54:53Z</time>
      </trkpt>
      <trkpt lat="44.48054" lon="6.51194">
        <ele>2236.2</ele>
        <time>2014-09-14T08:55:08Z</time>
      </trkpt>
      <trkpt lat="44.48061" lon="6.51194">
        <ele>2237.1</ele>
        <time>2014-09-14T08:55:21Z</time>
      </trkpt>
      <trkpt lat="44.48062" lon="6.51186">
        <ele>2238.6</ele>
        <time>2014-09-14T08:55:35Z</time>
      </trkpt>
      <trkpt lat="44.48068" lon="6.51182">
        <ele>2241</ele>
        <time>2014-09-14T08:55:49Z</time>
      </trkpt>
      <trkpt lat="44.48072" lon="6.51176">
        <ele>2242.4</ele>
        <time>2014-09-14T08:56:01Z</time>
      </trkpt>
      <trkpt lat="44.48075" lon="6.51171">
        <ele>2244.3</ele>
        <time>2014-09-14T08:56:16Z</time>
      </trkpt>
      <trkpt lat="44.48079" lon="6.51168">
        <ele>2246.7</ele>
        <time>2014-09-14T08:56:29Z</time>
      </trkpt>
      <trkpt lat="44.48082" lon="6.51166">
        <ele>2247.7</ele>
        <time>2014-09-14T08:56:40Z</time>
      </trkpt>
      <trkpt lat="44.48088" lon="6.51161">
        <ele>2249.6</ele>
        <time>2014-09-14T08:56:54Z</time>
      </trkpt>
      <trkpt lat="44.48091" lon="6.51152">
        <ele>2252</ele>
        <time>2014-09-14T08:57:11Z</time>
      </trkpt>
      <trkpt lat="44.4809" lon="6.51148">
        <ele>2252.5</ele>
        <time>2014-09-14T08:57:26Z</time>
      </trkpt>
      <trkpt lat="44.48089" lon="6.51146">
        <ele>2254.4</ele>
        <time>2014-09-14T08:57:41Z</time>
      </trkpt>
      <trkpt lat="44.48088" lon="6.51144">
        <ele>2255.4</ele>
        <time>2014-09-14T08:57:53Z</time>
      </trkpt>
      <trkpt lat="44.48088" lon="6.51138">
        <ele>2256.4</ele>
        <time>2014-09-14T08:58:08Z</time>
      </trkpt>
      <trkpt lat="44.48091" lon="6.51129">
        <ele>2257.8</ele>
        <time>2014-09-14T08:58:21Z</time>
      </trkpt>
      <trkpt lat="44.48092" lon="6.51126">
        <ele>2259.2</ele>
        <time>2014-09-14T08:58:35Z</time>
      </trkpt>
      <trkpt lat="44.48089" lon="6.51127">
        <ele>2260.7</ele>
        <time>2014-09-14T08:58:46Z</time>
      </trkpt>
      <trkpt lat="44.48091" lon="6.51122">
        <ele>2261.6</ele>
        <time>2014-09-14T08:58:56Z</time>
      </trkpt>
      <trkpt lat="44.4809" lon="6.51118">
        <ele>2264</ele>
        <time>2014-09-14T08:59:09Z</time>
      </trkpt>
      <trkpt lat="44.4809" lon="6.51113">
        <ele>2266</ele>
        <time>2014-09-14T08:59:21Z</time>
      </trkpt>
      <trkpt lat="44.48086" lon="6.51112">
        <ele>2267.9</ele>
        <time>2014-09-14T08:59:34Z</time>
      </trkpt>
      <trkpt lat="44.48081" lon="6.51116">
        <ele>2269.3</ele>
        <time>2014-09-14T08:59:47Z</time>
      </trkpt>
      <trkpt lat="44.4808" lon="6.51111">
        <ele>2271.7</ele>
        <time>2014-09-14T09:00:00Z</time>
      </trkpt>
      <trkpt lat="44.48079" lon="6.5111">
        <ele>2272.2</ele>
        <time>2014-09-14T09:00:11Z</time>
      </trkpt>
      <trkpt lat="44.4808" lon="6.51102">
        <ele>2273.7</ele>
        <time>2014-09-14T09:00:26Z</time>
      </trkpt>
      <trkpt lat="44.48081" lon="6.51092">
        <ele>2276.5</ele>
        <time>2014-09-14T09:00:42Z</time>
      </trkpt>
      <trkpt lat="44.48081" lon="6.51087">
        <ele>2278</ele>
        <time>2014-09-14T09:00:54Z</time>
      </trkpt>
      <trkpt lat="44.48082" lon="6.51082">
        <ele>2279.9</ele>
        <time>2014-09-14T09:01:06Z</time>
      </trkpt>
      <trkpt lat="44.48083" lon="6.51077">
        <ele>2281.8</ele>
        <time>2014-09-14T09:01:20Z</time>
      </trkpt>
      <trkpt lat="44.48085" lon="6.51071">
        <ele>2284.2</ele>
        <time>2014-09-14T09:01:34Z</time>
      </trkpt>
      <trkpt lat="44.48088" lon="6.51064">
        <ele>2286.2</ele>
        <time>2014-09-14T09:01:48Z</time>
      </trkpt>
      <trkpt lat="44.48089" lon="6.51062">
        <ele>2287.1</ele>
        <time>2014-09-14T09:01:59Z</time>
      </trkpt>
      <trkpt lat="44.48088" lon="6.51065">
        <ele>2287.1</ele>
        <time>2014-09-14T09:02:21Z</time>
      </trkpt>
      <trkpt lat="44.4809" lon="6.51067">
        <ele>2287.1</ele>
        <time>2014-09-14T09:02:38Z</time>
      </trkpt>
      <trkpt lat="44.48093" lon="6.51063">
        <ele>2287.6</ele>
        <time>2014-09-14T09:02:49Z</time>
      </trkpt>
      <trkpt lat="44.48095" lon="6.51061">
        <ele>2289</ele>
        <time>2014-09-14T09:03:01Z</time>
      </trkpt>
      <trkpt lat="44.48099" lon="6.51052">
        <ele>2291</ele>
        <time>2014-09-14T09:03:15Z</time>
      </trkpt>
      <trkpt lat="44.48103" lon="6.51043">
        <ele>2293.4</ele>
        <time>2014-09-14T09:03:30Z</time>
      </trkpt>
      <trkpt lat="44.48106" lon="6.5104">
        <ele>2295.3</ele>
        <time>2014-09-14T09:03:42Z</time>
      </trkpt>
      <trkpt lat="44.48108" lon="6.51032">
        <ele>2296.7</ele>
        <time>2014-09-14T09:03:57Z</time>
      </trkpt>
      <trkpt lat="44.48111" lon="6.51026">
        <ele>2299.1</ele>
        <time>2014-09-14T09:04:13Z</time>
      </trkpt>
      <trkpt lat="44.48112" lon="6.51022">
        <ele>2300.6</ele>
        <time>2014-09-14T09:04:29Z</time>
      </trkpt>
      <trkpt lat="44.48115" lon="6.51014">
        <ele>2302.5</ele>
        <time>2014-09-14T09:04:45Z</time>
      </trkpt>
      <trkpt lat="44.4812" lon="6.51009">
        <ele>2304.9</ele>
        <time>2014-09-14T09:05:02Z</time>
      </trkpt>
      <trkpt lat="44.48121" lon="6.51003">
        <ele>2306.8</ele>
        <time>2014-09-14T09:05:16Z</time>
      </trkpt>
      <trkpt lat="44.48121" lon="6.51002">
        <ele>2307.3</ele>
        <time>2014-09-14T09:05:26Z</time>
      </trkpt>
      <trkpt lat="44.48121" lon="6.50996">
        <ele>2309.2</ele>
        <time>2014-09-14T09:05:39Z</time>
      </trkpt>
      <trkpt lat="44.48124" lon="6.50992">
        <ele>2310.7</ele>
        <time>2014-09-14T09:05:56Z</time>
      </trkpt>
      <trkpt lat="44.48126" lon="6.50988">
        <ele>2312.6</ele>
        <time>2014-09-14T09:06:10Z</time>
      </trkpt>
      <trkpt lat="44.48127" lon="6.50982">
        <ele>2315</ele>
        <time>2014-09-14T09:06:23Z</time>
      </trkpt>
      <trkpt lat="44.48129" lon="6.50974">
        <ele>2316.9</ele>
        <time>2014-09-14T09:06:37Z</time>
      </trkpt>
      <trkpt lat="44.48132" lon="6.50965">
        <ele>2318.4</ele>
        <time>2014-09-14T09:06:49Z</time>
      </trkpt>
      <trkpt lat="44.48136" lon="6.50956">
        <ele>2320.3</ele>
        <time>2014-09-14T09:07:03Z</time>
      </trkpt>
      <trkpt lat="44.4814" lon="6.50949">
        <ele>2322.2</ele>
        <time>2014-09-14T09:07:16Z</time>
      </trkpt>
      <trkpt lat="44.48144" lon="6.50941">
        <ele>2323.6</ele>
        <time>2014-09-14T09:07:30Z</time>
      </trkpt>
      <trkpt lat="44.4815" lon="6.50932">
        <ele>2326.1</ele>
        <time>2014-09-14T09:07:46Z</time>
      </trkpt>
      <trkpt lat="44.48154" lon="6.50925">
        <ele>2327</ele>
        <time>2014-09-14T09:07:58Z</time>
      </trkpt>
      <trkpt lat="44.48154" lon="6.50924">
        <ele>2327.5</ele>
        <time>2014-09-14T09:08:03Z</time>
      </trkpt>
      <trkpt lat="44.48153" lon="6.50925">
        <ele>2327.5</ele>
        <time>2014-09-14T09:08:16Z</time>
      </trkpt>
      <trkpt lat="44.48153" lon="6.50926">
        <ele>2326.5</ele>
        <time>2014-09-14T09:08:30Z</time>
      </trkpt>
      <trkpt lat="44.48156" lon="6.50928">
        <ele>2326.5</ele>
        <time>2014-09-14T09:09:06Z</time>
      </trkpt>
      <trkpt lat="44.48155" lon="6.50928">
        <ele>2327</ele>
        <time>2014-09-14T09:09:21Z</time>
      </trkpt>
      <trkpt lat="44.48155" lon="6.50928">
        <ele>2327</ele>
        <time>2014-09-14T09:09:31Z</time>
      </trkpt>
      <trkpt lat="44.48173" lon="6.5094">
        <ele>2329.9</ele>
        <time>2014-09-14T09:09:46Z</time>
      </trkpt>
      <trkpt lat="44.48194" lon="6.5094">
        <ele>2330.4</ele>
        <time>2014-09-14T09:09:58Z</time>
      </trkpt>
      <trkpt lat="44.48209" lon="6.50937">
        <ele>2328.9</ele>
        <time>2014-09-14T09:10:03Z</time>
      </trkpt>
      <trkpt lat="44.4824" lon="6.50927">
        <ele>2328</ele>
        <time>2014-09-14T09:10:15Z</time>
      </trkpt>
      <trkpt lat="44.48263" lon="6.50917">
        <ele>2326.1</ele>
        <time>2014-09-14T09:10:27Z</time>
      </trkpt>
      <trkpt lat="44.48269" lon="6.50912">
        <ele>2326.1</ele>
        <time>2014-09-14T09:10:31Z</time>
      </trkpt>
      <trkpt lat="44.4827" lon="6.50908">
        <ele>2325.6</ele>
        <time>2014-09-14T09:10:33Z</time>
      </trkpt>
      <trkpt lat="44.48294" lon="6.50892">
        <ele>2324.1</ele>
        <time>2014-09-14T09:10:44Z</time>
      </trkpt>
      <trkpt lat="44.48324" lon="6.50875">
        <ele>2322.2</ele>
        <time>2014-09-14T09:10:58Z</time>
      </trkpt>
      <trkpt lat="44.48336" lon="6.50865">
        <ele>2320.8</ele>
        <time>2014-09-14T09:11:02Z</time>
      </trkpt>
      <trkpt lat="44.4834" lon="6.50855">
        <ele>2321.2</ele>
        <time>2014-09-14T09:11:15Z</time>
      </trkpt>
      <trkpt lat="44.48338" lon="6.5086">
        <ele>2321.2</ele>
        <time>2014-09-14T09:11:35Z</time>
      </trkpt>
      <trkpt lat="44.48338" lon="6.50863">
        <ele>2320.3</ele>
        <time>2014-09-14T09:11:49Z</time>
      </trkpt>
      <trkpt lat="44.48338" lon="6.50861">
        <ele>2320.8</ele>
        <time>2014-09-14T09:12:19Z</time>
      </trkpt>
      <trkpt lat="44.48338" lon="6.5086">
        <ele>2320.8</ele>
        <time>2014-09-14T09:12:53Z</time>
      </trkpt>
      <trkpt lat="44.48339" lon="6.5086">
        <ele>2320.3</ele>
        <time>2014-09-14T09:13:32Z</time>
      </trkpt>
      <trkpt lat="44.48338" lon="6.50861">
        <ele>2320.3</ele>
        <time>2014-09-14T09:14:14Z</time>
      </trkpt>
      <trkpt lat="44.48338" lon="6.50861">
        <ele>2320.3</ele>
        <time>2014-09-14T09:15:04Z</time>
      </trkpt>
      <trkpt lat="44.48336" lon="6.5086">
        <ele>2320.3</ele>
        <time>2014-09-14T09:15:56Z</time>
      </trkpt>
      <trkpt lat="44.48336" lon="6.50861">
        <ele>2320.3</ele>
        <time>2014-09-14T09:16:34Z</time>
      </trkpt>
      <trkpt lat="44.48337" lon="6.50859">
        <ele>2320.3</ele>
        <time>2014-09-14T09:17:14Z</time>
      </trkpt>
      <trkpt lat="44.48339" lon="6.50859">
        <ele>2320.3</ele>
        <time>2014-09-14T09:17:59Z</time>
      </trkpt>
      <trkpt lat="44.48337" lon="6.5086">
        <ele>2319.8</ele>
        <time>2014-09-14T09:18:38Z</time>
      </trkpt>
      <trkpt lat="44.48338" lon="6.50862">
        <ele>2319.8</ele>
        <time>2014-09-14T09:19:20Z</time>
      </trkpt>
      <trkpt lat="44.48337" lon="6.50861">
        <ele>2320.3</ele>
        <time>2014-09-14T09:19:55Z</time>
      </trkpt>
      <trkpt lat="44.48338" lon="6.50861">
        <ele>2319.8</ele>
        <time>2014-09-14T09:20:41Z</time>
      </trkpt>
      <trkpt lat="44.48337" lon="6.50862">
        <ele>2319.8</ele>
        <time>2014-09-14T09:21:19Z</time>
      </trkpt>
      <trkpt lat="44.4834" lon="6.5086">
        <ele>2319.8</ele>
        <time>2014-09-14T09:22:05Z</time>
      </trkpt>
      <trkpt lat="44.48339" lon="6.50862">
        <ele>2320.3</ele>
        <time>2014-09-14T09:22:42Z</time>
      </trkpt>
      <trkpt lat="44.48338" lon="6.50862">
        <ele>2320.3</ele>
        <time>2014-09-14T09:23:01Z</time>
      </trkpt>
      <trkpt lat="44.48342" lon="6.50853">
        <ele>2320.3</ele>
        <time>2014-09-14T09:23:13Z</time>
      </trkpt>
      <trkpt lat="44.48341" lon="6.50852">
        <ele>2320.3</ele>
        <time>2014-09-14T09:23:24Z</time>
      </trkpt>
      <trkpt lat="44.48341" lon="6.50851">
        <ele>2320.3</ele>
        <time>2014-09-14T09:24:06Z</time>
      </trkpt>
      <trkpt lat="44.48342" lon="6.5085">
        <ele>2320.3</ele>
        <time>2014-09-14T09:24:22Z</time>
      </trkpt>
      <trkpt lat="44.48349" lon="6.50847">
        <ele>2320.3</ele>
        <time>2014-09-14T09:24:27Z</time>
      </trkpt>
      <trkpt lat="44.48357" lon="6.50839">
        <ele>2317.9</ele>
        <time>2014-09-14T09:24:32Z</time>
      </trkpt>
      <trkpt lat="44.48375" lon="6.50824">
        <ele>2316.9</ele>
        <time>2014-09-14T09:24:39Z</time>
      </trkpt>
      <trkpt lat="44.48391" lon="6.50818">
        <ele>2316.4</ele>
        <time>2014-09-14T09:24:47Z</time>
      </trkpt>
      <trkpt lat="44.48422" lon="6.50802">
        <ele>2313.6</ele>
        <time>2014-09-14T09:24:57Z</time>
      </trkpt>
      <trkpt lat="44.48429" lon="6.50799">
        <ele>2313.6</ele>
        <time>2014-09-14T09:25:07Z</time>
      </trkpt>
      <trkpt lat="44.4843" lon="6.50803">
        <ele>2312.6</ele>
        <time>2014-09-14T09:25:24Z</time>
      </trkpt>
      <trkpt lat="44.48431" lon="6.50801">
        <ele>2312.6</ele>
        <time>2014-09-14T09:25:55Z</time>
      </trkpt>
      <trkpt lat="44.48433" lon="6.50798">
        <ele>2313.1</ele>
        <time>2014-09-14T09:26:08Z</time>
      </trkpt>
      <trkpt lat="44.48438" lon="6.50797">
        <ele>2314</ele>
        <time>2014-09-14T09:26:11Z</time>
      </trkpt>
      <trkpt lat="44.48454" lon="6.50785">
        <ele>2312.6</ele>
        <time>2014-09-14T09:26:20Z</time>
      </trkpt>
      <trkpt lat="44.4846" lon="6.50769">
        <ele>2310.2</ele>
        <time>2014-09-14T09:26:24Z</time>
      </trkpt>
      <trkpt lat="44.48469" lon="6.50757">
        <ele>2308.7</ele>
        <time>2014-09-14T09:26:28Z</time>
      </trkpt>
      <trkpt lat="44.48478" lon="6.50744">
        <ele>2304.4</ele>
        <time>2014-09-14T09:26:34Z</time>
      </trkpt>
      <trkpt lat="44.48487" lon="6.50737">
        <ele>2301.5</ele>
        <time>2014-09-14T09:26:37Z</time>
      </trkpt>
      <trkpt lat="44.48492" lon="6.50732">
        <ele>2299.6</ele>
        <time>2014-09-14T09:26:39Z</time>
      </trkpt>
      <trkpt lat="44.48494" lon="6.50729">
        <ele>2298.7</ele>
        <time>2014-09-14T09:26:40Z</time>
      </trkpt>
      <trkpt lat="44.48508" lon="6.50715">
        <ele>2296.3</ele>
        <time>2014-09-14T09:26:45Z</time>
      </trkpt>
      <trkpt lat="44.48509" lon="6.50712">
        <ele>2294.8</ele>
        <time>2014-09-14T09:26:47Z</time>
      </trkpt>
      <trkpt lat="44.48508" lon="6.50705">
        <ele>2293.8</ele>
        <time>2014-09-14T09:26:50Z</time>
      </trkpt>
      <trkpt lat="44.48508" lon="6.50703">
        <ele>2292.9</ele>
        <time>2014-09-14T09:26:51Z</time>
      </trkpt>
      <trkpt lat="44.48517" lon="6.50698">
        <ele>2291</ele>
        <time>2014-09-14T09:26:56Z</time>
      </trkpt>
      <trkpt lat="44.48519" lon="6.5069">
        <ele>2289.5</ele>
        <time>2014-09-14T09:26:59Z</time>
      </trkpt>
      <trkpt lat="44.48522" lon="6.50687">
        <ele>2289</ele>
        <time>2014-09-14T09:27:06Z</time>
      </trkpt>
      <trkpt lat="44.48535" lon="6.50677">
        <ele>2287.6</ele>
        <time>2014-09-14T09:27:13Z</time>
      </trkpt>
      <trkpt lat="44.48538" lon="6.50668">
        <ele>2286.6</ele>
        <time>2014-09-14T09:27:27Z</time>
      </trkpt>
      <trkpt lat="44.48542" lon="6.50672">
        <ele>2286.6</ele>
        <time>2014-09-14T09:28:04Z</time>
      </trkpt>
      <trkpt lat="44.48543" lon="6.50671">
        <ele>2286.6</ele>
        <time>2014-09-14T09:28:36Z</time>
      </trkpt>
      <trkpt lat="44.48543" lon="6.50667">
        <ele>2286.6</ele>
        <time>2014-09-14T09:29:15Z</time>
      </trkpt>
      <trkpt lat="44.48543" lon="6.50667">
        <ele>2287.1</ele>
        <time>2014-09-14T09:29:21Z</time>
      </trkpt>
      <trkpt lat="44.48562" lon="6.50655">
        <ele>2283.3</ele>
        <time>2014-09-14T09:29:30Z</time>
      </trkpt>
      <trkpt lat="44.48572" lon="6.50644">
        <ele>2279.4</ele>
        <time>2014-09-14T09:29:35Z</time>
      </trkpt>
      <trkpt lat="44.48577" lon="6.5064">
        <ele>2278.5</ele>
        <time>2014-09-14T09:29:37Z</time>
      </trkpt>
      <trkpt lat="44.48588" lon="6.50613">
        <ele>2275.1</ele>
        <time>2014-09-14T09:29:45Z</time>
      </trkpt>
      <trkpt lat="44.48589" lon="6.50611">
        <ele>2274.1</ele>
        <time>2014-09-14T09:29:46Z</time>
      </trkpt>
      <trkpt lat="44.48578" lon="6.5061">
        <ele>2271.3</ele>
        <time>2014-09-14T09:29:52Z</time>
      </trkpt>
      <trkpt lat="44.48564" lon="6.50617">
        <ele>2267.4</ele>
        <time>2014-09-14T09:29:57Z</time>
      </trkpt>
      <trkpt lat="44.48552" lon="6.50618">
        <ele>2266</ele>
        <time>2014-09-14T09:30:02Z</time>
      </trkpt>
      <trkpt lat="44.48553" lon="6.50614">
        <ele>2264.5</ele>
        <time>2014-09-14T09:30:05Z</time>
      </trkpt>
      <trkpt lat="44.48555" lon="6.50611">
        <ele>2263.6</ele>
        <time>2014-09-14T09:30:07Z</time>
      </trkpt>
      <trkpt lat="44.4856" lon="6.50605">
        <ele>2262.1</ele>
        <time>2014-09-14T09:30:09Z</time>
      </trkpt>
      <trkpt lat="44.48564" lon="6.50598">
        <ele>2260.7</ele>
        <time>2014-09-14T09:30:11Z</time>
      </trkpt>
      <trkpt lat="44.48582" lon="6.50579">
        <ele>2258.3</ele>
        <time>2014-09-14T09:30:17Z</time>
      </trkpt>
      <trkpt lat="44.48601" lon="6.50566">
        <ele>2255.4</ele>
        <time>2014-09-14T09:30:22Z</time>
      </trkpt>
      <trkpt lat="44.48614" lon="6.50559">
        <ele>2252.5</ele>
        <time>2014-09-14T09:30:25Z</time>
      </trkpt>
      <trkpt lat="44.48627" lon="6.50555">
        <ele>2248.7</ele>
        <time>2014-09-14T09:30:29Z</time>
      </trkpt>
      <trkpt lat="44.48635" lon="6.50554">
        <ele>2248.2</ele>
        <time>2014-09-14T09:30:31Z</time>
      </trkpt>
      <trkpt lat="44.48637" lon="6.50552">
        <ele>2247.2</ele>
        <time>2014-09-14T09:30:33Z</time>
      </trkpt>
      <trkpt lat="44.48628" lon="6.50541">
        <ele>2243.4</ele>
        <time>2014-09-14T09:30:39Z</time>
      </trkpt>
      <trkpt lat="44.48619" lon="6.50533">
        <ele>2240.5</ele>
        <time>2014-09-14T09:30:42Z</time>
      </trkpt>
      <trkpt lat="44.48616" lon="6.50531">
        <ele>2239.1</ele>
        <time>2014-09-14T09:30:43Z</time>
      </trkpt>
      <trkpt lat="44.48614" lon="6.50528">
        <ele>2235.7</ele>
        <time>2014-09-14T09:30:49Z</time>
      </trkpt>
      <trkpt lat="44.48617" lon="6.50523">
        <ele>2233.8</ele>
        <time>2014-09-14T09:30:51Z</time>
      </trkpt>
      <trkpt lat="44.4862" lon="6.50522">
        <ele>2233.3</ele>
        <time>2014-09-14T09:30:52Z</time>
      </trkpt>
      <trkpt lat="44.48634" lon="6.50525">
        <ele>2231.8</ele>
        <time>2014-09-14T09:30:57Z</time>
      </trkpt>
      <trkpt lat="44.48639" lon="6.50523">
        <ele>2231.4</ele>
        <time>2014-09-14T09:30:59Z</time>
      </trkpt>
      <trkpt lat="44.48653" lon="6.50509">
        <ele>2230.4</ele>
        <time>2014-09-14T09:31:03Z</time>
      </trkpt>
      <trkpt lat="44.48658" lon="6.50512">
        <ele>2229.4</ele>
        <time>2014-09-14T09:31:05Z</time>
      </trkpt>
      <trkpt lat="44.48671" lon="6.50505">
        <ele>2228</ele>
        <time>2014-09-14T09:31:09Z</time>
      </trkpt>
      <trkpt lat="44.48684" lon="6.505">
        <ele>2226.6</ele>
        <time>2014-09-14T09:31:11Z</time>
      </trkpt>
      <trkpt lat="44.48711" lon="6.50487">
        <ele>2223.2</ele>
        <time>2014-09-14T09:31:18Z</time>
      </trkpt>
      <trkpt lat="44.48735" lon="6.50469">
        <ele>2221.7</ele>
        <time>2014-09-14T09:31:26Z</time>
      </trkpt>
      <trkpt lat="44.48751" lon="6.50437">
        <ele>2218.9</ele>
        <time>2014-09-14T09:31:36Z</time>
      </trkpt>
      <trkpt lat="44.48778" lon="6.50413">
        <ele>2216</ele>
        <time>2014-09-14T09:31:44Z</time>
      </trkpt>
      <trkpt lat="44.48802" lon="6.50387">
        <ele>2215</ele>
        <time>2014-09-14T09:31:48Z</time>
      </trkpt>
      <trkpt lat="44.4882" lon="6.50361">
        <ele>2212.1</ele>
        <time>2014-09-14T09:31:54Z</time>
      </trkpt>
      <trkpt lat="44.48828" lon="6.5035">
        <ele>2210.7</ele>
        <time>2014-09-14T09:31:59Z</time>
      </trkpt>
      <trkpt lat="44.48832" lon="6.5033">
        <ele>2209.7</ele>
        <time>2014-09-14T09:32:03Z</time>
      </trkpt>
      <trkpt lat="44.48839" lon="6.50287">
        <ele>2206.4</ele>
        <time>2014-09-14T09:32:14Z</time>
      </trkpt>
      <trkpt lat="44.48849" lon="6.50258">
        <ele>2203.5</ele>
        <time>2014-09-14T09:32:21Z</time>
      </trkpt>
      <trkpt lat="44.48861" lon="6.50227">
        <ele>2201.1</ele>
        <time>2014-09-14T09:32:26Z</time>
      </trkpt>
      <trkpt lat="44.48869" lon="6.50212">
        <ele>2200.1</ele>
        <time>2014-09-14T09:32:29Z</time>
      </trkpt>
      <trkpt lat="44.48874" lon="6.50203">
        <ele>2198.7</ele>
        <time>2014-09-14T09:32:31Z</time>
      </trkpt>
      <trkpt lat="44.48876" lon="6.50199">
        <ele>2198.2</ele>
        <time>2014-09-14T09:32:32Z</time>
      </trkpt>
      <trkpt lat="44.48881" lon="6.50186">
        <ele>2196.3</ele>
        <time>2014-09-14T09:32:35Z</time>
      </trkpt>
      <trkpt lat="44.4889" lon="6.50169">
        <ele>2194.8</ele>
        <time>2014-09-14T09:32:37Z</time>
      </trkpt>
      <trkpt lat="44.48905" lon="6.50146">
        <ele>2192.9</ele>
        <time>2014-09-14T09:32:43Z</time>
      </trkpt>
      <trkpt lat="44.48913" lon="6.50138">
        <ele>2191.9</ele>
        <time>2014-09-14T09:32:46Z</time>
      </trkpt>
      <trkpt lat="44.4892" lon="6.50125">
        <ele>2191.5</ele>
        <time>2014-09-14T09:32:59Z</time>
      </trkpt>
      <trkpt lat="44.48926" lon="6.50093">
        <ele>2188.6</ele>
        <time>2014-09-14T09:33:10Z</time>
      </trkpt>
      <trkpt lat="44.48937" lon="6.50074">
        <ele>2185.7</ele>
        <time>2014-09-14T09:33:20Z</time>
      </trkpt>
      <trkpt lat="44.48947" lon="6.50058">
        <ele>2183.8</ele>
        <time>2014-09-14T09:33:35Z</time>
      </trkpt>
      <trkpt lat="44.48956" lon="6.50044">
        <ele>2180.9</ele>
        <time>2014-09-14T09:33:39Z</time>
      </trkpt>
      <trkpt lat="44.48971" lon="6.50031">
        <ele>2178</ele>
        <time>2014-09-14T09:33:44Z</time>
      </trkpt>
      <trkpt lat="44.4898" lon="6.50024">
        <ele>2175.6</ele>
        <time>2014-09-14T09:33:47Z</time>
      </trkpt>
      <trkpt lat="44.48993" lon="6.50004">
        <ele>2171.3</ele>
        <time>2014-09-14T09:33:53Z</time>
      </trkpt>
      <trkpt lat="44.49002" lon="6.49985">
        <ele>2169.4</ele>
        <time>2014-09-14T09:33:57Z</time>
      </trkpt>
      <trkpt lat="44.49019" lon="6.49985">
        <ele>2165</ele>
        <time>2014-09-14T09:34:05Z</time>
      </trkpt>
      <trkpt lat="44.49024" lon="6.4999">
        <ele>2164.6</ele>
        <time>2014-09-14T09:34:09Z</time>
      </trkpt>
      <trkpt lat="44.49029" lon="6.49994">
        <ele>2164.1</ele>
        <time>2014-09-14T09:34:13Z</time>
      </trkpt>
      <trkpt lat="44.49029" lon="6.49973">
        <ele>2160.2</ele>
        <time>2014-09-14T09:34:20Z</time>
      </trkpt>
      <trkpt lat="44.49021" lon="6.49953">
        <ele>2157.3</ele>
        <time>2014-09-14T09:34:25Z</time>
      </trkpt>
      <trkpt lat="44.49019" lon="6.49949">
        <ele>2157.3</ele>
        <time>2014-09-14T09:34:26Z</time>
      </trkpt>
      <trkpt lat="44.49008" lon="6.49941">
        <ele>2154</ele>
        <time>2014-09-14T09:34:30Z</time>
      </trkpt>
      <trkpt lat="44.48991" lon="6.49954">
        <ele>2150.6</ele>
        <time>2014-09-14T09:34:36Z</time>
      </trkpt>
      <trkpt lat="44.48976" lon="6.49967">
        <ele>2147.2</ele>
        <time>2014-09-14T09:34:40Z</time>
      </trkpt>
      <trkpt lat="44.48965" lon="6.49969">
        <ele>2145.8</ele>
        <time>2014-09-14T09:34:43Z</time>
      </trkpt>
      <trkpt lat="44.48952" lon="6.4997">
        <ele>2142.9</ele>
        <time>2014-09-14T09:34:47Z</time>
      </trkpt>
      <trkpt lat="44.48944" lon="6.49973">
        <ele>2141.5</ele>
        <time>2014-09-14T09:34:50Z</time>
      </trkpt>
      <trkpt lat="44.4893" lon="6.49975">
        <ele>2140</ele>
        <time>2014-09-14T09:34:54Z</time>
      </trkpt>
      <trkpt lat="44.48927" lon="6.49974">
        <ele>2138.6</ele>
        <time>2014-09-14T09:34:56Z</time>
      </trkpt>
      <trkpt lat="44.48919" lon="6.49979">
        <ele>2136.2</ele>
        <time>2014-09-14T09:34:59Z</time>
      </trkpt>
      <trkpt lat="44.48914" lon="6.49984">
        <ele>2135.7</ele>
        <time>2014-09-14T09:35:01Z</time>
      </trkpt>
      <trkpt lat="44.48911" lon="6.49985">
        <ele>2134.7</ele>
        <time>2014-09-14T09:35:02Z</time>
      </trkpt>
      <trkpt lat="44.48895" lon="6.49993">
        <ele>2132.3</ele>
        <time>2014-09-14T09:35:07Z</time>
      </trkpt>
      <trkpt lat="44.48889" lon="6.49992">
        <ele>2130.4</ele>
        <time>2014-09-14T09:35:09Z</time>
      </trkpt>
      <trkpt lat="44.48887" lon="6.49993">
        <ele>2129.5</ele>
        <time>2014-09-14T09:35:10Z</time>
      </trkpt>
      <trkpt lat="44.48858" lon="6.50018">
        <ele>2127.1</ele>
        <time>2014-09-14T09:35:18Z</time>
      </trkpt>
      <trkpt lat="44.48846" lon="6.50024">
        <ele>2125.1</ele>
        <time>2014-09-14T09:35:22Z</time>
      </trkpt>
      <trkpt lat="44.48855" lon="6.5001">
        <ele>2122.3</ele>
        <time>2014-09-14T09:35:28Z</time>
      </trkpt>
      <trkpt lat="44.48862" lon="6.5">
        <ele>2121.3</ele>
        <time>2014-09-14T09:35:31Z</time>
      </trkpt>
      <trkpt lat="44.48863" lon="6.49997">
        <ele>2120.3</ele>
        <time>2014-09-14T09:35:32Z</time>
      </trkpt>
      <trkpt lat="44.48865" lon="6.49992">
        <ele>2119.8</ele>
        <time>2014-09-14T09:35:34Z</time>
      </trkpt>
      <trkpt lat="44.48866" lon="6.49989">
        <ele>2118.9</ele>
        <time>2014-09-14T09:35:35Z</time>
      </trkpt>
      <trkpt lat="44.48859" lon="6.49955">
        <ele>2115</ele>
        <time>2014-09-14T09:35:42Z</time>
      </trkpt>
      <trkpt lat="44.48865" lon="6.49928">
        <ele>2112.2</ele>
        <time>2014-09-14T09:35:48Z</time>
      </trkpt>
      <trkpt lat="44.48876" lon="6.49914">
        <ele>2109.3</ele>
        <time>2014-09-14T09:35:52Z</time>
      </trkpt>
      <trkpt lat="44.48881" lon="6.49895">
        <ele>2105.9</ele>
        <time>2014-09-14T09:35:55Z</time>
      </trkpt>
      <trkpt lat="44.48888" lon="6.49872">
        <ele>2103</ele>
        <time>2014-09-14T09:36:00Z</time>
      </trkpt>
      <trkpt lat="44.48896" lon="6.49862">
        <ele>2102.1</ele>
        <time>2014-09-14T09:36:09Z</time>
      </trkpt>
      <trkpt lat="44.48898" lon="6.4986">
        <ele>2102.1</ele>
        <time>2014-09-14T09:36:18Z</time>
      </trkpt>
      <trkpt lat="44.48889" lon="6.49862">
        <ele>2100.6</ele>
        <time>2014-09-14T09:36:28Z</time>
      </trkpt>
      <trkpt lat="44.48886" lon="6.49861">
        <ele>2100.6</ele>
        <time>2014-09-14T09:37:03Z</time>
      </trkpt>
      <trkpt lat="44.48887" lon="6.49863">
        <ele>2100.6</ele>
        <time>2014-09-14T09:37:39Z</time>
      </trkpt>
      <trkpt lat="44.489" lon="6.49849">
        <ele>2100.6</ele>
        <time>2014-09-14T09:38:11Z</time>
      </trkpt>
      <trkpt lat="44.48897" lon="6.4985">
        <ele>2100.1</ele>
        <time>2014-09-14T09:38:16Z</time>
      </trkpt>
      <trkpt lat="44.48894" lon="6.49856">
        <ele>2098.2</ele>
        <time>2014-09-14T09:38:18Z</time>
      </trkpt>
      <trkpt lat="44.48891" lon="6.49862">
        <ele>2096.3</ele>
        <time>2014-09-14T09:38:22Z</time>
      </trkpt>
      <trkpt lat="44.48889" lon="6.49866">
        <ele>2095.8</ele>
        <time>2014-09-14T09:38:23Z</time>
      </trkpt>
      <trkpt lat="44.48876" lon="6.49873">
        <ele>2093.9</ele>
        <time>2014-09-14T09:38:26Z</time>
      </trkpt>
      <trkpt lat="44.48859" lon="6.49885">
        <ele>2090.5</ele>
        <time>2014-09-14T09:38:32Z</time>
      </trkpt>
      <trkpt lat="44.48855" lon="6.49887">
        <ele>2089.6</ele>
        <time>2014-09-14T09:38:33Z</time>
      </trkpt>
      <trkpt lat="44.48841" lon="6.49901">
        <ele>2086.7</ele>
        <time>2014-09-14T09:38:38Z</time>
      </trkpt>
      <trkpt lat="44.48831" lon="6.49914">
        <ele>2083.3</ele>
        <time>2014-09-14T09:38:42Z</time>
      </trkpt>
      <trkpt lat="44.48823" lon="6.49926">
        <ele>2081.9</ele>
        <time>2014-09-14T09:38:45Z</time>
      </trkpt>
      <trkpt lat="44.48806" lon="6.49932">
        <ele>2078.5</ele>
        <time>2014-09-14T09:38:50Z</time>
      </trkpt>
      <trkpt lat="44.48788" lon="6.49952">
        <ele>2075.1</ele>
        <time>2014-09-14T09:38:56Z</time>
      </trkpt>
      <trkpt lat="44.48768" lon="6.49983">
        <ele>2071.8</ele>
        <time>2014-09-14T09:39:03Z</time>
      </trkpt>
      <trkpt lat="44.48759" lon="6.50013">
        <ele>2070.8</ele>
        <time>2014-09-14T09:39:08Z</time>
      </trkpt>
      <trkpt lat="44.48745" lon="6.5002">
        <ele>2068.9</ele>
        <time>2014-09-14T09:39:14Z</time>
      </trkpt>
      <trkpt lat="44.48739" lon="6.50019">
        <ele>2067</ele>
        <time>2014-09-14T09:39:17Z</time>
      </trkpt>
      <trkpt lat="44.48735" lon="6.50013">
        <ele>2063.6</ele>
        <time>2014-09-14T09:39:20Z</time>
      </trkpt>
      <trkpt lat="44.4873" lon="6.50013">
        <ele>2063.1</ele>
        <time>2014-09-14T09:39:22Z</time>
      </trkpt>
      <trkpt lat="44.48715" lon="6.50018">
        <ele>2059.8</ele>
        <time>2014-09-14T09:39:27Z</time>
      </trkpt>
      <trkpt lat="44.48706" lon="6.50016">
        <ele>2058.3</ele>
        <time>2014-09-14T09:39:30Z</time>
      </trkpt>
      <trkpt lat="44.48693" lon="6.50017">
        <ele>2055</ele>
        <time>2014-09-14T09:39:35Z</time>
      </trkpt>
      <trkpt lat="44.48688" lon="6.50018">
        <ele>2054</ele>
        <time>2014-09-14T09:39:37Z</time>
      </trkpt>
      <trkpt lat="44.48673" lon="6.50027">
        <ele>2050.6</ele>
        <time>2014-09-14T09:39:43Z</time>
      </trkpt>
      <trkpt lat="44.48663" lon="6.50034">
        <ele>2047.8</ele>
        <time>2014-09-14T09:39:49Z</time>
      </trkpt>
      <trkpt lat="44.48657" lon="6.50038">
        <ele>2046.8</ele>
        <time>2014-09-14T09:39:54Z</time>
      </trkpt>
      <trkpt lat="44.48642" lon="6.50044">
        <ele>2043.4</ele>
        <time>2014-09-14T09:40:01Z</time>
      </trkpt>
      <trkpt lat="44.48639" lon="6.50047">
        <ele>2042.9</ele>
        <time>2014-09-14T09:40:03Z</time>
      </trkpt>
      <trkpt lat="44.48624" lon="6.50044">
        <ele>2041.5</ele>
        <time>2014-09-14T09:40:08Z</time>
      </trkpt>
      <trkpt lat="44.48606" lon="6.50053">
        <ele>2037.7</ele>
        <time>2014-09-14T09:40:14Z</time>
      </trkpt>
      <trkpt lat="44.48585" lon="6.50057">
        <ele>2034.8</ele>
        <time>2014-09-14T09:40:20Z</time>
      </trkpt>
      <trkpt lat="44.48562" lon="6.50053">
        <ele>2031.4</ele>
        <time>2014-09-14T09:40:28Z</time>
      </trkpt>
      <trkpt lat="44.48543" lon="6.50058">
        <ele>2028</ele>
        <time>2014-09-14T09:40:34Z</time>
      </trkpt>
      <trkpt lat="44.48531" lon="6.50056">
        <ele>2024.7</ele>
        <time>2014-09-14T09:40:39Z</time>
      </trkpt>
      <trkpt lat="44.48518" lon="6.50057">
        <ele>2022.3</ele>
        <time>2014-09-14T09:40:43Z</time>
      </trkpt>
      <trkpt lat="44.48514" lon="6.50058">
        <ele>2021.3</ele>
        <time>2014-09-14T09:40:44Z</time>
      </trkpt>
      <trkpt lat="44.48489" lon="6.50057">
        <ele>2017.9</ele>
        <time>2014-09-14T09:40:51Z</time>
      </trkpt>
      <trkpt lat="44.48468" lon="6.50068">
        <ele>2015.1</ele>
        <time>2014-09-14T09:40:57Z</time>
      </trkpt>
      <trkpt lat="44.4846" lon="6.50073">
        <ele>2014.1</ele>
        <time>2014-09-14T09:41:00Z</time>
      </trkpt>
      <trkpt lat="44.48459" lon="6.50072">
        <ele>2013.6</ele>
        <time>2014-09-14T09:41:01Z</time>
      </trkpt>
      <trkpt lat="44.48459" lon="6.50063">
        <ele>2010.7</ele>
        <time>2014-09-14T09:41:08Z</time>
      </trkpt>
      <trkpt lat="44.48462" lon="6.50052">
        <ele>2007.9</ele>
        <time>2014-09-14T09:41:13Z</time>
      </trkpt>
      <trkpt lat="44.48463" lon="6.50048">
        <ele>2006.4</ele>
        <time>2014-09-14T09:41:15Z</time>
      </trkpt>
      <trkpt lat="44.48464" lon="6.50046">
        <ele>2005.9</ele>
        <time>2014-09-14T09:41:16Z</time>
      </trkpt>
      <trkpt lat="44.48464" lon="6.50041">
        <ele>2004</ele>
        <time>2014-09-14T09:41:21Z</time>
      </trkpt>
      <trkpt lat="44.48463" lon="6.50042">
        <ele>2003.5</ele>
        <time>2014-09-14T09:41:22Z</time>
      </trkpt>
      <trkpt lat="44.4846" lon="6.50042">
        <ele>2003</ele>
        <time>2014-09-14T09:41:24Z</time>
      </trkpt>
      <trkpt lat="44.4846" lon="6.50039">
        <ele>2002.6</ele>
        <time>2014-09-14T09:41:25Z</time>
      </trkpt>
      <trkpt lat="44.4846" lon="6.50029">
        <ele>1998.7</ele>
        <time>2014-09-14T09:41:29Z</time>
      </trkpt>
      <trkpt lat="44.48464" lon="6.50022">
        <ele>1995.8</ele>
        <time>2014-09-14T09:41:34Z</time>
      </trkpt>
      <trkpt lat="44.48468" lon="6.50021">
        <ele>1994.9</ele>
        <time>2014-09-14T09:41:35Z</time>
      </trkpt>
      <trkpt lat="44.48478" lon="6.49998">
        <ele>1991</ele>
        <time>2014-09-14T09:41:43Z</time>
      </trkpt>
      <trkpt lat="44.48478" lon="6.49993">
        <ele>1990.1</ele>
        <time>2014-09-14T09:41:45Z</time>
      </trkpt>
      <trkpt lat="44.48475" lon="6.49976">
        <ele>1986.2</ele>
        <time>2014-09-14T09:41:52Z</time>
      </trkpt>
      <trkpt lat="44.48466" lon="6.49968">
        <ele>1982.9</ele>
        <time>2014-09-14T09:41:57Z</time>
      </trkpt>
      <trkpt lat="44.4846" lon="6.4996">
        <ele>1980</ele>
        <time>2014-09-14T09:42:00Z</time>
      </trkpt>
      <trkpt lat="44.48457" lon="6.49959">
        <ele>1979.5</ele>
        <time>2014-09-14T09:42:01Z</time>
      </trkpt>
      <trkpt lat="44.4845" lon="6.49962">
        <ele>1978.1</ele>
        <time>2014-09-14T09:42:04Z</time>
      </trkpt>
      <trkpt lat="44.48432" lon="6.49979">
        <ele>1977.6</ele>
        <time>2014-09-14T09:42:17Z</time>
      </trkpt>
      <trkpt lat="44.48428" lon="6.49972">
        <ele>1977.6</ele>
        <time>2014-09-14T09:42:29Z</time>
      </trkpt>
      <trkpt lat="44.48427" lon="6.49964">
        <ele>1975.7</ele>
        <time>2014-09-14T09:42:33Z</time>
      </trkpt>
      <trkpt lat="44.48441" lon="6.49946">
        <ele>1972.3</ele>
        <time>2014-09-14T09:42:40Z</time>
      </trkpt>
      <trkpt lat="44.48456" lon="6.49914">
        <ele>1969.4</ele>
        <time>2014-09-14T09:42:47Z</time>
      </trkpt>
      <trkpt lat="44.48459" lon="6.4991">
        <ele>1968.9</ele>
        <time>2014-09-14T09:42:48Z</time>
      </trkpt>
      <trkpt lat="44.48462" lon="6.49904">
        <ele>1968.4</ele>
        <time>2014-09-14T09:42:49Z</time>
      </trkpt>
      <trkpt lat="44.48487" lon="6.499">
        <ele>1964.6</ele>
        <time>2014-09-14T09:42:59Z</time>
      </trkpt>
      <trkpt lat="44.485" lon="6.49896">
        <ele>1963.6</ele>
        <time>2014-09-14T09:43:05Z</time>
      </trkpt>
      <trkpt lat="44.48514" lon="6.49871">
        <ele>1960.3</ele>
        <time>2014-09-14T09:43:14Z</time>
      </trkpt>
      <trkpt lat="44.48533" lon="6.49853">
        <ele>1958.8</ele>
        <time>2014-09-14T09:43:19Z</time>
      </trkpt>
      <trkpt lat="44.48538" lon="6.4984">
        <ele>1955.5</ele>
        <time>2014-09-14T09:43:28Z</time>
      </trkpt>
      <trkpt lat="44.48545" lon="6.49825">
        <ele>1953.5</ele>
        <time>2014-09-14T09:43:39Z</time>
      </trkpt>
      <trkpt lat="44.48544" lon="6.49831">
        <ele>1953.5</ele>
        <time>2014-09-14T09:43:54Z</time>
      </trkpt>
      <trkpt lat="44.4855" lon="6.49824">
        <ele>1952.6</ele>
        <time>2014-09-14T09:44:03Z</time>
      </trkpt>
      <trkpt lat="44.48567" lon="6.49806">
        <ele>1949.7</ele>
        <time>2014-09-14T09:44:09Z</time>
      </trkpt>
      <trkpt lat="44.48575" lon="6.49793">
        <ele>1949.7</ele>
        <time>2014-09-14T09:44:17Z</time>
      </trkpt>
      <trkpt lat="44.48572" lon="6.4979">
        <ele>1949.2</ele>
        <time>2014-09-14T09:44:28Z</time>
      </trkpt>
      <trkpt lat="44.48572" lon="6.49794">
        <ele>1949.2</ele>
        <time>2014-09-14T09:44:40Z</time>
      </trkpt>
      <trkpt lat="44.48574" lon="6.49789">
        <ele>1949.2</ele>
        <time>2014-09-14T09:44:45Z</time>
      </trkpt>
      <trkpt lat="44.4857" lon="6.49779">
        <ele>1949.2</ele>
        <time>2014-09-14T09:44:51Z</time>
      </trkpt>
      <trkpt lat="44.48564" lon="6.49774">
        <ele>1949.2</ele>
        <time>2014-09-14T09:44:56Z</time>
      </trkpt>
      <trkpt lat="44.48561" lon="6.49769">
        <ele>1949.2</ele>
        <time>2014-09-14T09:45:07Z</time>
      </trkpt>
      <trkpt lat="44.48565" lon="6.49762">
        <ele>1949.2</ele>
        <time>2014-09-14T09:45:38Z</time>
      </trkpt>
      <trkpt lat="44.48562" lon="6.49766">
        <ele>1948.7</ele>
        <time>2014-09-14T09:46:09Z</time>
      </trkpt>
      <trkpt lat="44.48563" lon="6.49761">
        <ele>1948.7</ele>
        <time>2014-09-14T09:46:39Z</time>
      </trkpt>
      <trkpt lat="44.4856" lon="6.49761">
        <ele>1948.7</ele>
        <time>2014-09-14T09:47:13Z</time>
      </trkpt>
      <trkpt lat="44.48557" lon="6.49763">
        <ele>1948.7</ele>
        <time>2014-09-14T09:47:41Z</time>
      </trkpt>
      <trkpt lat="44.4856" lon="6.49764">
        <ele>1948.7</ele>
        <time>2014-09-14T09:48:12Z</time>
      </trkpt>
      <trkpt lat="44.48558" lon="6.49765">
        <ele>1949.2</ele>
        <time>2014-09-14T09:48:42Z</time>
      </trkpt>
      <trkpt lat="44.48556" lon="6.49767">
        <ele>1949.2</ele>
        <time>2014-09-14T09:49:09Z</time>
      </trkpt>
      <trkpt lat="44.48558" lon="6.49765">
        <ele>1949.2</ele>
        <time>2014-09-14T09:49:32Z</time>
      </trkpt>
      <trkpt lat="44.48559" lon="6.49764">
        <ele>1949.2</ele>
        <time>2014-09-14T09:49:58Z</time>
      </trkpt>
      <trkpt lat="44.48562" lon="6.49766">
        <ele>1949.2</ele>
        <time>2014-09-14T09:50:37Z</time>
      </trkpt>
      <trkpt lat="44.48562" lon="6.49767">
        <ele>1949.2</ele>
        <time>2014-09-14T09:51:12Z</time>
      </trkpt>
      <trkpt lat="44.48566" lon="6.49765">
        <ele>1949.2</ele>
        <time>2014-09-14T09:51:57Z</time>
      </trkpt>
      <trkpt lat="44.48562" lon="6.49768">
        <ele>1949.2</ele>
        <time>2014-09-14T09:52:31Z</time>
      </trkpt>
      <trkpt lat="44.4856" lon="6.49763">
        <ele>1949.2</ele>
        <time>2014-09-14T09:53:09Z</time>
      </trkpt>
      <trkpt lat="44.48562" lon="6.49766">
        <ele>1948.7</ele>
        <time>2014-09-14T09:53:44Z</time>
      </trkpt>
      <trkpt lat="44.48561" lon="6.49766">
        <ele>1948.7</ele>
        <time>2014-09-14T09:54:27Z</time>
      </trkpt>
      <trkpt lat="44.48558" lon="6.49764">
        <ele>1948.7</ele>
        <time>2014-09-14T09:55:03Z</time>
      </trkpt>
      <trkpt lat="44.4856" lon="6.49766">
        <ele>1948.7</ele>
        <time>2014-09-14T09:55:36Z</time>
      </trkpt>
      <trkpt lat="44.48562" lon="6.49766">
        <ele>1948.7</ele>
        <time>2014-09-14T09:56:26Z</time>
      </trkpt>
      <trkpt lat="44.48563" lon="6.49765">
        <ele>1948.7</ele>
        <time>2014-09-14T09:57:16Z</time>
      </trkpt>
      <trkpt lat="44.4856" lon="6.49765">
        <ele>1948.7</ele>
        <time>2014-09-14T09:57:52Z</time>
      </trkpt>
      <trkpt lat="44.48561" lon="6.49768">
        <ele>1948.7</ele>
        <time>2014-09-14T09:58:31Z</time>
      </trkpt>
      <trkpt lat="44.48562" lon="6.49768">
        <ele>1948.3</ele>
        <time>2014-09-14T09:58:45Z</time>
      </trkpt>
      <trkpt lat="44.48563" lon="6.4977">
        <ele>1948.3</ele>
        <time>2014-09-14T09:58:48Z</time>
      </trkpt>
      <trkpt lat="44.48566" lon="6.4977">
        <ele>1948.3</ele>
        <time>2014-09-14T09:58:52Z</time>
      </trkpt>
      <trkpt lat="44.48572" lon="6.49765">
        <ele>1948.3</ele>
        <time>2014-09-14T09:59:01Z</time>
      </trkpt>
      <trkpt lat="44.48574" lon="6.49766">
        <ele>1949.7</ele>
        <time>2014-09-14T09:59:03Z</time>
      </trkpt>
      <trkpt lat="44.48601" lon="6.49756">
        <ele>1947.8</ele>
        <time>2014-09-14T09:59:11Z</time>
      </trkpt>
      <trkpt lat="44.48629" lon="6.49748">
        <ele>1946.3</ele>
        <time>2014-09-14T09:59:18Z</time>
      </trkpt>
      <trkpt lat="44.48634" lon="6.49747">
        <ele>1945.9</ele>
        <time>2014-09-14T09:59:19Z</time>
      </trkpt>
      <trkpt lat="44.48646" lon="6.49738">
        <ele>1945.4</ele>
        <time>2014-09-14T09:59:22Z</time>
      </trkpt>
      <trkpt lat="44.48671" lon="6.49687">
        <ele>1943</ele>
        <time>2014-09-14T09:59:30Z</time>
      </trkpt>
      <trkpt lat="44.48687" lon="6.49674">
        <ele>1941.5</ele>
        <time>2014-09-14T09:59:33Z</time>
      </trkpt>
      <trkpt lat="44.4871" lon="6.49642">
        <ele>1940.1</ele>
        <time>2014-09-14T09:59:38Z</time>
      </trkpt>
      <trkpt lat="44.48721" lon="6.49629">
        <ele>1938.6</ele>
        <time>2014-09-14T09:59:40Z</time>
      </trkpt>
      <trkpt lat="44.48736" lon="6.49607">
        <ele>1937.2</ele>
        <time>2014-09-14T09:59:43Z</time>
      </trkpt>
      <trkpt lat="44.48749" lon="6.49583">
        <ele>1936.2</ele>
        <time>2014-09-14T09:59:46Z</time>
      </trkpt>
      <trkpt lat="44.48758" lon="6.49569">
        <ele>1936.2</ele>
        <time>2014-09-14T09:59:48Z</time>
      </trkpt>
      <trkpt lat="44.48774" lon="6.49554">
        <ele>1936.2</ele>
        <time>2014-09-14T09:59:51Z</time>
      </trkpt>
      <trkpt lat="44.48825" lon="6.49529">
        <ele>1936.2</ele>
        <time>2014-09-14T10:00:03Z</time>
      </trkpt>
      <trkpt lat="44.48833" lon="6.49525">
        <ele>1936.2</ele>
        <time>2014-09-14T10:00:05Z</time>
      </trkpt>
      <trkpt lat="44.48842" lon="6.49519">
        <ele>1936.2</ele>
        <time>2014-09-14T10:00:07Z</time>
      </trkpt>
      <trkpt lat="44.48852" lon="6.49514">
        <ele>1935.8</ele>
        <time>2014-09-14T10:00:09Z</time>
      </trkpt>
      <trkpt lat="44.48863" lon="6.4951">
        <ele>1935.3</ele>
        <time>2014-09-14T10:00:11Z</time>
      </trkpt>
      <trkpt lat="44.48882" lon="6.49505">
        <ele>1933.4</ele>
        <time>2014-09-14T10:00:15Z</time>
      </trkpt>
      <trkpt lat="44.48893" lon="6.49503">
        <ele>1931.4</ele>
        <time>2014-09-14T10:00:18Z</time>
      </trkpt>
      <trkpt lat="44.48914" lon="6.49488">
        <ele>1929</ele>
        <time>2014-09-14T10:00:22Z</time>
      </trkpt>
      <trkpt lat="44.4893" lon="6.49473">
        <ele>1928.1</ele>
        <time>2014-09-14T10:00:25Z</time>
      </trkpt>
      <trkpt lat="44.48944" lon="6.49467">
        <ele>1926.1</ele>
        <time>2014-09-14T10:00:28Z</time>
      </trkpt>
      <trkpt lat="44.48975" lon="6.49463">
        <ele>1922.8</ele>
        <time>2014-09-14T10:00:33Z</time>
      </trkpt>
      <trkpt lat="44.49" lon="6.49471">
        <ele>1919.9</ele>
        <time>2014-09-14T10:00:37Z</time>
      </trkpt>
      <trkpt lat="44.49035" lon="6.49467">
        <ele>1916.5</ele>
        <time>2014-09-14T10:00:43Z</time>
      </trkpt>
      <trkpt lat="44.49066" lon="6.49456">
        <ele>1913.6</ele>
        <time>2014-09-14T10:00:48Z</time>
      </trkpt>
      <trkpt lat="44.49093" lon="6.49449">
        <ele>1910.8</ele>
        <time>2014-09-14T10:00:53Z</time>
      </trkpt>
      <trkpt lat="44.49108" lon="6.49441">
        <ele>1909.3</ele>
        <time>2014-09-14T10:00:56Z</time>
      </trkpt>
      <trkpt lat="44.49131" lon="6.49428">
        <ele>1906</ele>
        <time>2014-09-14T10:01:02Z</time>
      </trkpt>
      <trkpt lat="44.4916" lon="6.49434">
        <ele>1903.6</ele>
        <time>2014-09-14T10:01:12Z</time>
      </trkpt>
      <trkpt lat="44.49189" lon="6.49456">
        <ele>1899.7</ele>
        <time>2014-09-14T10:01:19Z</time>
      </trkpt>
      <trkpt lat="44.49195" lon="6.4946">
        <ele>1899.2</ele>
        <time>2014-09-14T10:01:20Z</time>
      </trkpt>
      <trkpt lat="44.49224" lon="6.49476">
        <ele>1897.3</ele>
        <time>2014-09-14T10:01:25Z</time>
      </trkpt>
      <trkpt lat="44.49237" lon="6.49477">
        <ele>1896.8</ele>
        <time>2014-09-14T10:01:27Z</time>
      </trkpt>
      <trkpt lat="44.49244" lon="6.49475">
        <ele>1896.8</ele>
        <time>2014-09-14T10:01:28Z</time>
      </trkpt>
      <trkpt lat="44.49262" lon="6.49463">
        <ele>1895.9</ele>
        <time>2014-09-14T10:01:33Z</time>
      </trkpt>
      <trkpt lat="44.49262" lon="6.4946">
        <ele>1895.9</ele>
        <time>2014-09-14T10:01:34Z</time>
      </trkpt>
      <trkpt lat="44.49264" lon="6.49452">
        <ele>1895.4</ele>
        <time>2014-09-14T10:01:47Z</time>
      </trkpt>
      <trkpt lat="44.49263" lon="6.49458">
        <ele>1895.4</ele>
        <time>2014-09-14T10:02:18Z</time>
      </trkpt>
      <trkpt lat="44.49264" lon="6.49455">
        <ele>1895.4</ele>
        <time>2014-09-14T10:02:47Z</time>
      </trkpt>
      <trkpt lat="44.49266" lon="6.49452">
        <ele>1896.8</ele>
        <time>2014-09-14T10:03:13Z</time>
      </trkpt>
      <trkpt lat="44.49268" lon="6.49451">
        <ele>1896.8</ele>
        <time>2014-09-14T10:03:16Z</time>
      </trkpt>
      <trkpt lat="44.49269" lon="6.49451">
        <ele>1896.8</ele>
        <time>2014-09-14T10:03:17Z</time>
      </trkpt>
      <trkpt lat="44.49282" lon="6.49464">
        <ele>1895.4</ele>
        <time>2014-09-14T10:03:23Z</time>
      </trkpt>
      <trkpt lat="44.49292" lon="6.49476">
        <ele>1893.5</ele>
        <time>2014-09-14T10:03:26Z</time>
      </trkpt>
      <trkpt lat="44.49299" lon="6.49473">
        <ele>1893</ele>
        <time>2014-09-14T10:03:28Z</time>
      </trkpt>
      <trkpt lat="44.49303" lon="6.49469">
        <ele>1892.5</ele>
        <time>2014-09-14T10:03:29Z</time>
      </trkpt>
      <trkpt lat="44.4931" lon="6.49459">
        <ele>1891.5</ele>
        <time>2014-09-14T10:03:31Z</time>
      </trkpt>
      <trkpt lat="44.49317" lon="6.49452">
        <ele>1891.1</ele>
        <time>2014-09-14T10:03:33Z</time>
      </trkpt>
      <trkpt lat="44.49326" lon="6.49449">
        <ele>1889.6</ele>
        <time>2014-09-14T10:03:35Z</time>
      </trkpt>
      <trkpt lat="44.49338" lon="6.49441">
        <ele>1888.7</ele>
        <time>2014-09-14T10:03:38Z</time>
      </trkpt>
      <trkpt lat="44.49347" lon="6.49428">
        <ele>1887.2</ele>
        <time>2014-09-14T10:03:41Z</time>
      </trkpt>
      <trkpt lat="44.49351" lon="6.49426">
        <ele>1886.2</ele>
        <time>2014-09-14T10:03:42Z</time>
      </trkpt>
      <trkpt lat="44.49355" lon="6.49424">
        <ele>1886.2</ele>
        <time>2014-09-14T10:03:43Z</time>
      </trkpt>
      <trkpt lat="44.49382" lon="6.49435">
        <ele>1883.4</ele>
        <time>2014-09-14T10:03:49Z</time>
      </trkpt>
      <trkpt lat="44.49392" lon="6.49437">
        <ele>1881.9</ele>
        <time>2014-09-14T10:03:51Z</time>
      </trkpt>
      <trkpt lat="44.49412" lon="6.49433">
        <ele>1879.5</ele>
        <time>2014-09-14T10:03:55Z</time>
      </trkpt>
      <trkpt lat="44.49422" lon="6.49429">
        <ele>1879</ele>
        <time>2014-09-14T10:03:57Z</time>
      </trkpt>
      <trkpt lat="44.49439" lon="6.49418">
        <ele>1877.1</ele>
        <time>2014-09-14T10:04:01Z</time>
      </trkpt>
      <trkpt lat="44.49449" lon="6.49409">
        <ele>1875.7</ele>
        <time>2014-09-14T10:04:04Z</time>
      </trkpt>
      <trkpt lat="44.49468" lon="6.49382">
        <ele>1873.3</ele>
        <time>2014-09-14T10:04:08Z</time>
      </trkpt>
      <trkpt lat="44.49476" lon="6.49355">
        <ele>1871.3</ele>
        <time>2014-09-14T10:04:12Z</time>
      </trkpt>
      <trkpt lat="44.49481" lon="6.49335">
        <ele>1869.9</ele>
        <time>2014-09-14T10:04:15Z</time>
      </trkpt>
      <trkpt lat="44.4948" lon="6.4931">
        <ele>1866.1</ele>
        <time>2014-09-14T10:04:22Z</time>
      </trkpt>
      <trkpt lat="44.49467" lon="6.49325">
        <ele>1864.1</ele>
        <time>2014-09-14T10:04:26Z</time>
      </trkpt>
      <trkpt lat="44.49459" lon="6.49344">
        <ele>1862.7</ele>
        <time>2014-09-14T10:04:31Z</time>
      </trkpt>
      <trkpt lat="44.49452" lon="6.49343">
        <ele>1861.7</ele>
        <time>2014-09-14T10:04:35Z</time>
      </trkpt>
      <trkpt lat="44.49454" lon="6.49314">
        <ele>1859.3</ele>
        <time>2014-09-14T10:04:42Z</time>
      </trkpt>
      <trkpt lat="44.4947" lon="6.4929">
        <ele>1856</ele>
        <time>2014-09-14T10:04:48Z</time>
      </trkpt>
      <trkpt lat="44.49485" lon="6.49273">
        <ele>1854</ele>
        <time>2014-09-14T10:04:55Z</time>
      </trkpt>
      <trkpt lat="44.49465" lon="6.49263">
        <ele>1851.2</ele>
        <time>2014-09-14T10:05:06Z</time>
      </trkpt>
      <trkpt lat="44.49461" lon="6.49263">
        <ele>1851.2</ele>
        <time>2014-09-14T10:05:07Z</time>
      </trkpt>
      <trkpt lat="44.49447" lon="6.49269">
        <ele>1848.8</ele>
        <time>2014-09-14T10:05:10Z</time>
      </trkpt>
      <trkpt lat="44.49437" lon="6.49256">
        <ele>1846.4</ele>
        <time>2014-09-14T10:05:16Z</time>
      </trkpt>
      <trkpt lat="44.49447" lon="6.4923">
        <ele>1844.4</ele>
        <time>2014-09-14T10:05:21Z</time>
      </trkpt>
      <trkpt lat="44.49466" lon="6.4922">
        <ele>1842.5</ele>
        <time>2014-09-14T10:05:25Z</time>
      </trkpt>
      <trkpt lat="44.49477" lon="6.49223">
        <ele>1841.1</ele>
        <time>2014-09-14T10:05:27Z</time>
      </trkpt>
      <trkpt lat="44.4951" lon="6.49247">
        <ele>1838.7</ele>
        <time>2014-09-14T10:05:33Z</time>
      </trkpt>
      <trkpt lat="44.49524" lon="6.49262">
        <ele>1838.2</ele>
        <time>2014-09-14T10:05:36Z</time>
      </trkpt>
      <trkpt lat="44.49534" lon="6.4927">
        <ele>1836.7</ele>
        <time>2014-09-14T10:05:38Z</time>
      </trkpt>
      <trkpt lat="44.4954" lon="6.4927">
        <ele>1836.7</ele>
        <time>2014-09-14T10:05:39Z</time>
      </trkpt>
      <trkpt lat="44.49554" lon="6.49257">
        <ele>1836.7</ele>
        <time>2014-09-14T10:05:42Z</time>
      </trkpt>
      <trkpt lat="44.49557" lon="6.49249">
        <ele>1836.7</ele>
        <time>2014-09-14T10:05:52Z</time>
      </trkpt>
      <trkpt lat="44.49556" lon="6.4925">
        <ele>1835.8</ele>
        <time>2014-09-14T10:06:14Z</time>
      </trkpt>
      <trkpt lat="44.49559" lon="6.49248">
        <ele>1836.3</ele>
        <time>2014-09-14T10:06:48Z</time>
      </trkpt>
      <trkpt lat="44.49557" lon="6.4925">
        <ele>1836.3</ele>
        <time>2014-09-14T10:07:19Z</time>
      </trkpt>
      <trkpt lat="44.49555" lon="6.49253">
        <ele>1837.2</ele>
        <time>2014-09-14T10:07:25Z</time>
      </trkpt>
      <trkpt lat="44.49555" lon="6.49253">
        <ele>1837.2</ele>
        <time>2014-09-14T10:07:29Z</time>
      </trkpt>
      <trkpt lat="44.4953" lon="6.4926">
        <ele>1837.2</ele>
        <time>2014-09-14T10:07:40Z</time>
      </trkpt>
      <trkpt lat="44.49506" lon="6.49234">
        <ele>1840.1</ele>
        <time>2014-09-14T10:07:51Z</time>
      </trkpt>
      <trkpt lat="44.49502" lon="6.49229">
        <ele>1840.1</ele>
        <time>2014-09-14T10:07:54Z</time>
      </trkpt>
      <trkpt lat="44.49499" lon="6.49214">
        <ele>1840.1</ele>
        <time>2014-09-14T10:08:02Z</time>
      </trkpt>
      <trkpt lat="44.49495" lon="6.49211">
        <ele>1837.2</ele>
        <time>2014-09-14T10:08:16Z</time>
      </trkpt>
      <trkpt lat="44.49493" lon="6.49207">
        <ele>1836.7</ele>
        <time>2014-09-14T10:08:23Z</time>
      </trkpt>
      <trkpt lat="44.49488" lon="6.49198">
        <ele>1832.9</ele>
        <time>2014-09-14T10:08:29Z</time>
      </trkpt>
      <trkpt lat="44.49489" lon="6.49193">
        <ele>1830.5</ele>
        <time>2014-09-14T10:08:33Z</time>
      </trkpt>
      <trkpt lat="44.49481" lon="6.49178">
        <ele>1826.6</ele>
        <time>2014-09-14T10:08:38Z</time>
      </trkpt>
      <trkpt lat="44.49481" lon="6.49162">
        <ele>1824.7</ele>
        <time>2014-09-14T10:08:42Z</time>
      </trkpt>
      <trkpt lat="44.4948" lon="6.49136">
        <ele>1821.4</ele>
        <time>2014-09-14T10:08:47Z</time>
      </trkpt>
      <trkpt lat="44.4948" lon="6.49117">
        <ele>1819</ele>
        <time>2014-09-14T10:08:51Z</time>
      </trkpt>
      <trkpt lat="44.49482" lon="6.49104">
        <ele>1816.6</ele>
        <time>2014-09-14T10:08:54Z</time>
      </trkpt>
      <trkpt lat="44.49495" lon="6.49082">
        <ele>1812.2</ele>
        <time>2014-09-14T10:09:02Z</time>
      </trkpt>
      <trkpt lat="44.49513" lon="6.49045">
        <ele>1808.9</ele>
        <time>2014-09-14T10:09:10Z</time>
      </trkpt>
      <trkpt lat="44.49521" lon="6.49037">
        <ele>1807.4</ele>
        <time>2014-09-14T10:09:13Z</time>
      </trkpt>
      <trkpt lat="44.49531" lon="6.49026">
        <ele>1804.1</ele>
        <time>2014-09-14T10:09:19Z</time>
      </trkpt>
      <trkpt lat="44.49537" lon="6.49014">
        <ele>1801.2</ele>
        <time>2014-09-14T10:09:23Z</time>
      </trkpt>
      <trkpt lat="44.49538" lon="6.4901">
        <ele>1800.2</ele>
        <time>2014-09-14T10:09:24Z</time>
      </trkpt>
      <trkpt lat="44.49543" lon="6.49">
        <ele>1796.8</ele>
        <time>2014-09-14T10:09:27Z</time>
      </trkpt>
      <trkpt lat="44.49546" lon="6.48996">
        <ele>1795.4</ele>
        <time>2014-09-14T10:09:29Z</time>
      </trkpt>
      <trkpt lat="44.4955" lon="6.4898">
        <ele>1792</ele>
        <time>2014-09-14T10:09:32Z</time>
      </trkpt>
      <trkpt lat="44.49551" lon="6.4897">
        <ele>1790.1</ele>
        <time>2014-09-14T10:09:41Z</time>
      </trkpt>
      <trkpt lat="44.49551" lon="6.48971">
        <ele>1790.1</ele>
        <time>2014-09-14T10:09:42Z</time>
      </trkpt>
      <trkpt lat="44.49551" lon="6.48972">
        <ele>1791.6</ele>
        <time>2014-09-14T10:09:48Z</time>
      </trkpt>
      <trkpt lat="44.4955" lon="6.4898">
        <ele>1794.4</ele>
        <time>2014-09-14T10:10:06Z</time>
      </trkpt>
      <trkpt lat="44.49548" lon="6.48984">
        <ele>1795.4</ele>
        <time>2014-09-14T10:10:24Z</time>
      </trkpt>
      <trkpt lat="44.49545" lon="6.48989">
        <ele>1797.3</ele>
        <time>2014-09-14T10:10:35Z</time>
      </trkpt>
      <trkpt lat="44.4954" lon="6.48999">
        <ele>1799.7</ele>
        <time>2014-09-14T10:10:51Z</time>
      </trkpt>
      <trkpt lat="44.49536" lon="6.49008">
        <ele>1803.1</ele>
        <time>2014-09-14T10:11:06Z</time>
      </trkpt>
      <trkpt lat="44.49533" lon="6.49014">
        <ele>1805</ele>
        <time>2014-09-14T10:11:19Z</time>
      </trkpt>
      <trkpt lat="44.49528" lon="6.49018">
        <ele>1806.9</ele>
        <time>2014-09-14T10:11:38Z</time>
      </trkpt>
      <trkpt lat="44.49531" lon="6.49024">
        <ele>1807.9</ele>
        <time>2014-09-14T10:11:49Z</time>
      </trkpt>
      <trkpt lat="44.49531" lon="6.49027">
        <ele>1807.9</ele>
        <time>2014-09-14T10:11:55Z</time>
      </trkpt>
      <trkpt lat="44.49547" lon="6.49021">
        <ele>1804.5</ele>
        <time>2014-09-14T10:12:05Z</time>
      </trkpt>
      <trkpt lat="44.49565" lon="6.49016">
        <ele>1800.7</ele>
        <time>2014-09-14T10:12:12Z</time>
      </trkpt>
      <trkpt lat="44.49574" lon="6.49009">
        <ele>1799.2</ele>
        <time>2014-09-14T10:12:23Z</time>
      </trkpt>
      <trkpt lat="44.49577" lon="6.49008">
        <ele>1799.7</ele>
        <time>2014-09-14T10:12:33Z</time>
      </trkpt>
      <trkpt lat="44.49578" lon="6.48997">
        <ele>1798.3</ele>
        <time>2014-09-14T10:12:41Z</time>
      </trkpt>
      <trkpt lat="44.4957" lon="6.48984">
        <ele>1795.9</ele>
        <time>2014-09-14T10:12:53Z</time>
      </trkpt>
      <trkpt lat="44.49567" lon="6.48979">
        <ele>1794</ele>
        <time>2014-09-14T10:13:02Z</time>
      </trkpt>
      <trkpt lat="44.49563" lon="6.48973">
        <ele>1793.5</ele>
        <time>2014-09-14T10:13:10Z</time>
      </trkpt>
      <trkpt lat="44.49558" lon="6.4897">
        <ele>1793</ele>
        <time>2014-09-14T10:13:15Z</time>
      </trkpt>
      <trkpt lat="44.49553" lon="6.48956">
        <ele>1790.1</ele>
        <time>2014-09-14T10:13:20Z</time>
      </trkpt>
      <trkpt lat="44.49553" lon="6.48952">
        <ele>1789.6</ele>
        <time>2014-09-14T10:13:21Z</time>
      </trkpt>
      <trkpt lat="44.49551" lon="6.48936">
        <ele>1785.8</ele>
        <time>2014-09-14T10:13:24Z</time>
      </trkpt>
      <trkpt lat="44.4955" lon="6.48931">
        <ele>1784.8</ele>
        <time>2014-09-14T10:13:25Z</time>
      </trkpt>
      <trkpt lat="44.49549" lon="6.48921">
        <ele>1782.9</ele>
        <time>2014-09-14T10:13:27Z</time>
      </trkpt>
      <trkpt lat="44.49549" lon="6.48908">
        <ele>1780</ele>
        <time>2014-09-14T10:13:30Z</time>
      </trkpt>
      <trkpt lat="44.49554" lon="6.48885">
        <ele>1775.7</ele>
        <time>2014-09-14T10:13:34Z</time>
      </trkpt>
      <trkpt lat="44.49557" lon="6.48863">
        <ele>1772.8</ele>
        <time>2014-09-14T10:13:38Z</time>
      </trkpt>
      <trkpt lat="44.49569" lon="6.48837">
        <ele>1769.4</ele>
        <time>2014-09-14T10:13:44Z</time>
      </trkpt>
      <trkpt lat="44.4957" lon="6.48813">
        <ele>1765.6</ele>
        <time>2014-09-14T10:13:49Z</time>
      </trkpt>
      <trkpt lat="44.49571" lon="6.48805">
        <ele>1764.6</ele>
        <time>2014-09-14T10:13:51Z</time>
      </trkpt>
      <trkpt lat="44.49576" lon="6.48794">
        <ele>1761.8</ele>
        <time>2014-09-14T10:13:54Z</time>
      </trkpt>
      <trkpt lat="44.49577" lon="6.48778">
        <ele>1759.4</ele>
        <time>2014-09-14T10:13:57Z</time>
      </trkpt>
      <trkpt lat="44.49574" lon="6.48752">
        <ele>1756</ele>
        <time>2014-09-14T10:14:02Z</time>
      </trkpt>
      <trkpt lat="44.49562" lon="6.48735">
        <ele>1752.6</ele>
        <time>2014-09-14T10:14:08Z</time>
      </trkpt>
      <trkpt lat="44.49551" lon="6.48714">
        <ele>1749.7</ele>
        <time>2014-09-14T10:14:14Z</time>
      </trkpt>
      <trkpt lat="44.49542" lon="6.48688">
        <ele>1746.4</ele>
        <time>2014-09-14T10:14:19Z</time>
      </trkpt>
      <trkpt lat="44.49541" lon="6.48665">
        <ele>1743.5</ele>
        <time>2014-09-14T10:14:23Z</time>
      </trkpt>
      <trkpt lat="44.49541" lon="6.4866">
        <ele>1743</ele>
        <time>2014-09-14T10:14:24Z</time>
      </trkpt>
      <trkpt lat="44.49538" lon="6.48644">
        <ele>1740.1</ele>
        <time>2014-09-14T10:14:27Z</time>
      </trkpt>
      <trkpt lat="44.49541" lon="6.48615">
        <ele>1736.8</ele>
        <time>2014-09-14T10:14:33Z</time>
      </trkpt>
      <trkpt lat="44.49544" lon="6.48588">
        <ele>1733.9</ele>
        <time>2014-09-14T10:14:38Z</time>
      </trkpt>
      <trkpt lat="44.49538" lon="6.48557">
        <ele>1730.5</ele>
        <time>2014-09-14T10:14:45Z</time>
      </trkpt>
      <trkpt lat="44.49534" lon="6.48546">
        <ele>1728.6</ele>
        <time>2014-09-14T10:14:48Z</time>
      </trkpt>
      <trkpt lat="44.49531" lon="6.48535">
        <ele>1727.2</ele>
        <time>2014-09-14T10:14:49Z</time>
      </trkpt>
      <trkpt lat="44.49524" lon="6.48505">
        <ele>1723.8</ele>
        <time>2014-09-14T10:14:55Z</time>
      </trkpt>
      <trkpt lat="44.49524" lon="6.48501">
        <ele>1723.8</ele>
        <time>2014-09-14T10:14:56Z</time>
      </trkpt>
      <trkpt lat="44.4952" lon="6.48488">
        <ele>1721.9</ele>
        <time>2014-09-14T10:14:59Z</time>
      </trkpt>
      <trkpt lat="44.49523" lon="6.4846">
        <ele>1719.5</ele>
        <time>2014-09-14T10:15:04Z</time>
      </trkpt>
      <trkpt lat="44.4952" lon="6.48433">
        <ele>1716.1</ele>
        <time>2014-09-14T10:15:10Z</time>
      </trkpt>
      <trkpt lat="44.49521" lon="6.48422">
        <ele>1714.7</ele>
        <time>2014-09-14T10:15:12Z</time>
      </trkpt>
      <trkpt lat="44.49509" lon="6.48377">
        <ele>1710.3</ele>
        <time>2014-09-14T10:15:20Z</time>
      </trkpt>
      <trkpt lat="44.49509" lon="6.4837">
        <ele>1709.8</ele>
        <time>2014-09-14T10:15:21Z</time>
      </trkpt>
      <trkpt lat="44.4951" lon="6.48335">
        <ele>1706.5</ele>
        <time>2014-09-14T10:15:27Z</time>
      </trkpt>
      <trkpt lat="44.49509" lon="6.48319">
        <ele>1706</ele>
        <time>2014-09-14T10:15:30Z</time>
      </trkpt>
      <trkpt lat="44.49507" lon="6.48308">
        <ele>1704.6</ele>
        <time>2014-09-14T10:15:32Z</time>
      </trkpt>
      <trkpt lat="44.49501" lon="6.48288">
        <ele>1703.1</ele>
        <time>2014-09-14T10:15:35Z</time>
      </trkpt>
      <trkpt lat="44.49492" lon="6.48266">
        <ele>1701.7</ele>
        <time>2014-09-14T10:15:39Z</time>
      </trkpt>
      <trkpt lat="44.49483" lon="6.48246">
        <ele>1699.8</ele>
        <time>2014-09-14T10:15:43Z</time>
      </trkpt>
      <trkpt lat="44.49473" lon="6.48196">
        <ele>1695.4</ele>
        <time>2014-09-14T10:15:54Z</time>
      </trkpt>
      <trkpt lat="44.49472" lon="6.48193">
        <ele>1695.4</ele>
        <time>2014-09-14T10:16:03Z</time>
      </trkpt>
      <trkpt lat="44.49472" lon="6.48192">
        <ele>1695.4</ele>
        <time>2014-09-14T10:16:06Z</time>
      </trkpt>
      <trkpt lat="44.49474" lon="6.48191">
        <ele>1694.5</ele>
        <time>2014-09-14T10:16:18Z</time>
      </trkpt>
      <trkpt lat="44.49474" lon="6.4819">
        <ele>1694.5</ele>
        <time>2014-09-14T10:16:36Z</time>
      </trkpt>
      <trkpt lat="44.49476" lon="6.48185">
        <ele>1694</ele>
        <time>2014-09-14T10:16:50Z</time>
      </trkpt>
      <trkpt lat="44.49476" lon="6.48184">
        <ele>1694</ele>
        <time>2014-09-14T10:16:51Z</time>
      </trkpt>
      <trkpt lat="44.49476" lon="6.48175">
        <ele>1693.5</ele>
        <time>2014-09-14T10:16:55Z</time>
      </trkpt>
      <trkpt lat="44.49506" lon="6.48105">
        <ele>1690.1</ele>
        <time>2014-09-14T10:17:10Z</time>
      </trkpt>
      <trkpt lat="44.49509" lon="6.481">
        <ele>1690.1</ele>
        <time>2014-09-14T10:17:11Z</time>
      </trkpt>
      <trkpt lat="44.49517" lon="6.4809">
        <ele>1689.2</ele>
        <time>2014-09-14T10:17:13Z</time>
      </trkpt>
      <trkpt lat="44.49528" lon="6.48072">
        <ele>1688.7</ele>
        <time>2014-09-14T10:17:16Z</time>
      </trkpt>
      <trkpt lat="44.49537" lon="6.48055">
        <ele>1687.3</ele>
        <time>2014-09-14T10:17:19Z</time>
      </trkpt>
      <trkpt lat="44.49555" lon="6.48036">
        <ele>1684.9</ele>
        <time>2014-09-14T10:17:23Z</time>
      </trkpt>
      <trkpt lat="44.49574" lon="6.48021">
        <ele>1682.9</ele>
        <time>2014-09-14T10:17:26Z</time>
      </trkpt>
      <trkpt lat="44.49603" lon="6.47996">
        <ele>1679.6</ele>
        <time>2014-09-14T10:17:31Z</time>
      </trkpt>
      <trkpt lat="44.49608" lon="6.47992">
        <ele>1678.6</ele>
        <time>2014-09-14T10:17:32Z</time>
      </trkpt>
      <trkpt lat="44.4964" lon="6.47987">
        <ele>1675.2</ele>
        <time>2014-09-14T10:17:38Z</time>
      </trkpt>
      <trkpt lat="44.49656" lon="6.47994">
        <ele>1672.8</ele>
        <time>2014-09-14T10:17:42Z</time>
      </trkpt>
      <trkpt lat="44.49685" lon="6.48001">
        <ele>1668.5</ele>
        <time>2014-09-14T10:17:47Z</time>
      </trkpt>
      <trkpt lat="44.49712" lon="6.48004">
        <ele>1666.1</ele>
        <time>2014-09-14T10:17:51Z</time>
      </trkpt>
      <trkpt lat="44.49739" lon="6.48006">
        <ele>1663.2</ele>
        <time>2014-09-14T10:17:56Z</time>
      </trkpt>
      <trkpt lat="44.4975" lon="6.48006">
        <ele>1662.7</ele>
        <time>2014-09-14T10:17:58Z</time>
      </trkpt>
      <trkpt lat="44.49774" lon="6.47994">
        <ele>1659.4</ele>
        <time>2014-09-14T10:18:03Z</time>
      </trkpt>
      <trkpt lat="44.49781" lon="6.47985">
        <ele>1658.4</ele>
        <time>2014-09-14T10:18:05Z</time>
      </trkpt>
      <trkpt lat="44.4979" lon="6.47973">
        <ele>1657</ele>
        <time>2014-09-14T10:18:08Z</time>
      </trkpt>
      <trkpt lat="44.49792" lon="6.47969">
        <ele>1656</ele>
        <time>2014-09-14T10:18:09Z</time>
      </trkpt>
      <trkpt lat="44.4981" lon="6.47969">
        <ele>1653.6</ele>
        <time>2014-09-14T10:18:15Z</time>
      </trkpt>
      <trkpt lat="44.49819" lon="6.47987">
        <ele>1652.2</ele>
        <time>2014-09-14T10:18:24Z</time>
      </trkpt>
      <trkpt lat="44.49817" lon="6.47986">
        <ele>1651.2</ele>
        <time>2014-09-14T10:18:41Z</time>
      </trkpt>
      <trkpt lat="44.49821" lon="6.47979">
        <ele>1650.7</ele>
        <time>2014-09-14T10:19:13Z</time>
      </trkpt>
      <trkpt lat="44.49818" lon="6.47982">
        <ele>1650.2</ele>
        <time>2014-09-14T10:19:50Z</time>
      </trkpt>
      <trkpt lat="44.49817" lon="6.47981">
        <ele>1650.2</ele>
        <time>2014-09-14T10:19:53Z</time>
      </trkpt>
      <trkpt lat="44.49809" lon="6.4797">
        <ele>1652.2</ele>
        <time>2014-09-14T10:20:10Z</time>
      </trkpt>
      <trkpt lat="44.49806" lon="6.47965">
        <ele>1652.2</ele>
        <time>2014-09-14T10:20:24Z</time>
      </trkpt>
      <trkpt lat="44.49793" lon="6.47967">
        <ele>1653.6</ele>
        <time>2014-09-14T10:20:40Z</time>
      </trkpt>
      <trkpt lat="44.49789" lon="6.47968">
        <ele>1654.1</ele>
        <time>2014-09-14T10:20:58Z</time>
      </trkpt>
      <trkpt lat="44.49785" lon="6.47974">
        <ele>1654.1</ele>
        <time>2014-09-14T10:21:07Z</time>
      </trkpt>
      <trkpt lat="44.49781" lon="6.4798">
        <ele>1655.5</ele>
        <time>2014-09-14T10:21:21Z</time>
      </trkpt>
      <trkpt lat="44.49781" lon="6.47978">
        <ele>1655.1</ele>
        <time>2014-09-14T10:21:39Z</time>
      </trkpt>
      <trkpt lat="44.49784" lon="6.47986">
        <ele>1655.1</ele>
        <time>2014-09-14T10:22:10Z</time>
      </trkpt>
      <trkpt lat="44.49784" lon="6.47991">
        <ele>1655.1</ele>
        <time>2014-09-14T10:22:47Z</time>
      </trkpt>
      <trkpt lat="44.49776" lon="6.4799">
        <ele>1655.5</ele>
        <time>2014-09-14T10:22:55Z</time>
      </trkpt>
      <trkpt lat="44.49774" lon="6.47992">
        <ele>1656</ele>
        <time>2014-09-14T10:22:57Z</time>
      </trkpt>
      <trkpt lat="44.49767" lon="6.47998">
        <ele>1657.5</ele>
        <time>2014-09-14T10:23:03Z</time>
      </trkpt>
      <trkpt lat="44.49741" lon="6.48004">
        <ele>1659.9</ele>
        <time>2014-09-14T10:23:17Z</time>
      </trkpt>
      <trkpt lat="44.49719" lon="6.48004">
        <ele>1662.3</ele>
        <time>2014-09-14T10:23:32Z</time>
      </trkpt>
      <trkpt lat="44.49716" lon="6.48002">
        <ele>1662.7</ele>
        <time>2014-09-14T10:23:34Z</time>
      </trkpt>
      <trkpt lat="44.49714" lon="6.48">
        <ele>1662.7</ele>
        <time>2014-09-14T10:23:36Z</time>
      </trkpt>
      <trkpt lat="44.49718" lon="6.47995">
        <ele>1662.3</ele>
        <time>2014-09-14T10:23:43Z</time>
      </trkpt>
      <trkpt lat="44.49715" lon="6.47996">
        <ele>1662.3</ele>
        <time>2014-09-14T10:23:52Z</time>
      </trkpt>
      <trkpt lat="44.49728" lon="6.47997">
        <ele>1658.9</ele>
        <time>2014-09-14T10:24:00Z</time>
      </trkpt>
      <trkpt lat="44.49742" lon="6.47995">
        <ele>1655.1</ele>
        <time>2014-09-14T10:24:04Z</time>
      </trkpt>
      <trkpt lat="44.49751" lon="6.47991">
        <ele>1653.6</ele>
        <time>2014-09-14T10:24:07Z</time>
      </trkpt>
      <trkpt lat="44.49753" lon="6.4799">
        <ele>1652.6</ele>
        <time>2014-09-14T10:24:08Z</time>
      </trkpt>
      <trkpt lat="44.49763" lon="6.47975">
        <ele>1649.3</ele>
        <time>2014-09-14T10:24:15Z</time>
      </trkpt>
      <trkpt lat="44.49769" lon="6.47959">
        <ele>1645.9</ele>
        <time>2014-09-14T10:24:20Z</time>
      </trkpt>
      <trkpt lat="44.49773" lon="6.47946">
        <ele>1642.6</ele>
        <time>2014-09-14T10:24:25Z</time>
      </trkpt>
      <trkpt lat="44.49776" lon="6.4793">
        <ele>1639.2</ele>
        <time>2014-09-14T10:24:32Z</time>
      </trkpt>
      <trkpt lat="44.49777" lon="6.47925">
        <ele>1638.7</ele>
        <time>2014-09-14T10:24:34Z</time>
      </trkpt>
      <trkpt lat="44.49777" lon="6.47919">
        <ele>1637.3</ele>
        <time>2014-09-14T10:24:36Z</time>
      </trkpt>
      <trkpt lat="44.49779" lon="6.47911">
        <ele>1635.8</ele>
        <time>2014-09-14T10:24:49Z</time>
      </trkpt>
      <trkpt lat="44.4978" lon="6.47907">
        <ele>1635.3</ele>
        <time>2014-09-14T10:25:05Z</time>
      </trkpt>
      <trkpt lat="44.49779" lon="6.47904">
        <ele>1634.4</ele>
        <time>2014-09-14T10:25:28Z</time>
      </trkpt>
      <trkpt lat="44.49782" lon="6.47907">
        <ele>1632.9</ele>
        <time>2014-09-14T10:25:40Z</time>
      </trkpt>
      <trkpt lat="44.49784" lon="6.47897">
        <ele>1631.5</ele>
        <time>2014-09-14T10:26:01Z</time>
      </trkpt>
      <trkpt lat="44.49785" lon="6.4789">
        <ele>1629.6</ele>
        <time>2014-09-14T10:26:03Z</time>
      </trkpt>
      <trkpt lat="44.49787" lon="6.47878">
        <ele>1629.6</ele>
        <time>2014-09-14T10:26:08Z</time>
      </trkpt>
      <trkpt lat="44.49797" lon="6.47879">
        <ele>1626.2</ele>
        <time>2014-09-14T10:26:15Z</time>
      </trkpt>
      <trkpt lat="44.49803" lon="6.47876">
        <ele>1624.8</ele>
        <time>2014-09-14T10:26:17Z</time>
      </trkpt>
      <trkpt lat="44.49812" lon="6.47863">
        <ele>1621.4</ele>
        <time>2014-09-14T10:26:21Z</time>
      </trkpt>
      <trkpt lat="44.49822" lon="6.47844">
        <ele>1618</ele>
        <time>2014-09-14T10:26:26Z</time>
      </trkpt>
      <trkpt lat="44.49829" lon="6.4783">
        <ele>1614.7</ele>
        <time>2014-09-14T10:26:30Z</time>
      </trkpt>
      <trkpt lat="44.49836" lon="6.47812">
        <ele>1611.3</ele>
        <time>2014-09-14T10:26:34Z</time>
      </trkpt>
      <trkpt lat="44.49837" lon="6.47807">
        <ele>1610.8</ele>
        <time>2014-09-14T10:26:36Z</time>
      </trkpt>
      <trkpt lat="44.49841" lon="6.47796">
        <ele>1608.9</ele>
        <time>2014-09-14T10:26:46Z</time>
      </trkpt>
      <trkpt lat="44.49841" lon="6.47796">
        <ele>1608.4</ele>
        <time>2014-09-14T10:27:10Z</time>
      </trkpt>
      <trkpt lat="44.49847" lon="6.47795">
        <ele>1607.9</ele>
        <time>2014-09-14T10:27:37Z</time>
      </trkpt>
      <trkpt lat="44.49844" lon="6.47779">
        <ele>1605.5</ele>
        <time>2014-09-14T10:28:10Z</time>
      </trkpt>
      <trkpt lat="44.49848" lon="6.47766">
        <ele>1602.7</ele>
        <time>2014-09-14T10:28:13Z</time>
      </trkpt>
      <trkpt lat="44.49853" lon="6.47754">
        <ele>1599.8</ele>
        <time>2014-09-14T10:28:16Z</time>
      </trkpt>
      <trkpt lat="44.4986" lon="6.47728">
        <ele>1595.5</ele>
        <time>2014-09-14T10:28:21Z</time>
      </trkpt>
      <trkpt lat="44.49865" lon="6.47711">
        <ele>1592.1</ele>
        <time>2014-09-14T10:28:25Z</time>
      </trkpt>
      <trkpt lat="44.49869" lon="6.47699">
        <ele>1589.2</ele>
        <time>2014-09-14T10:28:29Z</time>
      </trkpt>
      <trkpt lat="44.4987" lon="6.47693">
        <ele>1587.3</ele>
        <time>2014-09-14T10:28:31Z</time>
      </trkpt>
      <trkpt lat="44.49874" lon="6.47686">
        <ele>1584.9</ele>
        <time>2014-09-14T10:28:35Z</time>
      </trkpt>
      <trkpt lat="44.49873" lon="6.47674">
        <ele>1580.5</ele>
        <time>2014-09-14T10:28:40Z</time>
      </trkpt>
      <trkpt lat="44.49857" lon="6.47656">
        <ele>1577.2</ele>
        <time>2014-09-14T10:28:48Z</time>
      </trkpt>
      <trkpt lat="44.49855" lon="6.47637">
        <ele>1574.8</ele>
        <time>2014-09-14T10:28:53Z</time>
      </trkpt>
      <trkpt lat="44.4985" lon="6.47621">
        <ele>1571.4</ele>
        <time>2014-09-14T10:28:58Z</time>
      </trkpt>
      <trkpt lat="44.49856" lon="6.47615">
        <ele>1570</ele>
        <time>2014-09-14T10:29:02Z</time>
      </trkpt>
      <trkpt lat="44.49859" lon="6.47613">
        <ele>1570.5</ele>
        <time>2014-09-14T10:29:08Z</time>
      </trkpt>
      <trkpt lat="44.49857" lon="6.47611">
        <ele>1570.5</ele>
        <time>2014-09-14T10:29:13Z</time>
      </trkpt>
      <trkpt lat="44.49855" lon="6.47592">
        <ele>1568.1</ele>
        <time>2014-09-14T10:29:21Z</time>
      </trkpt>
      <trkpt lat="44.49856" lon="6.47588">
        <ele>1567.6</ele>
        <time>2014-09-14T10:29:22Z</time>
      </trkpt>
      <trkpt lat="44.49863" lon="6.47558">
        <ele>1564.2</ele>
        <time>2014-09-14T10:29:28Z</time>
      </trkpt>
      <trkpt lat="44.49857" lon="6.47532">
        <ele>1563.2</ele>
        <time>2014-09-14T10:29:35Z</time>
      </trkpt>
      <trkpt lat="44.49832" lon="6.47525">
        <ele>1561.8</ele>
        <time>2014-09-14T10:29:48Z</time>
      </trkpt>
      <trkpt lat="44.4983" lon="6.47527">
        <ele>1561.3</ele>
        <time>2014-09-14T10:30:18Z</time>
      </trkpt>
      <trkpt lat="44.49828" lon="6.47528">
        <ele>1561.3</ele>
        <time>2014-09-14T10:30:44Z</time>
      </trkpt>
      <trkpt lat="44.49829" lon="6.47526">
        <ele>1560.8</ele>
        <time>2014-09-14T10:31:07Z</time>
      </trkpt>
      <trkpt lat="44.49829" lon="6.47526">
        <ele>1560.8</ele>
        <time>2014-09-14T10:31:15Z</time>
      </trkpt>
      <trkpt lat="44.49842" lon="6.47534">
        <ele>1560.4</ele>
        <time>2014-09-14T10:31:24Z</time>
      </trkpt>
      <trkpt lat="44.49847" lon="6.47538">
        <ele>1560.4</ele>
        <time>2014-09-14T10:31:26Z</time>
      </trkpt>
      <trkpt lat="44.49893" lon="6.47571">
        <ele>1561.3</ele>
        <time>2014-09-14T10:31:41Z</time>
      </trkpt>
      <trkpt lat="44.49924" lon="6.47593">
        <ele>1562.3</ele>
        <time>2014-09-14T10:31:52Z</time>
      </trkpt>
      <trkpt lat="44.49955" lon="6.47632">
        <ele>1562.3</ele>
        <time>2014-09-14T10:32:03Z</time>
      </trkpt>
      <trkpt lat="44.50008" lon="6.47672">
        <ele>1563.2</ele>
        <time>2014-09-14T10:32:18Z</time>
      </trkpt>
      <trkpt lat="44.50038" lon="6.47721">
        <ele>1564.7</ele>
        <time>2014-09-14T10:32:32Z</time>
      </trkpt>
      <trkpt lat="44.5006" lon="6.47772">
        <ele>1565.6</ele>
        <time>2014-09-14T10:32:47Z</time>
      </trkpt>
      <trkpt lat="44.50072" lon="6.47811">
        <ele>1567.1</ele>
        <time>2014-09-14T10:32:58Z</time>
      </trkpt>
      <trkpt lat="44.50087" lon="6.47859">
        <ele>1569</ele>
        <time>2014-09-14T10:33:13Z</time>
      </trkpt>
      <trkpt lat="44.50116" lon="6.47895">
        <ele>1569</ele>
        <time>2014-09-14T10:33:25Z</time>
      </trkpt>
      <trkpt lat="44.50147" lon="6.47944">
        <ele>1568.5</ele>
        <time>2014-09-14T10:33:39Z</time>
      </trkpt>
      <trkpt lat="44.50185" lon="6.4798">
        <ele>1568.5</ele>
        <time>2014-09-14T10:33:51Z</time>
      </trkpt>
      <trkpt lat="44.50221" lon="6.48003">
        <ele>1566.6</ele>
        <time>2014-09-14T10:33:59Z</time>
      </trkpt>
      <trkpt lat="44.50241" lon="6.48017">
        <ele>1566.6</ele>
        <time>2014-09-14T10:34:04Z</time>
      </trkpt>
      <trkpt lat="44.50259" lon="6.48025">
        <ele>1566.6</ele>
        <time>2014-09-14T10:34:08Z</time>
      </trkpt>
      <trkpt lat="44.50292" lon="6.48047">
        <ele>1566.1</ele>
        <time>2014-09-14T10:34:16Z</time>
      </trkpt>
      <trkpt lat="44.50332" lon="6.48069">
        <ele>1565.2</ele>
        <time>2014-09-14T10:34:25Z</time>
      </trkpt>
      <trkpt lat="44.50387" lon="6.48113">
        <ele>1563.2</ele>
        <time>2014-09-14T10:34:38Z</time>
      </trkpt>
      <trkpt lat="44.50401" lon="6.48122">
        <ele>1562.3</ele>
        <time>2014-09-14T10:34:41Z</time>
      </trkpt>
      <trkpt lat="44.50416" lon="6.48136">
        <ele>1560.4</ele>
        <time>2014-09-14T10:34:44Z</time>
      </trkpt>
      <trkpt lat="44.50431" lon="6.48156">
        <ele>1558.9</ele>
        <time>2014-09-14T10:34:47Z</time>
      </trkpt>
      <trkpt lat="44.50472" lon="6.48207">
        <ele>1555.1</ele>
        <time>2014-09-14T10:34:54Z</time>
      </trkpt>
      <trkpt lat="44.50489" lon="6.48245">
        <ele>1553.2</ele>
        <time>2014-09-14T10:34:58Z</time>
      </trkpt>
      <trkpt lat="44.50511" lon="6.48275">
        <ele>1551.7</ele>
        <time>2014-09-14T10:35:02Z</time>
      </trkpt>
      <trkpt lat="44.50527" lon="6.48283">
        <ele>1550.7</ele>
        <time>2014-09-14T10:35:04Z</time>
      </trkpt>
      <trkpt lat="44.50568" lon="6.48304">
        <ele>1553.6</ele>
        <time>2014-09-14T10:35:11Z</time>
      </trkpt>
      <trkpt lat="44.50599" lon="6.48319">
        <ele>1555.1</ele>
        <time>2014-09-14T10:35:18Z</time>
      </trkpt>
      <trkpt lat="44.50643" lon="6.48328">
        <ele>1557</ele>
        <time>2014-09-14T10:35:30Z</time>
      </trkpt>
      <trkpt lat="44.50689" lon="6.4833">
        <ele>1558</ele>
        <time>2014-09-14T10:35:42Z</time>
      </trkpt>
      <trkpt lat="44.50726" lon="6.48332">
        <ele>1558.4</ele>
        <time>2014-09-14T10:35:54Z</time>
      </trkpt>
      <trkpt lat="44.50768" lon="6.4834">
        <ele>1560.4</ele>
        <time>2014-09-14T10:36:07Z</time>
      </trkpt>
      <trkpt lat="44.50795" lon="6.48352">
        <ele>1560.8</ele>
        <time>2014-09-14T10:36:17Z</time>
      </trkpt>
      <trkpt lat="44.5084" lon="6.48367">
        <ele>1561.8</ele>
        <time>2014-09-14T10:36:29Z</time>
      </trkpt>
      <trkpt lat="44.50891" lon="6.48369">
        <ele>1562.3</ele>
        <time>2014-09-14T10:36:41Z</time>
      </trkpt>
      <trkpt lat="44.50926" lon="6.48403">
        <ele>1562.3</ele>
        <time>2014-09-14T10:36:51Z</time>
      </trkpt>
      <trkpt lat="44.50932" lon="6.48412">
        <ele>1562.3</ele>
        <time>2014-09-14T10:36:53Z</time>
      </trkpt>
      <trkpt lat="44.50946" lon="6.48451">
        <ele>1560.8</ele>
        <time>2014-09-14T10:37:00Z</time>
      </trkpt>
      <trkpt lat="44.50954" lon="6.48472">
        <ele>1559.4</ele>
        <time>2014-09-14T10:37:03Z</time>
      </trkpt>
      <trkpt lat="44.50964" lon="6.48494">
        <ele>1557.5</ele>
        <time>2014-09-14T10:37:06Z</time>
      </trkpt>
      <trkpt lat="44.50991" lon="6.48536">
        <ele>1555.1</ele>
        <time>2014-09-14T10:37:11Z</time>
      </trkpt>
      <trkpt lat="44.51013" lon="6.48582">
        <ele>1552.2</ele>
        <time>2014-09-14T10:37:16Z</time>
      </trkpt>
      <trkpt lat="44.51034" lon="6.48601">
        <ele>1550.7</ele>
        <time>2014-09-14T10:37:19Z</time>
      </trkpt>
      <trkpt lat="44.5107" lon="6.48623">
        <ele>1548.3</ele>
        <time>2014-09-14T10:37:24Z</time>
      </trkpt>
      <trkpt lat="44.51102" lon="6.48647">
        <ele>1545.9</ele>
        <time>2014-09-14T10:37:28Z</time>
      </trkpt>
      <trkpt lat="44.51119" lon="6.48658">
        <ele>1544</ele>
        <time>2014-09-14T10:37:30Z</time>
      </trkpt>
      <trkpt lat="44.51151" lon="6.48696">
        <ele>1543.1</ele>
        <time>2014-09-14T10:37:35Z</time>
      </trkpt>
      <trkpt lat="44.51168" lon="6.48727">
        <ele>1542.6</ele>
        <time>2014-09-14T10:37:39Z</time>
      </trkpt>
      <trkpt lat="44.51177" lon="6.48783">
        <ele>1542.6</ele>
        <time>2014-09-14T10:37:47Z</time>
      </trkpt>
      <trkpt lat="44.51174" lon="6.48804">
        <ele>1542.6</ele>
        <time>2014-09-14T10:37:50Z</time>
      </trkpt>
      <trkpt lat="44.51176" lon="6.48831">
        <ele>1542.6</ele>
        <time>2014-09-14T10:37:54Z</time>
      </trkpt>
      <trkpt lat="44.51178" lon="6.48845">
        <ele>1542.6</ele>
        <time>2014-09-14T10:37:56Z</time>
      </trkpt>
      <trkpt lat="44.51194" lon="6.48912">
        <ele>1545.5</ele>
        <time>2014-09-14T10:38:09Z</time>
      </trkpt>
      <trkpt lat="44.51203" lon="6.4897">
        <ele>1546.9</ele>
        <time>2014-09-14T10:38:22Z</time>
      </trkpt>
      <trkpt lat="44.51212" lon="6.49027">
        <ele>1548.3</ele>
        <time>2014-09-14T10:38:36Z</time>
      </trkpt>
      <trkpt lat="44.512" lon="6.49071">
        <ele>1550.7</ele>
        <time>2014-09-14T10:38:50Z</time>
      </trkpt>
      <trkpt lat="44.51182" lon="6.49124">
        <ele>1551.2</ele>
        <time>2014-09-14T10:39:04Z</time>
      </trkpt>
      <trkpt lat="44.51188" lon="6.49197">
        <ele>1551.7</ele>
        <time>2014-09-14T10:39:17Z</time>
      </trkpt>
      <trkpt lat="44.512" lon="6.49229">
        <ele>1553.2</ele>
        <time>2014-09-14T10:39:27Z</time>
      </trkpt>
      <trkpt lat="44.51214" lon="6.49269">
        <ele>1555.6</ele>
        <time>2014-09-14T10:39:41Z</time>
      </trkpt>
      <trkpt lat="44.51221" lon="6.49314">
        <ele>1557</ele>
        <time>2014-09-14T10:39:55Z</time>
      </trkpt>
      <trkpt lat="44.51216" lon="6.49364">
        <ele>1558</ele>
        <time>2014-09-14T10:40:08Z</time>
      </trkpt>
      <trkpt lat="44.51238" lon="6.494">
        <ele>1560.4</ele>
        <time>2014-09-14T10:40:21Z</time>
      </trkpt>
      <trkpt lat="44.51258" lon="6.49448">
        <ele>1562.3</ele>
        <time>2014-09-14T10:40:36Z</time>
      </trkpt>
      <trkpt lat="44.51258" lon="6.49451">
        <ele>1562.8</ele>
        <time>2014-09-14T10:40:37Z</time>
      </trkpt>
      <trkpt lat="44.51264" lon="6.49481">
        <ele>1564.7</ele>
        <time>2014-09-14T10:40:49Z</time>
      </trkpt>
      <trkpt lat="44.51259" lon="6.49523">
        <ele>1567.1</ele>
        <time>2014-09-14T10:41:05Z</time>
      </trkpt>
      <trkpt lat="44.5126" lon="6.49555">
        <ele>1569.5</ele>
        <time>2014-09-14T10:41:18Z</time>
      </trkpt>
      <trkpt lat="44.5126" lon="6.49586">
        <ele>1571.9</ele>
        <time>2014-09-14T10:41:30Z</time>
      </trkpt>
      <trkpt lat="44.51263" lon="6.49619">
        <ele>1574.3</ele>
        <time>2014-09-14T10:41:42Z</time>
      </trkpt>
      <trkpt lat="44.51263" lon="6.49654">
        <ele>1576.2</ele>
        <time>2014-09-14T10:41:54Z</time>
      </trkpt>
      <trkpt lat="44.51275" lon="6.49694">
        <ele>1578.1</ele>
        <time>2014-09-14T10:42:09Z</time>
      </trkpt>
      <trkpt lat="44.51291" lon="6.49712">
        <ele>1578.6</ele>
        <time>2014-09-14T10:42:21Z</time>
      </trkpt>
      <trkpt lat="44.51292" lon="6.49709">
        <ele>1578.1</ele>
        <time>2014-09-14T10:42:39Z</time>
      </trkpt>
      <trkpt lat="44.51298" lon="6.49711">
        <ele>1577.2</ele>
        <time>2014-09-14T10:42:55Z</time>
      </trkpt>
      <trkpt lat="44.5133" lon="6.49725">
        <ele>1572.9</ele>
        <time>2014-09-14T10:43:03Z</time>
      </trkpt>
      <trkpt lat="44.51337" lon="6.49729">
        <ele>1571.9</ele>
        <time>2014-09-14T10:43:05Z</time>
      </trkpt>
      <trkpt lat="44.51347" lon="6.49731">
        <ele>1570.5</ele>
        <time>2014-09-14T10:43:12Z</time>
      </trkpt>
      <trkpt lat="44.51342" lon="6.49714">
        <ele>1567.1</ele>
        <time>2014-09-14T10:43:17Z</time>
      </trkpt>
      <trkpt lat="44.51327" lon="6.49691">
        <ele>1562.3</ele>
        <time>2014-09-14T10:43:23Z</time>
      </trkpt>
      <trkpt lat="44.5132" lon="6.49679">
        <ele>1558.9</ele>
        <time>2014-09-14T10:43:26Z</time>
      </trkpt>
      <trkpt lat="44.5131" lon="6.49658">
        <ele>1556</ele>
        <time>2014-09-14T10:43:31Z</time>
      </trkpt>
      <trkpt lat="44.51309" lon="6.49654">
        <ele>1555.6</ele>
        <time>2014-09-14T10:43:32Z</time>
      </trkpt>
      <trkpt lat="44.51308" lon="6.49641">
        <ele>1551.7</ele>
        <time>2014-09-14T10:43:36Z</time>
      </trkpt>
      <trkpt lat="44.51308" lon="6.49636">
        <ele>1551.2</ele>
        <time>2014-09-14T10:43:37Z</time>
      </trkpt>
      <trkpt lat="44.51309" lon="6.49632">
        <ele>1550.7</ele>
        <time>2014-09-14T10:43:38Z</time>
      </trkpt>
      <trkpt lat="44.51315" lon="6.49615">
        <ele>1546.9</ele>
        <time>2014-09-14T10:43:43Z</time>
      </trkpt>
      <trkpt lat="44.51316" lon="6.49612">
        <ele>1545.9</ele>
        <time>2014-09-14T10:43:44Z</time>
      </trkpt>
      <trkpt lat="44.51326" lon="6.49607">
        <ele>1542.1</ele>
        <time>2014-09-14T10:43:49Z</time>
      </trkpt>
      <trkpt lat="44.51345" lon="6.4962">
        <ele>1538.3</ele>
        <time>2014-09-14T10:43:54Z</time>
      </trkpt>
      <trkpt lat="44.51361" lon="6.49627">
        <ele>1534.9</ele>
        <time>2014-09-14T10:44:00Z</time>
      </trkpt>
      <trkpt lat="44.51363" lon="6.49626">
        <ele>1533.9</ele>
        <time>2014-09-14T10:44:01Z</time>
      </trkpt>
      <trkpt lat="44.51365" lon="6.49615">
        <ele>1529.6</ele>
        <time>2014-09-14T10:44:05Z</time>
      </trkpt>
      <trkpt lat="44.51362" lon="6.49606">
        <ele>1526.7</ele>
        <time>2014-09-14T10:44:08Z</time>
      </trkpt>
      <trkpt lat="44.5136" lon="6.49592">
        <ele>1522.9</ele>
        <time>2014-09-14T10:44:12Z</time>
      </trkpt>
      <trkpt lat="44.51357" lon="6.49579">
        <ele>1519.5</ele>
        <time>2014-09-14T10:44:15Z</time>
      </trkpt>
      <trkpt lat="44.5135" lon="6.49551">
        <ele>1514.7</ele>
        <time>2014-09-14T10:44:22Z</time>
      </trkpt>
      <trkpt lat="44.51348" lon="6.49537">
        <ele>1511.3</ele>
        <time>2014-09-14T10:44:26Z</time>
      </trkpt>
      <trkpt lat="44.51346" lon="6.49528">
        <ele>1508</ele>
        <time>2014-09-14T10:44:29Z</time>
      </trkpt>
      <trkpt lat="44.51345" lon="6.49522">
        <ele>1506.5</ele>
        <time>2014-09-14T10:44:31Z</time>
      </trkpt>
      <trkpt lat="44.51352" lon="6.49524">
        <ele>1503.6</ele>
        <time>2014-09-14T10:44:35Z</time>
      </trkpt>
      <trkpt lat="44.51355" lon="6.49527">
        <ele>1503.2</ele>
        <time>2014-09-14T10:44:37Z</time>
      </trkpt>
      <trkpt lat="44.51368" lon="6.49539">
        <ele>1500.8</ele>
        <time>2014-09-14T10:44:43Z</time>
      </trkpt>
      <trkpt lat="44.51381" lon="6.49551">
        <ele>1497.4</ele>
        <time>2014-09-14T10:44:51Z</time>
      </trkpt>
      <trkpt lat="44.51391" lon="6.4956">
        <ele>1493.6</ele>
        <time>2014-09-14T10:44:57Z</time>
      </trkpt>
      <trkpt lat="44.51393" lon="6.49562">
        <ele>1493.6</ele>
        <time>2014-09-14T10:44:58Z</time>
      </trkpt>
      <trkpt lat="44.51405" lon="6.4959">
        <ele>1491.6</ele>
        <time>2014-09-14T10:45:04Z</time>
      </trkpt>
      <trkpt lat="44.51433" lon="6.4962">
        <ele>1490.2</ele>
        <time>2014-09-14T10:45:15Z</time>
      </trkpt>
      <trkpt lat="44.51434" lon="6.49621">
        <ele>1490.2</ele>
        <time>2014-09-14T10:45:16Z</time>
      </trkpt>
      <trkpt lat="44.51439" lon="6.4966">
        <ele>1492.6</ele>
        <time>2014-09-14T10:45:30Z</time>
      </trkpt>
      <trkpt lat="44.51456" lon="6.49677">
        <ele>1491.6</ele>
        <time>2014-09-14T10:45:38Z</time>
      </trkpt>
      <trkpt lat="44.51466" lon="6.49684">
        <ele>1491.6</ele>
        <time>2014-09-14T10:45:43Z</time>
      </trkpt>
      <trkpt lat="44.51471" lon="6.49693">
        <ele>1490.7</ele>
        <time>2014-09-14T10:45:45Z</time>
      </trkpt>
      <trkpt lat="44.51477" lon="6.49718">
        <ele>1486.8</ele>
        <time>2014-09-14T10:45:50Z</time>
      </trkpt>
      <trkpt lat="44.5148" lon="6.4974">
        <ele>1482.5</ele>
        <time>2014-09-14T10:45:55Z</time>
      </trkpt>
      <trkpt lat="44.5148" lon="6.49752">
        <ele>1478.7</ele>
        <time>2014-09-14T10:45:58Z</time>
      </trkpt>
      <trkpt lat="44.51484" lon="6.49763">
        <ele>1476.7</ele>
        <time>2014-09-14T10:45:59Z</time>
      </trkpt>
      <trkpt lat="44.51492" lon="6.49788">
        <ele>1472.9</ele>
        <time>2014-09-14T10:46:04Z</time>
      </trkpt>
      <trkpt lat="44.51502" lon="6.4983">
        <ele>1472.9</ele>
        <time>2014-09-14T10:46:12Z</time>
      </trkpt>
      <trkpt lat="44.51507" lon="6.49861">
        <ele>1470.5</ele>
        <time>2014-09-14T10:46:19Z</time>
      </trkpt>
      <trkpt lat="44.51511" lon="6.49872">
        <ele>1469</ele>
        <time>2014-09-14T10:46:21Z</time>
      </trkpt>
      <trkpt lat="44.51511" lon="6.4989">
        <ele>1467.6</ele>
        <time>2014-09-14T10:46:24Z</time>
      </trkpt>
      <trkpt lat="44.51501" lon="6.49903">
        <ele>1466.2</ele>
        <time>2014-09-14T10:46:27Z</time>
      </trkpt>
      <trkpt lat="44.51485" lon="6.49945">
        <ele>1466.6</ele>
        <time>2014-09-14T10:46:36Z</time>
      </trkpt>
      <trkpt lat="44.51483" lon="6.49949">
        <ele>1467.6</ele>
        <time>2014-09-14T10:46:39Z</time>
      </trkpt>
      <trkpt lat="44.51482" lon="6.49953">
        <ele>1467.6</ele>
        <time>2014-09-14T10:46:41Z</time>
      </trkpt>
      <trkpt lat="44.51471" lon="6.49973">
        <ele>1463.7</ele>
        <time>2014-09-14T10:46:50Z</time>
      </trkpt>
      <trkpt lat="44.51464" lon="6.49976">
        <ele>1461.8</ele>
        <time>2014-09-14T10:46:53Z</time>
      </trkpt>
      <trkpt lat="44.5146" lon="6.49982">
        <ele>1460.4</ele>
        <time>2014-09-14T10:46:55Z</time>
      </trkpt>
      <trkpt lat="44.51455" lon="6.49989">
        <ele>1458.5</ele>
        <time>2014-09-14T10:46:59Z</time>
      </trkpt>
      <trkpt lat="44.51458" lon="6.49996">
        <ele>1456.1</ele>
        <time>2014-09-14T10:47:03Z</time>
      </trkpt>
      <trkpt lat="44.51467" lon="6.49993">
        <ele>1454.1</ele>
        <time>2014-09-14T10:47:14Z</time>
      </trkpt>
      <trkpt lat="44.51469" lon="6.49994">
        <ele>1454.1</ele>
        <time>2014-09-14T10:47:26Z</time>
      </trkpt>
      <trkpt lat="44.51479" lon="6.49999">
        <ele>1453.7</ele>
        <time>2014-09-14T10:47:32Z</time>
      </trkpt>
      <trkpt lat="44.51501" lon="6.50007">
        <ele>1449.3</ele>
        <time>2014-09-14T10:47:39Z</time>
      </trkpt>
      <trkpt lat="44.51505" lon="6.50006">
        <ele>1448.4</ele>
        <time>2014-09-14T10:47:41Z</time>
      </trkpt>
      <trkpt lat="44.51507" lon="6.50006">
        <ele>1446.9</ele>
        <time>2014-09-14T10:47:44Z</time>
      </trkpt>
      <trkpt lat="44.51493" lon="6.50009">
        <ele>1443.1</ele>
        <time>2014-09-14T10:47:53Z</time>
      </trkpt>
      <trkpt lat="44.51495" lon="6.50013">
        <ele>1442.1</ele>
        <time>2014-09-14T10:47:57Z</time>
      </trkpt>
      <trkpt lat="44.5151" lon="6.50024">
        <ele>1438.8</ele>
        <time>2014-09-14T10:48:05Z</time>
      </trkpt>
      <trkpt lat="44.51522" lon="6.50029">
        <ele>1434.4</ele>
        <time>2014-09-14T10:48:10Z</time>
      </trkpt>
      <trkpt lat="44.51523" lon="6.50027">
        <ele>1432</ele>
        <time>2014-09-14T10:48:23Z</time>
      </trkpt>
      <trkpt lat="44.5152" lon="6.50026">
        <ele>1431.5</ele>
        <time>2014-09-14T10:48:43Z</time>
      </trkpt>
      <trkpt lat="44.51534" lon="6.50035">
        <ele>1428.2</ele>
        <time>2014-09-14T10:48:52Z</time>
      </trkpt>
      <trkpt lat="44.51541" lon="6.50039">
        <ele>1425.8</ele>
        <time>2014-09-14T10:48:55Z</time>
      </trkpt>
      <trkpt lat="44.51542" lon="6.5005">
        <ele>1422.4</ele>
        <time>2014-09-14T10:49:03Z</time>
      </trkpt>
      <trkpt lat="44.51548" lon="6.50051">
        <ele>1421</ele>
        <time>2014-09-14T10:49:06Z</time>
      </trkpt>
      <trkpt lat="44.51559" lon="6.50037">
        <ele>1418.1</ele>
        <time>2014-09-14T10:49:13Z</time>
      </trkpt>
      <trkpt lat="44.51561" lon="6.50027">
        <ele>1416.2</ele>
        <time>2014-09-14T10:49:16Z</time>
      </trkpt>
      <trkpt lat="44.51568" lon="6.50027">
        <ele>1412.8</ele>
        <time>2014-09-14T10:49:23Z</time>
      </trkpt>
      <trkpt lat="44.51573" lon="6.50031">
        <ele>1410.9</ele>
        <time>2014-09-14T10:49:26Z</time>
      </trkpt>
      <trkpt lat="44.51575" lon="6.50033">
        <ele>1409.9</ele>
        <time>2014-09-14T10:49:28Z</time>
      </trkpt>
      <trkpt lat="44.51576" lon="6.50025">
        <ele>1407</ele>
        <time>2014-09-14T10:49:32Z</time>
      </trkpt>
      <trkpt lat="44.51583" lon="6.5002">
        <ele>1403.2</ele>
        <time>2014-09-14T10:49:38Z</time>
      </trkpt>
      <trkpt lat="44.51587" lon="6.50029">
        <ele>1399.8</ele>
        <time>2014-09-14T10:49:42Z</time>
      </trkpt>
      <trkpt lat="44.51595" lon="6.50031">
        <ele>1398.4</ele>
        <time>2014-09-14T10:49:52Z</time>
      </trkpt>
      <trkpt lat="44.51594" lon="6.50037">
        <ele>1398.4</ele>
        <time>2014-09-14T10:50:05Z</time>
      </trkpt>
      <trkpt lat="44.516" lon="6.50036">
        <ele>1397.4</ele>
        <time>2014-09-14T10:50:08Z</time>
      </trkpt>
      <trkpt lat="44.51603" lon="6.50021">
        <ele>1393.6</ele>
        <time>2014-09-14T10:50:14Z</time>
      </trkpt>
      <trkpt lat="44.51602" lon="6.50019">
        <ele>1392.6</ele>
        <time>2014-09-14T10:50:15Z</time>
      </trkpt>
      <trkpt lat="44.51603" lon="6.50015">
        <ele>1391.7</ele>
        <time>2014-09-14T10:50:17Z</time>
      </trkpt>
      <trkpt lat="44.51608" lon="6.50003">
        <ele>1388.8</ele>
        <time>2014-09-14T10:50:21Z</time>
      </trkpt>
      <trkpt lat="44.51611" lon="6.49999">
        <ele>1387.3</ele>
        <time>2014-09-14T10:50:23Z</time>
      </trkpt>
      <trkpt lat="44.51615" lon="6.50003">
        <ele>1385.4</ele>
        <time>2014-09-14T10:50:28Z</time>
      </trkpt>
      <trkpt lat="44.51615" lon="6.50004">
        <ele>1384</ele>
        <time>2014-09-14T10:50:29Z</time>
      </trkpt>
      <trkpt lat="44.5162" lon="6.50009">
        <ele>1380.1</ele>
        <time>2014-09-14T10:50:34Z</time>
      </trkpt>
      <trkpt lat="44.51626" lon="6.50015">
        <ele>1377.2</ele>
        <time>2014-09-14T10:50:39Z</time>
      </trkpt>
      <trkpt lat="44.51626" lon="6.50016">
        <ele>1376.8</ele>
        <time>2014-09-14T10:50:40Z</time>
      </trkpt>
      <trkpt lat="44.51629" lon="6.50011">
        <ele>1374.8</ele>
        <time>2014-09-14T10:50:43Z</time>
      </trkpt>
      <trkpt lat="44.5163" lon="6.50006">
        <ele>1373.9</ele>
        <time>2014-09-14T10:50:45Z</time>
      </trkpt>
      <trkpt lat="44.5163" lon="6.49998">
        <ele>1371</ele>
        <time>2014-09-14T10:50:52Z</time>
      </trkpt>
      <trkpt lat="44.51633" lon="6.49996">
        <ele>1370</ele>
        <time>2014-09-14T10:50:55Z</time>
      </trkpt>
      <trkpt lat="44.51634" lon="6.49992">
        <ele>1368.6</ele>
        <time>2014-09-14T10:50:58Z</time>
      </trkpt>
      <trkpt lat="44.51634" lon="6.49989">
        <ele>1366.2</ele>
        <time>2014-09-14T10:51:00Z</time>
      </trkpt>
      <trkpt lat="44.51637" lon="6.49983">
        <ele>1365.2</ele>
        <time>2014-09-14T10:51:02Z</time>
      </trkpt>
      <trkpt lat="44.51642" lon="6.49977">
        <ele>1363.8</ele>
        <time>2014-09-14T10:51:06Z</time>
      </trkpt>
      <trkpt lat="44.51651" lon="6.4997">
        <ele>1361.8</ele>
        <time>2014-09-14T10:51:13Z</time>
      </trkpt>
      <trkpt lat="44.51668" lon="6.49955">
        <ele>1359</ele>
        <time>2014-09-14T10:51:24Z</time>
      </trkpt>
      <trkpt lat="44.51674" lon="6.49946">
        <ele>1358.5</ele>
        <time>2014-09-14T10:51:29Z</time>
      </trkpt>
      <trkpt lat="44.51678" lon="6.49939">
        <ele>1358</ele>
        <time>2014-09-14T10:51:32Z</time>
      </trkpt>
      <trkpt lat="44.51681" lon="6.49936">
        <ele>1358</ele>
        <time>2014-09-14T10:51:35Z</time>
      </trkpt>
      <trkpt lat="44.51695" lon="6.49931">
        <ele>1355.1</ele>
        <time>2014-09-14T10:51:47Z</time>
      </trkpt>
      <trkpt lat="44.51699" lon="6.49929">
        <ele>1355.1</ele>
        <time>2014-09-14T10:51:50Z</time>
      </trkpt>
      <trkpt lat="44.51717" lon="6.49917">
        <ele>1354.6</ele>
        <time>2014-09-14T10:52:02Z</time>
      </trkpt>
      <trkpt lat="44.51716" lon="6.49917">
        <ele>1353.7</ele>
        <time>2014-09-14T10:52:17Z</time>
      </trkpt>
      <trkpt lat="44.51719" lon="6.49916">
        <ele>1353.7</ele>
        <time>2014-09-14T10:52:30Z</time>
      </trkpt>
      <trkpt lat="44.51726" lon="6.49909">
        <ele>1352.2</ele>
        <time>2014-09-14T10:52:33Z</time>
      </trkpt>
      <trkpt lat="44.51728" lon="6.49905">
        <ele>1351.3</ele>
        <time>2014-09-14T10:52:34Z</time>
      </trkpt>
      <trkpt lat="44.51734" lon="6.49898">
        <ele>1349.4</ele>
        <time>2014-09-14T10:52:37Z</time>
      </trkpt>
      <trkpt lat="44.51742" lon="6.49899">
        <ele>1347.9</ele>
        <time>2014-09-14T10:52:40Z</time>
      </trkpt>
      <trkpt lat="44.51745" lon="6.499">
        <ele>1347.9</ele>
        <time>2014-09-14T10:52:41Z</time>
      </trkpt>
      <trkpt lat="44.5176" lon="6.49902">
        <ele>1344.5</ele>
        <time>2014-09-14T10:52:47Z</time>
      </trkpt>
      <trkpt lat="44.5177" lon="6.49901">
        <ele>1341.2</ele>
        <time>2014-09-14T10:52:53Z</time>
      </trkpt>
      <trkpt lat="44.51781" lon="6.49898">
        <ele>1337.8</ele>
        <time>2014-09-14T10:53:02Z</time>
      </trkpt>
      <trkpt lat="44.51788" lon="6.49895">
        <ele>1335.4</ele>
        <time>2014-09-14T10:53:06Z</time>
      </trkpt>
      <trkpt lat="44.51797" lon="6.49886">
        <ele>1332.5</ele>
        <time>2014-09-14T10:53:11Z</time>
      </trkpt>
      <trkpt lat="44.51812" lon="6.49873">
        <ele>1331.1</ele>
        <time>2014-09-14T10:53:15Z</time>
      </trkpt>
      <trkpt lat="44.51834" lon="6.49858">
        <ele>1331.1</ele>
        <time>2014-09-14T10:53:21Z</time>
      </trkpt>
      <trkpt lat="44.51844" lon="6.49845">
        <ele>1331.1</ele>
        <time>2014-09-14T10:53:25Z</time>
      </trkpt>
      <trkpt lat="44.51852" lon="6.49838">
        <ele>1332.5</ele>
        <time>2014-09-14T10:53:30Z</time>
      </trkpt>
      <trkpt lat="44.5187" lon="6.4982">
        <ele>1333</ele>
        <time>2014-09-14T10:53:42Z</time>
      </trkpt>
      <trkpt lat="44.51872" lon="6.49818">
        <ele>1333</ele>
        <time>2014-09-14T10:53:43Z</time>
      </trkpt>
      <trkpt lat="44.51865" lon="6.49805">
        <ele>1331.6</ele>
        <time>2014-09-14T10:53:49Z</time>
      </trkpt>
      <trkpt lat="44.51864" lon="6.49801">
        <ele>1330.6</ele>
        <time>2014-09-14T10:54:02Z</time>
      </trkpt>
      <trkpt lat="44.51858" lon="6.49802">
        <ele>1330.1</ele>
        <time>2014-09-14T10:54:21Z</time>
      </trkpt>
      <trkpt lat="44.51845" lon="6.49802">
        <ele>1328.2</ele>
        <time>2014-09-14T10:54:25Z</time>
      </trkpt>
      <trkpt lat="44.51837" lon="6.49801">
        <ele>1327.7</ele>
        <time>2014-09-14T10:54:27Z</time>
      </trkpt>
      <trkpt lat="44.51836" lon="6.4979">
        <ele>1325.8</ele>
        <time>2014-09-14T10:54:31Z</time>
      </trkpt>
      <trkpt lat="44.51838" lon="6.49786">
        <ele>1324.8</ele>
        <time>2014-09-14T10:54:32Z</time>
      </trkpt>
      <trkpt lat="44.51851" lon="6.4977">
        <ele>1322</ele>
        <time>2014-09-14T10:54:38Z</time>
      </trkpt>
      <trkpt lat="44.51848" lon="6.49747">
        <ele>1317.6</ele>
        <time>2014-09-14T10:54:45Z</time>
      </trkpt>
      <trkpt lat="44.51842" lon="6.49737">
        <ele>1316.7</ele>
        <time>2014-09-14T10:54:48Z</time>
      </trkpt>
      <trkpt lat="44.51837" lon="6.49727">
        <ele>1314.7</ele>
        <time>2014-09-14T10:54:51Z</time>
      </trkpt>
      <trkpt lat="44.51835" lon="6.49723">
        <ele>1314.3</ele>
        <time>2014-09-14T10:54:53Z</time>
      </trkpt>
      <trkpt lat="44.51847" lon="6.49724">
        <ele>1311.9</ele>
        <time>2014-09-14T10:54:57Z</time>
      </trkpt>
      <trkpt lat="44.51868" lon="6.49724">
        <ele>1307.5</ele>
        <time>2014-09-14T10:55:04Z</time>
      </trkpt>
      <trkpt lat="44.51876" lon="6.49723">
        <ele>1306.1</ele>
        <time>2014-09-14T10:55:07Z</time>
      </trkpt>
      <trkpt lat="44.51888" lon="6.49721">
        <ele>1303.7</ele>
        <time>2014-09-14T10:55:17Z</time>
      </trkpt>
      <trkpt lat="44.51891" lon="6.49722">
        <ele>1303.2</ele>
        <time>2014-09-14T10:55:24Z</time>
      </trkpt>
      <trkpt lat="44.51899" lon="6.4971">
        <ele>1300.8</ele>
        <time>2014-09-14T10:55:31Z</time>
      </trkpt>
      <trkpt lat="44.51896" lon="6.497">
        <ele>1297.4</ele>
        <time>2014-09-14T10:55:36Z</time>
      </trkpt>
      <trkpt lat="44.51895" lon="6.49695">
        <ele>1296</ele>
        <time>2014-09-14T10:55:39Z</time>
      </trkpt>
      <trkpt lat="44.51895" lon="6.49694">
        <ele>1294.6</ele>
        <time>2014-09-14T10:55:40Z</time>
      </trkpt>
      <trkpt lat="44.51901" lon="6.49682">
        <ele>1292.2</ele>
        <time>2014-09-14T10:55:48Z</time>
      </trkpt>
      <trkpt lat="44.51907" lon="6.49675">
        <ele>1290.2</ele>
        <time>2014-09-14T10:55:53Z</time>
      </trkpt>
      <trkpt lat="44.51901" lon="6.49669">
        <ele>1289.8</ele>
        <time>2014-09-14T10:55:57Z</time>
      </trkpt>
      <trkpt lat="44.519" lon="6.49667">
        <ele>1288.8</ele>
        <time>2014-09-14T10:55:58Z</time>
      </trkpt>
      <trkpt lat="44.51896" lon="6.49654">
        <ele>1285.4</ele>
        <time>2014-09-14T10:56:04Z</time>
      </trkpt>
      <trkpt lat="44.51901" lon="6.49652">
        <ele>1283</ele>
        <time>2014-09-14T10:56:07Z</time>
      </trkpt>
      <trkpt lat="44.51909" lon="6.49648">
        <ele>1279.7</ele>
        <time>2014-09-14T10:56:12Z</time>
      </trkpt>
      <trkpt lat="44.51918" lon="6.49648">
        <ele>1275.3</ele>
        <time>2014-09-14T10:56:17Z</time>
      </trkpt>
      <trkpt lat="44.51927" lon="6.49649">
        <ele>1272</ele>
        <time>2014-09-14T10:56:22Z</time>
      </trkpt>
      <trkpt lat="44.5193" lon="6.49643">
        <ele>1270.5</ele>
        <time>2014-09-14T10:56:36Z</time>
      </trkpt>
      <trkpt lat="44.5193" lon="6.49642">
        <ele>1270.5</ele>
        <time>2014-09-14T10:56:37Z</time>
      </trkpt>
      <trkpt lat="44.51937" lon="6.4964">
        <ele>1270.5</ele>
        <time>2014-09-14T10:56:48Z</time>
      </trkpt>
      <trkpt lat="44.51944" lon="6.49643">
        <ele>1270</ele>
        <time>2014-09-14T10:56:52Z</time>
      </trkpt>
      <trkpt lat="44.51955" lon="6.49647">
        <ele>1268.1</ele>
        <time>2014-09-14T10:56:56Z</time>
      </trkpt>
      <trkpt lat="44.51961" lon="6.49648">
        <ele>1266.2</ele>
        <time>2014-09-14T10:56:59Z</time>
      </trkpt>
      <trkpt lat="44.51966" lon="6.49642">
        <ele>1265.2</ele>
        <time>2014-09-14T10:57:02Z</time>
      </trkpt>
      <trkpt lat="44.51971" lon="6.4964">
        <ele>1263.8</ele>
        <time>2014-09-14T10:57:07Z</time>
      </trkpt>
      <trkpt lat="44.51973" lon="6.49644">
        <ele>1261.4</ele>
        <time>2014-09-14T10:57:12Z</time>
      </trkpt>
      <trkpt lat="44.51979" lon="6.49642">
        <ele>1258.5</ele>
        <time>2014-09-14T10:57:20Z</time>
      </trkpt>
      <trkpt lat="44.51979" lon="6.49645">
        <ele>1257.1</ele>
        <time>2014-09-14T10:57:22Z</time>
      </trkpt>
      <trkpt lat="44.51982" lon="6.49652">
        <ele>1255.1</ele>
        <time>2014-09-14T10:57:26Z</time>
      </trkpt>
      <trkpt lat="44.51982" lon="6.49655">
        <ele>1254.7</ele>
        <time>2014-09-14T10:57:28Z</time>
      </trkpt>
      <trkpt lat="44.51985" lon="6.49657">
        <ele>1253.7</ele>
        <time>2014-09-14T10:57:33Z</time>
      </trkpt>
      <trkpt lat="44.51984" lon="6.49657">
        <ele>1253.2</ele>
        <time>2014-09-14T10:57:36Z</time>
      </trkpt>
      <trkpt lat="44.51994" lon="6.49646">
        <ele>1250.3</ele>
        <time>2014-09-14T10:57:48Z</time>
      </trkpt>
      <trkpt lat="44.52" lon="6.49642">
        <ele>1248.4</ele>
        <time>2014-09-14T10:57:58Z</time>
      </trkpt>
      <trkpt lat="44.52005" lon="6.49647">
        <ele>1247</ele>
        <time>2014-09-14T10:58:10Z</time>
      </trkpt>
      <trkpt lat="44.52011" lon="6.4965">
        <ele>1246.5</ele>
        <time>2014-09-14T10:58:30Z</time>
      </trkpt>
      <trkpt lat="44.52011" lon="6.49651">
        <ele>1246.5</ele>
        <time>2014-09-14T10:58:32Z</time>
      </trkpt>
      <trkpt lat="44.52019" lon="6.49644">
        <ele>1243.6</ele>
        <time>2014-09-14T10:58:37Z</time>
      </trkpt>
      <trkpt lat="44.52023" lon="6.49642">
        <ele>1242.2</ele>
        <time>2014-09-14T10:58:41Z</time>
      </trkpt>
      <trkpt lat="44.52033" lon="6.49644">
        <ele>1238.8</ele>
        <time>2014-09-14T10:58:48Z</time>
      </trkpt>
      <trkpt lat="44.52034" lon="6.49644">
        <ele>1238.8</ele>
        <time>2014-09-14T10:58:49Z</time>
      </trkpt>
      <trkpt lat="44.52045" lon="6.49637">
        <ele>1235.9</ele>
        <time>2014-09-14T10:58:55Z</time>
      </trkpt>
      <trkpt lat="44.52052" lon="6.49632">
        <ele>1233.5</ele>
        <time>2014-09-14T10:59:02Z</time>
      </trkpt>
      <trkpt lat="44.52056" lon="6.49631">
        <ele>1232.1</ele>
        <time>2014-09-14T10:59:05Z</time>
      </trkpt>
      <trkpt lat="44.52059" lon="6.49625">
        <ele>1231.1</ele>
        <time>2014-09-14T10:59:07Z</time>
      </trkpt>
      <trkpt lat="44.52062" lon="6.49627">
        <ele>1230.6</ele>
        <time>2014-09-14T10:59:10Z</time>
      </trkpt>
      <trkpt lat="44.52062" lon="6.49633">
        <ele>1229.7</ele>
        <time>2014-09-14T10:59:14Z</time>
      </trkpt>
      <trkpt lat="44.52072" lon="6.49628">
        <ele>1226.3</ele>
        <time>2014-09-14T10:59:21Z</time>
      </trkpt>
      <trkpt lat="44.52074" lon="6.49628">
        <ele>1225.8</ele>
        <time>2014-09-14T10:59:23Z</time>
      </trkpt>
      <trkpt lat="44.52076" lon="6.49633">
        <ele>1223.9</ele>
        <time>2014-09-14T10:59:27Z</time>
      </trkpt>
      <trkpt lat="44.52084" lon="6.49634">
        <ele>1222.5</ele>
        <time>2014-09-14T10:59:40Z</time>
      </trkpt>
      <trkpt lat="44.52085" lon="6.49631">
        <ele>1222.5</ele>
        <time>2014-09-14T10:59:45Z</time>
      </trkpt>
      <trkpt lat="44.52088" lon="6.4963">
        <ele>1222</ele>
        <time>2014-09-14T10:59:47Z</time>
      </trkpt>
      <trkpt lat="44.52099" lon="6.4963">
        <ele>1220.1</ele>
        <time>2014-09-14T10:59:52Z</time>
      </trkpt>
      <trkpt lat="44.52108" lon="6.49632">
        <ele>1219.1</ele>
        <time>2014-09-14T10:59:57Z</time>
      </trkpt>
      <trkpt lat="44.52113" lon="6.49636">
        <ele>1217.2</ele>
        <time>2014-09-14T11:00:00Z</time>
      </trkpt>
      <trkpt lat="44.52116" lon="6.49641">
        <ele>1213.8</ele>
        <time>2014-09-14T11:00:11Z</time>
      </trkpt>
      <trkpt lat="44.52117" lon="6.49644">
        <ele>1212.8</ele>
        <time>2014-09-14T11:00:13Z</time>
      </trkpt>
      <trkpt lat="44.52124" lon="6.49646">
        <ele>1210.9</ele>
        <time>2014-09-14T11:00:18Z</time>
      </trkpt>
      <trkpt lat="44.5214" lon="6.49652">
        <ele>1208</ele>
        <time>2014-09-14T11:00:26Z</time>
      </trkpt>
      <trkpt lat="44.52147" lon="6.49651">
        <ele>1206.1</ele>
        <time>2014-09-14T11:00:29Z</time>
      </trkpt>
      <trkpt lat="44.52161" lon="6.49645">
        <ele>1203.2</ele>
        <time>2014-09-14T11:00:36Z</time>
      </trkpt>
      <trkpt lat="44.52165" lon="6.49652">
        <ele>1200.8</ele>
        <time>2014-09-14T11:00:43Z</time>
      </trkpt>
      <trkpt lat="44.52169" lon="6.49654">
        <ele>1199.4</ele>
        <time>2014-09-14T11:00:47Z</time>
      </trkpt>
      <trkpt lat="44.5217" lon="6.49658">
        <ele>1197.9</ele>
        <time>2014-09-14T11:00:50Z</time>
      </trkpt>
      <trkpt lat="44.52167" lon="6.49665">
        <ele>1195.5</ele>
        <time>2014-09-14T11:00:55Z</time>
      </trkpt>
      <trkpt lat="44.52166" lon="6.49672">
        <ele>1193.1</ele>
        <time>2014-09-14T11:00:59Z</time>
      </trkpt>
      <trkpt lat="44.52171" lon="6.49679">
        <ele>1191.7</ele>
        <time>2014-09-14T11:01:03Z</time>
      </trkpt>
      <trkpt lat="44.52182" lon="6.49686">
        <ele>1188.3</ele>
        <time>2014-09-14T11:01:11Z</time>
      </trkpt>
      <trkpt lat="44.52185" lon="6.49687">
        <ele>1187.4</ele>
        <time>2014-09-14T11:01:12Z</time>
      </trkpt>
      <trkpt lat="44.52198" lon="6.49689">
        <ele>1183.5</ele>
        <time>2014-09-14T11:01:19Z</time>
      </trkpt>
      <trkpt lat="44.52206" lon="6.49698">
        <ele>1180.2</ele>
        <time>2014-09-14T11:01:23Z</time>
      </trkpt>
      <trkpt lat="44.5221" lon="6.497">
        <ele>1180.2</ele>
        <time>2014-09-14T11:01:27Z</time>
      </trkpt>
      <trkpt lat="44.52214" lon="6.4971">
        <ele>1179.2</ele>
        <time>2014-09-14T11:01:32Z</time>
      </trkpt>
      <trkpt lat="44.52222" lon="6.49721">
        <ele>1177.8</ele>
        <time>2014-09-14T11:01:35Z</time>
      </trkpt>
      <trkpt lat="44.52235" lon="6.49725">
        <ele>1174.9</ele>
        <time>2014-09-14T11:01:40Z</time>
      </trkpt>
      <trkpt lat="44.52245" lon="6.49725">
        <ele>1173</ele>
        <time>2014-09-14T11:01:44Z</time>
      </trkpt>
      <trkpt lat="44.52264" lon="6.49729">
        <ele>1170.5</ele>
        <time>2014-09-14T11:01:51Z</time>
      </trkpt>
      <trkpt lat="44.52267" lon="6.49731">
        <ele>1169.1</ele>
        <time>2014-09-14T11:01:56Z</time>
      </trkpt>
      <trkpt lat="44.52267" lon="6.4973">
        <ele>1169.1</ele>
        <time>2014-09-14T11:01:59Z</time>
      </trkpt>
      <trkpt lat="44.52266" lon="6.49731">
        <ele>1168.6</ele>
        <time>2014-09-14T11:02:00Z</time>
      </trkpt>
      <trkpt lat="44.52264" lon="6.49733">
        <ele>1168.1</ele>
        <time>2014-09-14T11:02:01Z</time>
      </trkpt>
      <trkpt lat="44.52257" lon="6.49746">
        <ele>1164.8</ele>
        <time>2014-09-14T11:02:08Z</time>
      </trkpt>
      <trkpt lat="44.52256" lon="6.49757">
        <ele>1162.4</ele>
        <time>2014-09-14T11:02:14Z</time>
      </trkpt>
      <trkpt lat="44.52265" lon="6.49767">
        <ele>1159</ele>
        <time>2014-09-14T11:02:19Z</time>
      </trkpt>
      <trkpt lat="44.52274" lon="6.4977">
        <ele>1157.1</ele>
        <time>2014-09-14T11:02:24Z</time>
      </trkpt>
      <trkpt lat="44.52281" lon="6.49772">
        <ele>1154.7</ele>
        <time>2014-09-14T11:02:29Z</time>
      </trkpt>
      <trkpt lat="44.5229" lon="6.49762">
        <ele>1155.2</ele>
        <time>2014-09-14T11:02:37Z</time>
      </trkpt>
      <trkpt lat="44.52294" lon="6.49767">
        <ele>1153.2</ele>
        <time>2014-09-14T11:02:41Z</time>
      </trkpt>
      <trkpt lat="44.52295" lon="6.4977">
        <ele>1152.3</ele>
        <time>2014-09-14T11:02:43Z</time>
      </trkpt>
      <trkpt lat="44.52295" lon="6.49771">
        <ele>1151.8</ele>
        <time>2014-09-14T11:02:44Z</time>
      </trkpt>
      <trkpt lat="44.52299" lon="6.49771">
        <ele>1150.4</ele>
        <time>2014-09-14T11:02:47Z</time>
      </trkpt>
      <trkpt lat="44.52299" lon="6.49773">
        <ele>1149.9</ele>
        <time>2014-09-14T11:02:48Z</time>
      </trkpt>
      <trkpt lat="44.52307" lon="6.49779">
        <ele>1148</ele>
        <time>2014-09-14T11:02:53Z</time>
      </trkpt>
      <trkpt lat="44.52308" lon="6.49783">
        <ele>1146.5</ele>
        <time>2014-09-14T11:02:55Z</time>
      </trkpt>
      <trkpt lat="44.52308" lon="6.49785">
        <ele>1145.6</ele>
        <time>2014-09-14T11:02:56Z</time>
      </trkpt>
      <trkpt lat="44.52308" lon="6.49788">
        <ele>1145.1</ele>
        <time>2014-09-14T11:02:57Z</time>
      </trkpt>
      <trkpt lat="44.5231" lon="6.49789">
        <ele>1145.1</ele>
        <time>2014-09-14T11:02:58Z</time>
      </trkpt>
      <trkpt lat="44.52318" lon="6.49793">
        <ele>1141.7</ele>
        <time>2014-09-14T11:03:02Z</time>
      </trkpt>
      <trkpt lat="44.52321" lon="6.49794">
        <ele>1141.2</ele>
        <time>2014-09-14T11:03:03Z</time>
      </trkpt>
      <trkpt lat="44.52322" lon="6.49797">
        <ele>1140.3</ele>
        <time>2014-09-14T11:03:04Z</time>
      </trkpt>
      <trkpt lat="44.52324" lon="6.49809">
        <ele>1139.3</ele>
        <time>2014-09-14T11:03:07Z</time>
      </trkpt>
      <trkpt lat="44.52335" lon="6.4982">
        <ele>1135.9</ele>
        <time>2014-09-14T11:03:12Z</time>
      </trkpt>
      <trkpt lat="44.5235" lon="6.4984">
        <ele>1133.1</ele>
        <time>2014-09-14T11:03:19Z</time>
      </trkpt>
      <trkpt lat="44.5236" lon="6.49855">
        <ele>1132.1</ele>
        <time>2014-09-14T11:03:22Z</time>
      </trkpt>
      <trkpt lat="44.52368" lon="6.49857">
        <ele>1131.6</ele>
        <time>2014-09-14T11:03:34Z</time>
      </trkpt>
      <trkpt lat="44.52372" lon="6.49864">
        <ele>1131.6</ele>
        <time>2014-09-14T11:03:52Z</time>
      </trkpt>
      <trkpt lat="44.5237" lon="6.49866">
        <ele>1131.1</ele>
        <time>2014-09-14T11:04:12Z</time>
      </trkpt>
      <trkpt lat="44.52373" lon="6.49867">
        <ele>1131.1</ele>
        <time>2014-09-14T11:04:22Z</time>
      </trkpt>
      <trkpt lat="44.5238" lon="6.49888">
        <ele>1128.2</ele>
        <time>2014-09-14T11:04:28Z</time>
      </trkpt>
      <trkpt lat="44.52381" lon="6.49895">
        <ele>1126.3</ele>
        <time>2014-09-14T11:04:30Z</time>
      </trkpt>
      <trkpt lat="44.52385" lon="6.49908">
        <ele>1123.9</ele>
        <time>2014-09-14T11:04:33Z</time>
      </trkpt>
      <trkpt lat="44.5239" lon="6.49931">
        <ele>1120.6</ele>
        <time>2014-09-14T11:04:38Z</time>
      </trkpt>
      <trkpt lat="44.52391" lon="6.49934">
        <ele>1120.1</ele>
        <time>2014-09-14T11:04:39Z</time>
      </trkpt>
      <trkpt lat="44.52396" lon="6.49945">
        <ele>1118.2</ele>
        <time>2014-09-14T11:04:42Z</time>
      </trkpt>
      <trkpt lat="44.52398" lon="6.49949">
        <ele>1117.2</ele>
        <time>2014-09-14T11:04:43Z</time>
      </trkpt>
      <trkpt lat="44.524" lon="6.49967">
        <ele>1115.3</ele>
        <time>2014-09-14T11:04:48Z</time>
      </trkpt>
      <trkpt lat="44.52379" lon="6.4996">
        <ele>1115.3</ele>
        <time>2014-09-14T11:05:00Z</time>
      </trkpt>
      <trkpt lat="44.52366" lon="6.49961">
        <ele>1115.3</ele>
        <time>2014-09-14T11:05:13Z</time>
      </trkpt>
      <trkpt lat="44.52366" lon="6.49962">
        <ele>1115.8</ele>
        <time>2014-09-14T11:05:15Z</time>
      </trkpt>
      <trkpt lat="44.52368" lon="6.49975">
        <ele>1114.3</ele>
        <time>2014-09-14T11:05:20Z</time>
      </trkpt>
      <trkpt lat="44.52367" lon="6.49984">
        <ele>1112.4</ele>
        <time>2014-09-14T11:05:23Z</time>
      </trkpt>
      <trkpt lat="44.52352" lon="6.49976">
        <ele>1112.4</ele>
        <time>2014-09-14T11:05:31Z</time>
      </trkpt>
      <trkpt lat="44.52357" lon="6.4998">
        <ele>1111.4</ele>
        <time>2014-09-14T11:05:36Z</time>
      </trkpt>
      <trkpt lat="44.52352" lon="6.49976">
        <ele>1110.5</ele>
        <time>2014-09-14T11:05:46Z</time>
      </trkpt>
      <trkpt lat="44.52362" lon="6.49956">
        <ele>1108.1</ele>
        <time>2014-09-14T11:05:56Z</time>
      </trkpt>
      <trkpt lat="44.52371" lon="6.49945">
        <ele>1106.6</ele>
        <time>2014-09-14T11:06:05Z</time>
      </trkpt>
      <trkpt lat="44.52372" lon="6.49943">
        <ele>1106.6</ele>
        <time>2014-09-14T11:06:10Z</time>
      </trkpt>
      <trkpt lat="44.52393" lon="6.49925">
        <ele>1102.8</ele>
        <time>2014-09-14T11:06:17Z</time>
      </trkpt>
      <trkpt lat="44.52409" lon="6.49922">
        <ele>1099.4</ele>
        <time>2014-09-14T11:06:21Z</time>
      </trkpt>
      <trkpt lat="44.52424" lon="6.49906">
        <ele>1097</ele>
        <time>2014-09-14T11:06:26Z</time>
      </trkpt>
      <trkpt lat="44.52432" lon="6.4989">
        <ele>1095.1</ele>
        <time>2014-09-14T11:06:29Z</time>
      </trkpt>
      <trkpt lat="44.52438" lon="6.49887">
        <ele>1093.6</ele>
        <time>2014-09-14T11:06:31Z</time>
      </trkpt>
      <trkpt lat="44.52446" lon="6.49875">
        <ele>1091.7</ele>
        <time>2014-09-14T11:06:35Z</time>
      </trkpt>
      <trkpt lat="44.52451" lon="6.49851">
        <ele>1090.3</ele>
        <time>2014-09-14T11:06:39Z</time>
      </trkpt>
      <trkpt lat="44.52457" lon="6.4984">
        <ele>1089.3</ele>
        <time>2014-09-14T11:06:41Z</time>
      </trkpt>
      <trkpt lat="44.52482" lon="6.498">
        <ele>1086.4</ele>
        <time>2014-09-14T11:06:49Z</time>
      </trkpt>
      <trkpt lat="44.52496" lon="6.49799">
        <ele>1083.1</ele>
        <time>2014-09-14T11:06:54Z</time>
      </trkpt>
      <trkpt lat="44.52499" lon="6.49795">
        <ele>1082.6</ele>
        <time>2014-09-14T11:06:55Z</time>
      </trkpt>
      <trkpt lat="44.52505" lon="6.49774">
        <ele>1081.1</ele>
        <time>2014-09-14T11:06:59Z</time>
      </trkpt>
      <trkpt lat="44.52513" lon="6.49757">
        <ele>1079.2</ele>
        <time>2014-09-14T11:07:03Z</time>
      </trkpt>
      <trkpt lat="44.52521" lon="6.49728">
        <ele>1077.8</ele>
        <time>2014-09-14T11:07:08Z</time>
      </trkpt>
      <trkpt lat="44.52544" lon="6.49708">
        <ele>1073.9</ele>
        <time>2014-09-14T11:07:17Z</time>
      </trkpt>
      <trkpt lat="44.52547" lon="6.49705">
        <ele>1073.9</ele>
        <time>2014-09-14T11:07:18Z</time>
      </trkpt>
      <trkpt lat="44.52552" lon="6.49693">
        <ele>1073</ele>
        <time>2014-09-14T11:07:20Z</time>
      </trkpt>
      <trkpt lat="44.52568" lon="6.4968">
        <ele>1071.5</ele>
        <time>2014-09-14T11:07:24Z</time>
      </trkpt>
      <trkpt lat="44.52607" lon="6.49653">
        <ele>1070.1</ele>
        <time>2014-09-14T11:07:33Z</time>
      </trkpt>
      <trkpt lat="44.52635" lon="6.49642">
        <ele>1069.6</ele>
        <time>2014-09-14T11:07:41Z</time>
      </trkpt>
      <trkpt lat="44.52648" lon="6.49642">
        <ele>1069.6</ele>
        <time>2014-09-14T11:07:47Z</time>
      </trkpt>
      <trkpt lat="44.52655" lon="6.49645">
        <ele>1069.6</ele>
        <time>2014-09-14T11:07:59Z</time>
      </trkpt>
      <trkpt lat="44.52658" lon="6.49643">
        <ele>1069.1</ele>
        <time>2014-09-14T11:08:03Z</time>
      </trkpt>
      <trkpt lat="44.52664" lon="6.49641">
        <ele>1069.1</ele>
        <time>2014-09-14T11:08:08Z</time>
      </trkpt>
      <trkpt lat="44.52701" lon="6.49639">
        <ele>1068.2</ele>
        <time>2014-09-14T11:08:20Z</time>
      </trkpt>
      <trkpt lat="44.5271" lon="6.49644">
        <ele>1068.2</ele>
        <time>2014-09-14T11:08:23Z</time>
      </trkpt>
      <trkpt lat="44.52747" lon="6.49647">
        <ele>1064.8</ele>
        <time>2014-09-14T11:08:33Z</time>
      </trkpt>
      <trkpt lat="44.5277" lon="6.49622">
        <ele>1061.9</ele>
        <time>2014-09-14T11:08:40Z</time>
      </trkpt>
      <trkpt lat="44.52794" lon="6.49608">
        <ele>1059</ele>
        <time>2014-09-14T11:08:46Z</time>
      </trkpt>
      <trkpt lat="44.52804" lon="6.49604">
        <ele>1058.1</ele>
        <time>2014-09-14T11:08:48Z</time>
      </trkpt>
      <trkpt lat="44.52836" lon="6.49605">
        <ele>1055.2</ele>
        <time>2014-09-14T11:08:53Z</time>
      </trkpt>
      <trkpt lat="44.52842" lon="6.49606">
        <ele>1054.2</ele>
        <time>2014-09-14T11:08:54Z</time>
      </trkpt>
      <trkpt lat="44.52851" lon="6.49608">
        <ele>1053.3</ele>
        <time>2014-09-14T11:08:56Z</time>
      </trkpt>
      <trkpt lat="44.52857" lon="6.49609">
        <ele>1052.3</ele>
        <time>2014-09-14T11:08:58Z</time>
      </trkpt>
      <trkpt lat="44.52864" lon="6.49609">
        <ele>1051.3</ele>
        <time>2014-09-14T11:09:01Z</time>
      </trkpt>
      <trkpt lat="44.52879" lon="6.49622">
        <ele>1051.3</ele>
        <time>2014-09-14T11:09:08Z</time>
      </trkpt>
      <trkpt lat="44.52898" lon="6.4963">
        <ele>1048</ele>
        <time>2014-09-14T11:09:13Z</time>
      </trkpt>
      <trkpt lat="44.52902" lon="6.49632">
        <ele>1047</ele>
        <time>2014-09-14T11:09:14Z</time>
      </trkpt>
      <trkpt lat="44.52924" lon="6.49645">
        <ele>1043.2</ele>
        <time>2014-09-14T11:09:19Z</time>
      </trkpt>
      <trkpt lat="44.52927" lon="6.49646">
        <ele>1043.2</ele>
        <time>2014-09-14T11:09:20Z</time>
      </trkpt>
      <trkpt lat="44.52935" lon="6.49656">
        <ele>1041.7</ele>
        <time>2014-09-14T11:09:23Z</time>
      </trkpt>
      <trkpt lat="44.52956" lon="6.49683">
        <ele>1038.4</ele>
        <time>2014-09-14T11:09:30Z</time>
      </trkpt>
      <trkpt lat="44.52963" lon="6.49693">
        <ele>1036</ele>
        <time>2014-09-14T11:09:38Z</time>
      </trkpt>
      <trkpt lat="44.52965" lon="6.49693">
        <ele>1036</ele>
        <time>2014-09-14T11:09:43Z</time>
      </trkpt>
      <trkpt lat="44.52972" lon="6.49694">
        <ele>1033.6</ele>
        <time>2014-09-14T11:09:47Z</time>
      </trkpt>
      <trkpt lat="44.52983" lon="6.49694">
        <ele>1032.1</ele>
        <time>2014-09-14T11:09:50Z</time>
      </trkpt>
      <trkpt lat="44.52987" lon="6.49695">
        <ele>1031.6</ele>
        <time>2014-09-14T11:09:51Z</time>
      </trkpt>
      <trkpt lat="44.53004" lon="6.49702">
        <ele>1029.7</ele>
        <time>2014-09-14T11:09:55Z</time>
      </trkpt>
      <trkpt lat="44.53019" lon="6.49717">
        <ele>1025.9</ele>
        <time>2014-09-14T11:10:02Z</time>
      </trkpt>
      <trkpt lat="44.53031" lon="6.49729">
        <ele>1023</ele>
        <time>2014-09-14T11:10:06Z</time>
      </trkpt>
      <trkpt lat="44.53047" lon="6.49729">
        <ele>1019.1</ele>
        <time>2014-09-14T11:10:11Z</time>
      </trkpt>
      <trkpt lat="44.53058" lon="6.49728">
        <ele>1015.3</ele>
        <time>2014-09-14T11:10:14Z</time>
      </trkpt>
      <trkpt lat="44.53069" lon="6.49727">
        <ele>1012.4</ele>
        <time>2014-09-14T11:10:17Z</time>
      </trkpt>
      <trkpt lat="44.53082" lon="6.49725">
        <ele>1009</ele>
        <time>2014-09-14T11:10:20Z</time>
      </trkpt>
      <trkpt lat="44.53087" lon="6.49726">
        <ele>1008.1</ele>
        <time>2014-09-14T11:10:21Z</time>
      </trkpt>
      <trkpt lat="44.53105" lon="6.49727">
        <ele>1005.2</ele>
        <time>2014-09-14T11:10:25Z</time>
      </trkpt>
      <trkpt lat="44.53117" lon="6.49726">
        <ele>1003.8</ele>
        <time>2014-09-14T11:10:33Z</time>
      </trkpt>
      <trkpt lat="44.53118" lon="6.49726">
        <ele>1003.8</ele>
        <time>2014-09-14T11:10:36Z</time>
      </trkpt>
      <trkpt lat="44.53153" lon="6.49731">
        <ele>1001.8</ele>
        <time>2014-09-14T11:10:47Z</time>
      </trkpt>
      <trkpt lat="44.53155" lon="6.49732">
        <ele>1001.4</ele>
        <time>2014-09-14T11:10:48Z</time>
      </trkpt>
      <trkpt lat="44.53168" lon="6.49741">
        <ele>997.5</ele>
        <time>2014-09-14T11:10:54Z</time>
      </trkpt>
      <trkpt lat="44.53172" lon="6.49745">
        <ele>997</ele>
        <time>2014-09-14T11:10:55Z</time>
      </trkpt>
      <trkpt lat="44.53194" lon="6.49746">
        <ele>993.7</ele>
        <time>2014-09-14T11:10:59Z</time>
      </trkpt>
      <trkpt lat="44.53228" lon="6.49733">
        <ele>992.7</ele>
        <time>2014-09-14T11:11:08Z</time>
      </trkpt>
      <trkpt lat="44.53239" lon="6.49734">
        <ele>989.3</ele>
        <time>2014-09-14T11:11:12Z</time>
      </trkpt>
      <trkpt lat="44.53254" lon="6.49731">
        <ele>986</ele>
        <time>2014-09-14T11:11:17Z</time>
      </trkpt>
      <trkpt lat="44.53272" lon="6.49719">
        <ele>982.6</ele>
        <time>2014-09-14T11:11:23Z</time>
      </trkpt>
      <trkpt lat="44.53295" lon="6.49715">
        <ele>979.7</ele>
        <time>2014-09-14T11:11:30Z</time>
      </trkpt>
      <trkpt lat="44.53299" lon="6.49716">
        <ele>979.7</ele>
        <time>2014-09-14T11:11:31Z</time>
      </trkpt>
      <trkpt lat="44.53319" lon="6.49713">
        <ele>977.8</ele>
        <time>2014-09-14T11:11:35Z</time>
      </trkpt>
      <trkpt lat="44.53344" lon="6.49712">
        <ele>975.9</ele>
        <time>2014-09-14T11:11:42Z</time>
      </trkpt>
      <trkpt lat="44.53364" lon="6.49691">
        <ele>973.5</ele>
        <time>2014-09-14T11:11:47Z</time>
      </trkpt>
      <trkpt lat="44.53379" lon="6.49682">
        <ele>972</ele>
        <time>2014-09-14T11:11:50Z</time>
      </trkpt>
      <trkpt lat="44.53383" lon="6.49681">
        <ele>972</ele>
        <time>2014-09-14T11:11:51Z</time>
      </trkpt>
      <trkpt lat="44.5341" lon="6.49683">
        <ele>969.6</ele>
        <time>2014-09-14T11:11:58Z</time>
      </trkpt>
      <trkpt lat="44.53429" lon="6.49675">
        <ele>966.3</ele>
        <time>2014-09-14T11:12:03Z</time>
      </trkpt>
      <trkpt lat="44.53433" lon="6.49672">
        <ele>965.8</ele>
        <time>2014-09-14T11:12:04Z</time>
      </trkpt>
      <trkpt lat="44.53447" lon="6.49661">
        <ele>963.9</ele>
        <time>2014-09-14T11:12:08Z</time>
      </trkpt>
      <trkpt lat="44.53465" lon="6.49648">
        <ele>960</ele>
        <time>2014-09-14T11:12:14Z</time>
      </trkpt>
      <trkpt lat="44.5348" lon="6.49635">
        <ele>956.2</ele>
        <time>2014-09-14T11:12:19Z</time>
      </trkpt>
      <trkpt lat="44.53493" lon="6.49633">
        <ele>952.8</ele>
        <time>2014-09-14T11:12:24Z</time>
      </trkpt>
      <trkpt lat="44.53497" lon="6.49634">
        <ele>951.8</ele>
        <time>2014-09-14T11:12:25Z</time>
      </trkpt>
      <trkpt lat="44.5352" lon="6.4963">
        <ele>947.5</ele>
        <time>2014-09-14T11:12:29Z</time>
      </trkpt>
      <trkpt lat="44.53553" lon="6.49619">
        <ele>944.2</ele>
        <time>2014-09-14T11:12:34Z</time>
      </trkpt>
      <trkpt lat="44.53561" lon="6.49596">
        <ele>940.3</ele>
        <time>2014-09-14T11:12:38Z</time>
      </trkpt>
      <trkpt lat="44.53561" lon="6.49587">
        <ele>938.9</ele>
        <time>2014-09-14T11:12:39Z</time>
      </trkpt>
      <trkpt lat="44.53561" lon="6.49572">
        <ele>936.9</ele>
        <time>2014-09-14T11:12:41Z</time>
      </trkpt>
      <trkpt lat="44.53573" lon="6.49567">
        <ele>935.5</ele>
        <time>2014-09-14T11:12:45Z</time>
      </trkpt>
      <trkpt lat="44.53604" lon="6.49587">
        <ele>931.7</ele>
        <time>2014-09-14T11:12:50Z</time>
      </trkpt>
      <trkpt lat="44.53612" lon="6.49591">
        <ele>931.7</ele>
        <time>2014-09-14T11:12:51Z</time>
      </trkpt>
      <trkpt lat="44.53635" lon="6.49597">
        <ele>928.8</ele>
        <time>2014-09-14T11:12:54Z</time>
      </trkpt>
      <trkpt lat="44.5366" lon="6.49573">
        <ele>924.9</ele>
        <time>2014-09-14T11:13:02Z</time>
      </trkpt>
      <trkpt lat="44.53662" lon="6.49565">
        <ele>924.5</ele>
        <time>2014-09-14T11:13:03Z</time>
      </trkpt>
      <trkpt lat="44.53673" lon="6.4954">
        <ele>921.6</ele>
        <time>2014-09-14T11:13:07Z</time>
      </trkpt>
      <trkpt lat="44.53693" lon="6.49554">
        <ele>918.7</ele>
        <time>2014-09-14T11:13:12Z</time>
      </trkpt>
      <trkpt lat="44.53698" lon="6.49556">
        <ele>918.7</ele>
        <time>2014-09-14T11:13:13Z</time>
      </trkpt>
      <trkpt lat="44.53703" lon="6.49557">
        <ele>917.2</ele>
        <time>2014-09-14T11:13:14Z</time>
      </trkpt>
      <trkpt lat="44.5372" lon="6.49563">
        <ele>915.3</ele>
        <time>2014-09-14T11:13:17Z</time>
      </trkpt>
      <trkpt lat="44.5375" lon="6.4957">
        <ele>912</ele>
        <time>2014-09-14T11:13:21Z</time>
      </trkpt>
      <trkpt lat="44.53786" lon="6.49552">
        <ele>907.6</ele>
        <time>2014-09-14T11:13:27Z</time>
      </trkpt>
      <trkpt lat="44.53811" lon="6.49555">
        <ele>904.3</ele>
        <time>2014-09-14T11:13:32Z</time>
      </trkpt>
      <trkpt lat="44.53815" lon="6.49571">
        <ele>903.3</ele>
        <time>2014-09-14T11:13:34Z</time>
      </trkpt>
      <trkpt lat="44.53817" lon="6.49594">
        <ele>901.9</ele>
        <time>2014-09-14T11:13:37Z</time>
      </trkpt>
      <trkpt lat="44.53831" lon="6.49601">
        <ele>899.5</ele>
        <time>2014-09-14T11:13:41Z</time>
      </trkpt>
      <trkpt lat="44.53861" lon="6.49595">
        <ele>896.1</ele>
        <time>2014-09-14T11:13:50Z</time>
      </trkpt>
      <trkpt lat="44.53867" lon="6.49587">
        <ele>895.6</ele>
        <time>2014-09-14T11:13:55Z</time>
      </trkpt>
      <trkpt lat="44.5387" lon="6.4958">
        <ele>895.1</ele>
        <time>2014-09-14T11:14:03Z</time>
      </trkpt>
      <trkpt lat="44.53869" lon="6.49586">
        <ele>895.1</ele>
        <time>2014-09-14T11:14:12Z</time>
      </trkpt>
      <trkpt lat="44.5388" lon="6.4959">
        <ele>894.6</ele>
        <time>2014-09-14T11:14:22Z</time>
      </trkpt>
      <trkpt lat="44.53885" lon="6.49589">
        <ele>893.7</ele>
        <time>2014-09-14T11:14:45Z</time>
      </trkpt>
      <trkpt lat="44.539" lon="6.49586">
        <ele>892.7</ele>
        <time>2014-09-14T11:14:58Z</time>
      </trkpt>
      <trkpt lat="44.53904" lon="6.49584">
        <ele>892.2</ele>
        <time>2014-09-14T11:15:01Z</time>
      </trkpt>
      <trkpt lat="44.53932" lon="6.49587">
        <ele>890.8</ele>
        <time>2014-09-14T11:15:13Z</time>
      </trkpt>
      <trkpt lat="44.53951" lon="6.49581">
        <ele>890.3</ele>
        <time>2014-09-14T11:15:20Z</time>
      </trkpt>
      <trkpt lat="44.53953" lon="6.49577">
        <ele>891.8</ele>
        <time>2014-09-14T11:15:22Z</time>
      </trkpt>
      <trkpt lat="44.53955" lon="6.49572">
        <ele>892.2</ele>
        <time>2014-09-14T11:15:24Z</time>
      </trkpt>
      <trkpt lat="44.53974" lon="6.49559">
        <ele>892.7</ele>
        <time>2014-09-14T11:15:36Z</time>
      </trkpt>
      <trkpt lat="44.53974" lon="6.49558">
        <ele>892.7</ele>
        <time>2014-09-14T11:15:44Z</time>
      </trkpt>
      <trkpt lat="44.53949" lon="6.49579">
        <ele>891.3</ele>
        <time>2014-09-14T11:15:53Z</time>
      </trkpt>
      <trkpt lat="44.53933" lon="6.49591">
        <ele>889.8</ele>
        <time>2014-09-14T11:15:58Z</time>
      </trkpt>
      <trkpt lat="44.5389" lon="6.49592">
        <ele>892.2</ele>
        <time>2014-09-14T11:16:13Z</time>
      </trkpt>
      <trkpt lat="44.53871" lon="6.49591">
        <ele>893.2</ele>
        <time>2014-09-14T11:16:21Z</time>
      </trkpt>
      <trkpt lat="44.53865" lon="6.496">
        <ele>893.2</ele>
        <time>2014-09-14T11:16:24Z</time>
      </trkpt>
      <trkpt lat="44.53853" lon="6.4963">
        <ele>893.2</ele>
        <time>2014-09-14T11:16:31Z</time>
      </trkpt>
      <trkpt lat="44.53826" lon="6.49634">
        <ele>891.8</ele>
        <time>2014-09-14T11:16:40Z</time>
      </trkpt>
      <trkpt lat="44.53826" lon="6.49638">
        <ele>890.8</ele>
        <time>2014-09-14T11:16:50Z</time>
      </trkpt>
      <trkpt lat="44.53824" lon="6.49638">
        <ele>890.3</ele>
        <time>2014-09-14T11:17:23Z</time>
      </trkpt>
      <trkpt lat="44.53831" lon="6.49641">
        <ele>889.8</ele>
        <time>2014-09-14T11:17:54Z</time>
      </trkpt>
      <trkpt lat="44.53829" lon="6.49635">
        <ele>889.8</ele>
        <time>2014-09-14T11:18:12Z</time>
      </trkpt>
      <trkpt lat="44.53829" lon="6.49635">
        <ele>890.8</ele>
        <time>2014-09-14T11:18:24Z</time>
      </trkpt>
    </trkseg>
  </trk>
</gpx>